<?xml version='1.0' encoding='UTF-8'?><gpx version="1.1" creator="JPX - https://github.com/jenetics/jpx" xmlns="http://www.topografix.com/GPX/1/1"><trk><trkseg><trkpt lat="45.571965726473245" lon="9.00621526366503"><ele>180.0</ele><time>2026-03-28T10:19:32.999Z</time></trkpt><trkpt lat="45.57194475069874" lon="9.006083615247839"><ele>180.0</ele><time>2026-03-28T10:19:34.999Z</time></trkpt><trkpt lat="45.57192752128541" lon="9.00599571167189"><ele>180.0</ele><time>2026-03-28T10:19:36Z</time></trkpt><trkpt lat="45.57191072586727" lon="9.005906844227708"><ele>180.0</ele><time>2026-03-28T10:19:37Z</time></trkpt><trkpt lat="45.57192569706393" lon="9.005781860411682"><ele>180.0</ele><time>2026-03-28T10:19:38Z</time></trkpt><trkpt lat="45.571917741438696" lon="9.00564151273117"><ele>180.0</ele><time>2026-03-28T10:19:39Z</time></trkpt><trkpt lat="45.571923781940995" lon="9.005485975063303"><ele>180.5</ele><time>2026-03-28T10:19:40Z</time></trkpt><trkpt lat="45.571918940599595" lon="9.00529549476472"><ele>181.0</ele><time>2026-03-28T10:19:41Z</time></trkpt><trkpt lat="45.57189963486697" lon="9.005091301554764"><ele>181.5</ele><time>2026-03-28T10:19:42Z</time></trkpt><trkpt lat="45.57188518841095" lon="9.004873579042817"><ele>182.0</ele><time>2026-03-28T10:19:43Z</time></trkpt><trkpt lat="45.571881591406594" lon="9.004668012717731"><ele>182.66666666666666</ele><time>2026-03-28T10:19:44Z</time></trkpt><trkpt lat="45.57185621416273" lon="9.004447090924186"><ele>183.33333333333334</ele><time>2026-03-28T10:19:45Z</time></trkpt><trkpt lat="45.5718480655961" lon="9.0042273469131"><ele>184.0</ele><time>2026-03-28T10:19:46Z</time></trkpt><trkpt lat="45.5718316422382" lon="9.004000922215404"><ele>182.33333333333334</ele><time>2026-03-28T10:19:47Z</time></trkpt><trkpt lat="45.571824368645885" lon="9.003774463496162"><ele>180.66666666666666</ele><time>2026-03-28T10:19:48Z</time></trkpt><trkpt lat="45.57179895889826" lon="9.003524398599973"><ele>179.0</ele><time>2026-03-28T10:19:49Z</time></trkpt><trkpt lat="45.57178344111405" lon="9.003275629268726"><ele>178.66666666666666</ele><time>2026-03-28T10:19:50Z</time></trkpt><trkpt lat="45.57177059548021" lon="9.003041255689542"><ele>178.33333333333334</ele><time>2026-03-28T10:19:51Z</time></trkpt><trkpt lat="45.571750326790294" lon="9.002800737215226"><ele>178.0</ele><time>2026-03-28T10:19:52Z</time></trkpt><trkpt lat="45.57173551528295" lon="9.002554782132002"><ele>177.66666666666669</ele><time>2026-03-28T10:19:53Z</time></trkpt><trkpt lat="45.571723363238796" lon="9.002307803795654"><ele>177.33333333333334</ele><time>2026-03-28T10:19:54Z</time></trkpt><trkpt lat="45.571709018530356" lon="9.002080356953279"><ele>177.0</ele><time>2026-03-28T10:19:55Z</time></trkpt><trkpt lat="45.571691241096474" lon="9.001867083785793"><ele>177.75</ele><time>2026-03-28T10:19:56Z</time></trkpt><trkpt lat="45.57168092371227" lon="9.001662707888292"><ele>178.5</ele><time>2026-03-28T10:19:56.999Z</time></trkpt><trkpt lat="45.571669715304054" lon="9.001458174809027"><ele>179.25</ele><time>2026-03-28T10:19:57.999Z</time></trkpt><trkpt lat="45.57165507228839" lon="9.001238228756268"><ele>180.0</ele><time>2026-03-28T10:19:58.999Z</time></trkpt><trkpt lat="45.5716571447987" lon="9.0010082054572"><ele>180.0</ele><time>2026-03-28T10:19:59.999Z</time></trkpt><trkpt lat="45.571643500664436" lon="9.000775913333484"><ele>180.0</ele><time>2026-03-28T10:20:00.999Z</time></trkpt><trkpt lat="45.57162935095834" lon="9.000535013868447"><ele>180.0</ele><time>2026-03-28T10:20:01.999Z</time></trkpt><trkpt lat="45.57161521515262" lon="9.00028513114717"><ele>180.0</ele><time>2026-03-28T10:20:02.999Z</time></trkpt><trkpt lat="45.571600825080154" lon="9.000030778832702"><ele>180.0</ele><time>2026-03-28T10:20:03.999Z</time></trkpt><trkpt lat="45.57158648044443" lon="8.999777229638154"><ele>180.0</ele><time>2026-03-28T10:20:04.999Z</time></trkpt><trkpt lat="45.571572072026676" lon="8.99952255308303"><ele>180.0</ele><time>2026-03-28T10:20:05.999Z</time></trkpt><trkpt lat="45.571559104886745" lon="8.999270982128133"><ele>180.0</ele><time>2026-03-28T10:20:06.999Z</time></trkpt><trkpt lat="45.571546760399094" lon="8.999030716906333"><ele>180.0</ele><time>2026-03-28T10:20:07.999Z</time></trkpt><trkpt lat="45.5715303655884" lon="8.998793913792746"><ele>180.33333333333334</ele><time>2026-03-28T10:20:08.999Z</time></trkpt><trkpt lat="45.57150330878863" lon="8.99855303507122"><ele>180.66666666666669</ele><time>2026-03-28T10:20:09.999Z</time></trkpt><trkpt lat="45.57145528820248" lon="8.998314125483883"><ele>181.0</ele><time>2026-03-28T10:20:10.999Z</time></trkpt><trkpt lat="45.57139238413355" lon="8.99808037164818"><ele>181.33333333333334</ele><time>2026-03-28T10:20:11.999Z</time></trkpt><trkpt lat="45.57131910873115" lon="8.99785994050302"><ele>181.66666666666666</ele><time>2026-03-28T10:20:12.999Z</time></trkpt><trkpt lat="45.57123012796675" lon="8.997653379953734"><ele>182.0</ele><time>2026-03-28T10:20:13.999Z</time></trkpt><trkpt lat="45.57112420140157" lon="8.997456598365249"><ele>180.66666666666666</ele><time>2026-03-28T10:20:14.999Z</time></trkpt><trkpt lat="45.571009914911045" lon="8.997263542247648"><ele>179.33333333333334</ele><time>2026-03-28T10:20:15.999Z</time></trkpt><trkpt lat="45.57089079740072" lon="8.997065709507714"><ele>178.0</ele><time>2026-03-28T10:20:16.999Z</time></trkpt><trkpt lat="45.57076603793201" lon="8.996858506490355"><ele>179.0</ele><time>2026-03-28T10:20:17.999Z</time></trkpt><trkpt lat="45.57064853253831" lon="8.996663351197363"><ele>180.0</ele><time>2026-03-28T10:20:18.999Z</time></trkpt><trkpt lat="45.57053529619732" lon="8.996478552435773"><ele>181.0</ele><time>2026-03-28T10:20:19.999Z</time></trkpt><trkpt lat="45.570416557645714" lon="8.99629640583839"><ele>181.0</ele><time>2026-03-28T10:20:20.999Z</time></trkpt><trkpt lat="45.57029206252918" lon="8.996122842475126"><ele>181.0</ele><time>2026-03-28T10:20:21.999Z</time></trkpt><trkpt lat="45.570166434631254" lon="8.995965847493155"><ele>181.0</ele><time>2026-03-28T10:20:22.999Z</time></trkpt><trkpt lat="45.57004280712831" lon="8.995820597640659"><ele>181.0</ele><time>2026-03-28T10:20:23.999Z</time></trkpt><trkpt lat="45.569921392283824" lon="8.99568651707823"><ele>181.0</ele><time>2026-03-28T10:20:24.999Z</time></trkpt><trkpt lat="45.56979317324902" lon="8.995557918219882"><ele>181.0</ele><time>2026-03-28T10:20:25.999Z</time></trkpt><trkpt lat="45.56967559442116" lon="8.995455275164899"><ele>181.0</ele><time>2026-03-28T10:20:26.999Z</time></trkpt><trkpt lat="45.569537661278545" lon="8.995335773921413"><ele>179.33333333333334</ele><time>2026-03-28T10:20:27.999Z</time></trkpt><trkpt lat="45.56939541365097" lon="8.99522369360922"><ele>177.66666666666666</ele><time>2026-03-28T10:20:28.999Z</time></trkpt><trkpt lat="45.56924905079848" lon="8.99512516981411"><ele>176.0</ele><time>2026-03-28T10:20:29.999Z</time></trkpt><trkpt lat="45.56909161346053" lon="8.995028205784974"><ele>176.66666666666666</ele><time>2026-03-28T10:20:30.999Z</time></trkpt><trkpt lat="45.568939112864186" lon="8.994941828240629"><ele>177.33333333333334</ele><time>2026-03-28T10:20:31.999Z</time></trkpt><trkpt lat="45.56879282465277" lon="8.994894021419158"><ele>178.0</ele><time>2026-03-28T10:20:32.999Z</time></trkpt><trkpt lat="45.56866328367827" lon="8.994817469097418"><ele>178.5</ele><time>2026-03-28T10:20:33.999Z</time></trkpt><trkpt lat="45.56853275963129" lon="8.994791892387681"><ele>179.0</ele><time>2026-03-28T10:20:34.999Z</time></trkpt><trkpt lat="45.568416585321316" lon="8.994727157467011"><ele>179.5</ele><time>2026-03-28T10:20:35.999Z</time></trkpt><trkpt lat="45.56831014518941" lon="8.99468669821838"><ele>180.0</ele><time>2026-03-28T10:20:36.999Z</time></trkpt><trkpt lat="45.56820675985645" lon="8.994631718907257"><ele>180.0</ele><time>2026-03-28T10:20:37.999Z</time></trkpt><trkpt lat="45.56809025726568" lon="8.99460598872438"><ele>180.0</ele><time>2026-03-28T10:20:38.999Z</time></trkpt><trkpt lat="45.56797778160011" lon="8.994578926358713"><ele>180.0</ele><time>2026-03-28T10:20:39.999Z</time></trkpt><trkpt lat="45.56786058550757" lon="8.994536251834454"><ele>180.0</ele><time>2026-03-28T10:20:40.999Z</time></trkpt><trkpt lat="45.56773831552505" lon="8.99450132160054"><ele>180.0</ele><time>2026-03-28T10:20:41.999Z</time></trkpt><trkpt lat="45.567615212926334" lon="8.994469521498626"><ele>180.0</ele><time>2026-03-28T10:20:42.999Z</time></trkpt><trkpt lat="45.56749695080351" lon="8.994426758593319"><ele>180.0</ele><time>2026-03-28T10:20:43.999Z</time></trkpt><trkpt lat="45.567380172873065" lon="8.994385276668378"><ele>180.0</ele><time>2026-03-28T10:20:44.999Z</time></trkpt><trkpt lat="45.567259021707834" lon="8.994347979464518"><ele>180.0</ele><time>2026-03-28T10:20:45.999Z</time></trkpt><trkpt lat="45.56715409449793" lon="8.99430274930882"><ele>180.0</ele><time>2026-03-28T10:20:46.999Z</time></trkpt><trkpt lat="45.56704534149274" lon="8.994261838790868"><ele>180.0</ele><time>2026-03-28T10:20:47.999Z</time></trkpt><trkpt lat="45.56694202493201" lon="8.99423535379299"><ele>180.0</ele><time>2026-03-28T10:20:48.999Z</time></trkpt><trkpt lat="45.566839454164196" lon="8.994215220219013"><ele>180.0</ele><time>2026-03-28T10:20:49.999Z</time></trkpt><trkpt lat="45.56675330906565" lon="8.99417074571585"><ele>180.0</ele><time>2026-03-28T10:20:50.999Z</time></trkpt><trkpt lat="45.56666695001055" lon="8.994142822153874"><ele>180.0</ele><time>2026-03-28T10:20:51.999Z</time></trkpt><trkpt lat="45.56658507546708" lon="8.994128014606202"><ele>180.0</ele><time>2026-03-28T10:20:52.999Z</time></trkpt><trkpt lat="45.566507256097644" lon="8.99410000935118"><ele>180.0</ele><time>2026-03-28T10:20:53.999Z</time></trkpt><trkpt lat="45.566436895571066" lon="8.994060443862486"><ele>180.0</ele><time>2026-03-28T10:20:54.999Z</time></trkpt><trkpt lat="45.566359975758026" lon="8.994017257981115"><ele>180.0</ele><time>2026-03-28T10:20:55.999Z</time></trkpt><trkpt lat="45.56631517336716" lon="8.993904646988508"><ele>180.0</ele><time>2026-03-28T10:20:56.999Z</time></trkpt><trkpt lat="45.566248403746506" lon="8.993824373341878"><ele>180.0</ele><time>2026-03-28T10:20:57.999Z</time></trkpt><trkpt lat="45.566147233829604" lon="8.993748355799045"><ele>180.0</ele><time>2026-03-28T10:20:58.999Z</time></trkpt><trkpt lat="45.56602070789623" lon="8.99378240560334"><ele>180.0</ele><time>2026-03-28T10:20:59.999Z</time></trkpt><trkpt lat="45.56590670335668" lon="8.99384834019751"><ele>179.75</ele><time>2026-03-28T10:21:00.999Z</time></trkpt><trkpt lat="45.56577145139492" lon="8.99381292421917"><ele>179.5</ele><time>2026-03-28T10:21:01.999Z</time></trkpt><trkpt lat="45.56563917967634" lon="8.993805703604565"><ele>179.25</ele><time>2026-03-28T10:21:02.999Z</time></trkpt><trkpt lat="45.565505382208194" lon="8.993738103688772"><ele>179.0</ele><time>2026-03-28T10:21:03.999Z</time></trkpt><trkpt lat="45.56536609848704" lon="8.993688814907161"><ele>179.5</ele><time>2026-03-28T10:21:04.999Z</time></trkpt><trkpt lat="45.56523308287119" lon="8.993664322591354"><ele>180.0</ele><time>2026-03-28T10:21:05.999Z</time></trkpt><trkpt lat="45.56510122977882" lon="8.993597809945674"><ele>180.5</ele><time>2026-03-28T10:21:06.999Z</time></trkpt><trkpt lat="45.5649662070109" lon="8.993551655261127"><ele>181.0</ele><time>2026-03-28T10:21:07.999Z</time></trkpt><trkpt lat="45.56483020541862" lon="8.993505165988061"><ele>181.0</ele><time>2026-03-28T10:21:09Z</time></trkpt><trkpt lat="45.564695370193554" lon="8.99348172469036"><ele>181.0</ele><time>2026-03-28T10:21:10Z</time></trkpt><trkpt lat="45.564561779383865" lon="8.993413410207097"><ele>181.0</ele><time>2026-03-28T10:21:11Z</time></trkpt><trkpt lat="45.56443133168151" lon="8.993368819411115"><ele>181.0</ele><time>2026-03-28T10:21:12Z</time></trkpt><trkpt lat="45.564300116998744" lon="8.993323966440135"><ele>181.0</ele><time>2026-03-28T10:21:13Z</time></trkpt><trkpt lat="45.564165228890424" lon="8.993277857785216"><ele>181.0</ele><time>2026-03-28T10:21:14Z</time></trkpt><trkpt lat="45.56402880534026" lon="8.993231224274744"><ele>181.0</ele><time>2026-03-28T10:21:15Z</time></trkpt><trkpt lat="45.56388689778209" lon="8.993182716164855"><ele>181.0</ele><time>2026-03-28T10:21:16Z</time></trkpt><trkpt lat="45.56374416550383" lon="8.993133926154327"><ele>181.0</ele><time>2026-03-28T10:21:17Z</time></trkpt><trkpt lat="45.56359526314866" lon="8.993083699893099"><ele>181.0</ele><time>2026-03-28T10:21:18Z</time></trkpt><trkpt lat="45.56344497344414" lon="8.993033257789806"><ele>181.0</ele><time>2026-03-28T10:21:19Z</time></trkpt><trkpt lat="45.56328543065967" lon="8.992979710056266"><ele>181.0</ele><time>2026-03-28T10:21:20Z</time></trkpt><trkpt lat="45.5631231360103" lon="8.992925238704734"><ele>181.0</ele><time>2026-03-28T10:21:21Z</time></trkpt><trkpt lat="45.56295872977508" lon="8.992870058634386"><ele>181.0</ele><time>2026-03-28T10:21:22Z</time></trkpt><trkpt lat="45.56279765288216" lon="8.992815717906982"><ele>181.66666666666669</ele><time>2026-03-28T10:21:23Z</time></trkpt><trkpt lat="45.562637078752275" lon="8.992782292847512"><ele>182.33333333333334</ele><time>2026-03-28T10:21:24Z</time></trkpt><trkpt lat="45.56247992265652" lon="8.992707337844623"><ele>183.0</ele><time>2026-03-28T10:21:25Z</time></trkpt><trkpt lat="45.562320754949184" lon="8.992674873424292"><ele>183.0</ele><time>2026-03-28T10:21:26Z</time></trkpt><trkpt lat="45.562177307192016" lon="8.992603434581476"><ele>183.0</ele><time>2026-03-28T10:21:27Z</time></trkpt><trkpt lat="45.562036416011594" lon="8.992554987327162"><ele>183.0</ele><time>2026-03-28T10:21:28Z</time></trkpt><trkpt lat="45.56188915924427" lon="8.99250435124586"><ele>183.0</ele><time>2026-03-28T10:21:29Z</time></trkpt><trkpt lat="45.561732567254396" lon="8.99245085526805"><ele>182.0</ele><time>2026-03-28T10:21:30Z</time></trkpt><trkpt lat="45.561571919722724" lon="8.992395546259813"><ele>181.0</ele><time>2026-03-28T10:21:31Z</time></trkpt><trkpt lat="45.561400826321446" lon="8.992336450152193"><ele>180.0</ele><time>2026-03-28T10:21:32Z</time></trkpt><trkpt lat="45.56122847229053" lon="8.992280673831978"><ele>179.66666666666666</ele><time>2026-03-28T10:21:33Z</time></trkpt><trkpt lat="45.561075985887044" lon="8.992228550411346"><ele>179.33333333333331</ele><time>2026-03-28T10:21:34Z</time></trkpt><trkpt lat="45.5609233144222" lon="8.992182764302372"><ele>179.0</ele><time>2026-03-28T10:21:35Z</time></trkpt><trkpt lat="45.56077206113931" lon="8.992126448437432"><ele>179.0</ele><time>2026-03-28T10:21:36Z</time></trkpt><trkpt lat="45.56061897016756" lon="8.992073279635694"><ele>179.0</ele><time>2026-03-28T10:21:37Z</time></trkpt><trkpt lat="45.560483047824654" lon="8.992017720160264"><ele>179.0</ele><time>2026-03-28T10:21:38Z</time></trkpt><trkpt lat="45.56034473249953" lon="8.991971352469472"><ele>179.0</ele><time>2026-03-28T10:21:39Z</time></trkpt><trkpt lat="45.56021109118854" lon="8.991935854824751"><ele>179.0</ele><time>2026-03-28T10:21:40Z</time></trkpt><trkpt lat="45.56008949951148" lon="8.9918822785986"><ele>179.0</ele><time>2026-03-28T10:21:41Z</time></trkpt><trkpt lat="45.55996344353016" lon="8.991861586311325"><ele>179.0</ele><time>2026-03-28T10:21:42Z</time></trkpt><trkpt lat="45.55985723732243" lon="8.991815289172246"><ele>179.0</ele><time>2026-03-28T10:21:43Z</time></trkpt><trkpt lat="45.55975336982882" lon="8.991772914955616"><ele>179.0</ele><time>2026-03-28T10:21:44Z</time></trkpt><trkpt lat="45.55964794566912" lon="8.991719872784683"><ele>179.0</ele><time>2026-03-28T10:21:45Z</time></trkpt><trkpt lat="45.559530979581226" lon="8.991680780768178"><ele>179.0</ele><time>2026-03-28T10:21:46Z</time></trkpt><trkpt lat="45.559406935719004" lon="8.991642709846923"><ele>179.0</ele><time>2026-03-28T10:21:47Z</time></trkpt><trkpt lat="45.55928010265664" lon="8.991601564721659"><ele>178.75</ele><time>2026-03-28T10:21:48Z</time></trkpt><trkpt lat="45.559158452348335" lon="8.991569103187365"><ele>178.5</ele><time>2026-03-28T10:21:49Z</time></trkpt><trkpt lat="45.5590425383999" lon="8.991529741691716"><ele>178.25</ele><time>2026-03-28T10:21:50Z</time></trkpt><trkpt lat="45.55893418040785" lon="8.991488654027572"><ele>178.0</ele><time>2026-03-28T10:21:51Z</time></trkpt><trkpt lat="45.55882970652544" lon="8.991458352348204"><ele>178.0</ele><time>2026-03-28T10:21:52Z</time></trkpt><trkpt lat="45.558731990298725" lon="8.991420287371822"><ele>178.0</ele><time>2026-03-28T10:21:53Z</time></trkpt><trkpt lat="45.55862357067212" lon="8.991377748177577"><ele>178.0</ele><time>2026-03-28T10:21:54Z</time></trkpt><trkpt lat="45.55851701513549" lon="8.991344843773021"><ele>178.0</ele><time>2026-03-28T10:21:55Z</time></trkpt><trkpt lat="45.55842417402388" lon="8.991292161743884"><ele>178.0</ele><time>2026-03-28T10:21:56Z</time></trkpt><trkpt lat="45.558337066448075" lon="8.991234752659064"><ele>178.2</ele><time>2026-03-28T10:21:57Z</time></trkpt><trkpt lat="45.55826397999324" lon="8.991151695102204"><ele>178.4</ele><time>2026-03-28T10:21:58Z</time></trkpt><trkpt lat="45.558204805790865" lon="8.991050129353576"><ele>178.6</ele><time>2026-03-28T10:21:59Z</time></trkpt><trkpt lat="45.55814149506549" lon="8.990957159677668"><ele>178.79999999999998</ele><time>2026-03-28T10:22:00Z</time></trkpt><trkpt lat="45.55806237526495" lon="8.990887878140033"><ele>179.0</ele><time>2026-03-28T10:22:01Z</time></trkpt><trkpt lat="45.55796492947722" lon="8.990873792933721"><ele>178.79999999999998</ele><time>2026-03-28T10:22:02Z</time></trkpt><trkpt lat="45.55785967100475" lon="8.990884928992426"><ele>178.6</ele><time>2026-03-28T10:22:03Z</time></trkpt><trkpt lat="45.557754458276555" lon="8.990901077094286"><ele>178.4</ele><time>2026-03-28T10:22:04Z</time></trkpt><trkpt lat="45.55764090022599" lon="8.990878437530421"><ele>178.2</ele><time>2026-03-28T10:22:05Z</time></trkpt><trkpt lat="45.55753217238663" lon="8.990830252587452"><ele>178.0</ele><time>2026-03-28T10:22:06Z</time></trkpt><trkpt lat="45.55742340522704" lon="8.990761647676699"><ele>178.0</ele><time>2026-03-28T10:22:06.999Z</time></trkpt><trkpt lat="45.557319694657515" lon="8.990688923091767"><ele>178.0</ele><time>2026-03-28T10:22:07.999Z</time></trkpt><trkpt lat="45.55720747132816" lon="8.990603142818758"><ele>178.0</ele><time>2026-03-28T10:22:08.999Z</time></trkpt><trkpt lat="45.55708526246047" lon="8.990532044327374"><ele>178.0</ele><time>2026-03-28T10:22:09.999Z</time></trkpt><trkpt lat="45.556964535118944" lon="8.990457296216984"><ele>178.0</ele><time>2026-03-28T10:22:10.999Z</time></trkpt><trkpt lat="45.55684524985178" lon="8.990381862652805"><ele>178.0</ele><time>2026-03-28T10:22:11.999Z</time></trkpt><trkpt lat="45.55672415929688" lon="8.99030633228009"><ele>178.0</ele><time>2026-03-28T10:22:12.999Z</time></trkpt><trkpt lat="45.55660273739377" lon="8.990236744427271"><ele>178.0</ele><time>2026-03-28T10:22:13.999Z</time></trkpt><trkpt lat="45.556482583934496" lon="8.99016209733452"><ele>178.0</ele><time>2026-03-28T10:22:14.999Z</time></trkpt><trkpt lat="45.55636420336095" lon="8.990089912661105"><ele>178.0</ele><time>2026-03-28T10:22:15.999Z</time></trkpt><trkpt lat="45.55625528419156" lon="8.989976655702623"><ele>178.0</ele><time>2026-03-28T10:22:16.999Z</time></trkpt><trkpt lat="45.556138489216515" lon="8.989881754353798"><ele>178.0</ele><time>2026-03-28T10:22:17.999Z</time></trkpt><trkpt lat="45.55602536417361" lon="8.989775261954113"><ele>178.25</ele><time>2026-03-28T10:22:18.999Z</time></trkpt><trkpt lat="45.55592038244323" lon="8.989656311227082"><ele>178.5</ele><time>2026-03-28T10:22:19.999Z</time></trkpt><trkpt lat="45.55581633940925" lon="8.98952758594094"><ele>178.75</ele><time>2026-03-28T10:22:20.999Z</time></trkpt><trkpt lat="45.555708358881645" lon="8.989388425390004"><ele>179.0</ele><time>2026-03-28T10:22:21.999Z</time></trkpt><trkpt lat="45.55560663274733" lon="8.989243783517098"><ele>177.75</ele><time>2026-03-28T10:22:22.999Z</time></trkpt><trkpt lat="45.55551081638607" lon="8.989100900205504"><ele>176.5</ele><time>2026-03-28T10:22:23.999Z</time></trkpt><trkpt lat="45.55540692843647" lon="8.988962311919773"><ele>175.25</ele><time>2026-03-28T10:22:24.999Z</time></trkpt><trkpt lat="45.55530829351452" lon="8.988822554442503"><ele>174.0</ele><time>2026-03-28T10:22:25.999Z</time></trkpt><trkpt lat="45.5552113456453" lon="8.988683636391807"><ele>174.0</ele><time>2026-03-28T10:22:26.999Z</time></trkpt><trkpt lat="45.555116834409695" lon="8.988542439494891"><ele>174.0</ele><time>2026-03-28T10:22:27.999Z</time></trkpt><trkpt lat="45.55502256630555" lon="8.988398701085325"><ele>174.0</ele><time>2026-03-28T10:22:28.999Z</time></trkpt><trkpt lat="45.554941771239335" lon="8.988271565199915"><ele>174.0</ele><time>2026-03-28T10:22:29.999Z</time></trkpt><trkpt lat="45.554860636697185" lon="8.988146923586731"><ele>174.0</ele><time>2026-03-28T10:22:30.999Z</time></trkpt><trkpt lat="45.554775403281994" lon="8.988014816867393"><ele>174.0</ele><time>2026-03-28T10:22:31.999Z</time></trkpt><trkpt lat="45.55469601958878" lon="8.987879798100815"><ele>174.0</ele><time>2026-03-28T10:22:32.999Z</time></trkpt><trkpt lat="45.55461836763762" lon="8.987755764466156"><ele>174.0</ele><time>2026-03-28T10:22:33.999Z</time></trkpt><trkpt lat="45.55454858678592" lon="8.987642946889597"><ele>174.0</ele><time>2026-03-28T10:22:34.999Z</time></trkpt><trkpt lat="45.554477807442495" lon="8.987537297284845"><ele>174.0</ele><time>2026-03-28T10:22:35.999Z</time></trkpt><trkpt lat="45.55440873714291" lon="8.98742028739766"><ele>174.0</ele><time>2026-03-28T10:22:36.999Z</time></trkpt><trkpt lat="45.55434237706976" lon="8.987312051459973"><ele>174.0</ele><time>2026-03-28T10:22:37.999Z</time></trkpt><trkpt lat="45.55427645750834" lon="8.987212022156294"><ele>174.0</ele><time>2026-03-28T10:22:38.999Z</time></trkpt><trkpt lat="45.5542100582177" lon="8.987105144932443"><ele>174.39999999999998</ele><time>2026-03-28T10:22:39.999Z</time></trkpt><trkpt lat="45.55414616626998" lon="8.986992467616481"><ele>174.8</ele><time>2026-03-28T10:22:40.999Z</time></trkpt><trkpt lat="45.55406644973552" lon="8.986885414084888"><ele>175.2</ele><time>2026-03-28T10:22:41.999Z</time></trkpt><trkpt lat="45.553992023853155" lon="8.9867576681518"><ele>175.60000000000002</ele><time>2026-03-28T10:22:42.999Z</time></trkpt><trkpt lat="45.5539089198547" lon="8.986651109565898"><ele>176.0</ele><time>2026-03-28T10:22:43.999Z</time></trkpt><trkpt lat="45.55382959443818" lon="8.9865378061167"><ele>176.0</ele><time>2026-03-28T10:22:44.999Z</time></trkpt><trkpt lat="45.55375213018639" lon="8.986428511055088"><ele>176.0</ele><time>2026-03-28T10:22:45.999Z</time></trkpt><trkpt lat="45.55369123007336" lon="8.986332613671326"><ele>176.0</ele><time>2026-03-28T10:22:46.999Z</time></trkpt><trkpt lat="45.55362297006059" lon="8.986239102017397"><ele>176.0</ele><time>2026-03-28T10:22:47.999Z</time></trkpt><trkpt lat="45.553549219556444" lon="8.986147547223883"><ele>176.0</ele><time>2026-03-28T10:22:48.999Z</time></trkpt><trkpt lat="45.553479927925856" lon="8.986052935873857"><ele>175.83333333333331</ele><time>2026-03-28T10:22:49.999Z</time></trkpt><trkpt lat="45.55342167866426" lon="8.985968407233772"><ele>175.66666666666666</ele><time>2026-03-28T10:22:50.999Z</time></trkpt><trkpt lat="45.553365571987506" lon="8.98588536759409"><ele>175.5</ele><time>2026-03-28T10:22:51.999Z</time></trkpt><trkpt lat="45.553312887896865" lon="8.98580235776104"><ele>175.33333333333334</ele><time>2026-03-28T10:22:52.999Z</time></trkpt><trkpt lat="45.553266053712626" lon="8.985728213771482"><ele>175.16666666666669</ele><time>2026-03-28T10:22:53.999Z</time></trkpt><trkpt lat="45.55322233703645" lon="8.985662875797678"><ele>175.0</ele><time>2026-03-28T10:22:54.999Z</time></trkpt><trkpt lat="45.553144921335644" lon="8.985563351819563"><ele>175.0</ele><time>2026-03-28T10:22:56.999Z</time></trkpt><trkpt lat="45.55308163041443" lon="8.985473096333775"><ele>175.0</ele><time>2026-03-28T10:22:58.999Z</time></trkpt><trkpt lat="45.553022876765944" lon="8.985346478444225"><ele>175.0</ele><time>2026-03-28T10:23:05.999Z</time></trkpt><trkpt lat="45.552974046354706" lon="8.985237520704391"><ele>175.0</ele><time>2026-03-28T10:23:07.999Z</time></trkpt><trkpt lat="45.55292142525624" lon="8.985142024690834"><ele>175.0</ele><time>2026-03-28T10:23:09.999Z</time></trkpt><trkpt lat="45.55287657443365" lon="8.985040863116343"><ele>174.8</ele><time>2026-03-28T10:23:11.999Z</time></trkpt><trkpt lat="45.55285636297557" lon="8.984924528308722"><ele>174.6</ele><time>2026-03-28T10:23:13.999Z</time></trkpt><trkpt lat="45.5528720628029" lon="8.984786625761343"><ele>174.39999999999998</ele><time>2026-03-28T10:23:16Z</time></trkpt><trkpt lat="45.55297683127779" lon="8.984628836147118"><ele>174.2</ele><time>2026-03-28T10:23:18Z</time></trkpt><trkpt lat="45.5530295257926" lon="8.984541877792315"><ele>174.0</ele><time>2026-03-28T10:23:19Z</time></trkpt><trkpt lat="45.55308882001849" lon="8.98443039862131"><ele>174.0</ele><time>2026-03-28T10:23:20Z</time></trkpt><trkpt lat="45.55316787781417" lon="8.984338905066831"><ele>174.0</ele><time>2026-03-28T10:23:21Z</time></trkpt><trkpt lat="45.553244780861746" lon="8.984238227912197"><ele>174.0</ele><time>2026-03-28T10:23:22Z</time></trkpt><trkpt lat="45.553330819082014" lon="8.984128143586187"><ele>174.0</ele><time>2026-03-28T10:23:23Z</time></trkpt><trkpt lat="45.553425799202756" lon="8.984005367276271"><ele>174.0</ele><time>2026-03-28T10:23:24Z</time></trkpt><trkpt lat="45.55351934441109" lon="8.983889025594681"><ele>174.0</ele><time>2026-03-28T10:23:25Z</time></trkpt><trkpt lat="45.55360286381501" lon="8.983777512222181"><ele>174.0</ele><time>2026-03-28T10:23:26Z</time></trkpt><trkpt lat="45.553694140076935" lon="8.98366730188642"><ele>174.0</ele><time>2026-03-28T10:23:27Z</time></trkpt><trkpt lat="45.55378623136716" lon="8.98354823646073"><ele>174.25</ele><time>2026-03-28T10:23:28Z</time></trkpt><trkpt lat="45.55388649199482" lon="8.983422196912816"><ele>174.5</ele><time>2026-03-28T10:23:29Z</time></trkpt><trkpt lat="45.55399397302157" lon="8.98328206845497"><ele>174.75</ele><time>2026-03-28T10:23:30Z</time></trkpt><trkpt lat="45.55409016463738" lon="8.983152722900838"><ele>175.0</ele><time>2026-03-28T10:23:31Z</time></trkpt><trkpt lat="45.55417886224107" lon="8.983033490616707"><ele>175.25</ele><time>2026-03-28T10:23:32Z</time></trkpt><trkpt lat="45.55427272214287" lon="8.98291315507113"><ele>175.5</ele><time>2026-03-28T10:23:33Z</time></trkpt><trkpt lat="45.55437010829825" lon="8.982797926729186"><ele>175.75</ele><time>2026-03-28T10:23:34Z</time></trkpt><trkpt lat="45.55447144592659" lon="8.982669310960556"><ele>176.0</ele><time>2026-03-28T10:23:35Z</time></trkpt><trkpt lat="45.55456632715707" lon="8.982549870621849"><ele>176.0</ele><time>2026-03-28T10:23:36Z</time></trkpt><trkpt lat="45.554657004606646" lon="8.982435673363048"><ele>176.0</ele><time>2026-03-28T10:23:37Z</time></trkpt><trkpt lat="45.55474920754638" lon="8.982310234779776"><ele>176.0</ele><time>2026-03-28T10:23:38Z</time></trkpt><trkpt lat="45.554839473656585" lon="8.982195834378844"><ele>176.0</ele><time>2026-03-28T10:23:39Z</time></trkpt><trkpt lat="45.55493486577799" lon="8.982095317155663"><ele>176.0</ele><time>2026-03-28T10:23:40Z</time></trkpt><trkpt lat="45.55502459165811" lon="8.981986754272317"><ele>176.0</ele><time>2026-03-28T10:23:41Z</time></trkpt><trkpt lat="45.55510584742088" lon="8.98188891180038"><ele>176.0</ele><time>2026-03-28T10:23:42Z</time></trkpt><trkpt lat="45.55518491650285" lon="8.98178948478776"><ele>176.0</ele><time>2026-03-28T10:23:43Z</time></trkpt><trkpt lat="45.55526374042751" lon="8.981681621829358"><ele>176.0</ele><time>2026-03-28T10:23:44Z</time></trkpt><trkpt lat="45.555345394286675" lon="8.981585983720239"><ele>176.0</ele><time>2026-03-28T10:23:45Z</time></trkpt><trkpt lat="45.555416338031804" lon="8.98149256392002"><ele>176.0</ele><time>2026-03-28T10:23:46Z</time></trkpt><trkpt lat="45.55547853972917" lon="8.981412638853008"><ele>176.0</ele><time>2026-03-28T10:23:47Z</time></trkpt><trkpt lat="45.555534916010615" lon="8.981336768593673"><ele>176.0</ele><time>2026-03-28T10:23:48Z</time></trkpt><trkpt lat="45.555587944186996" lon="8.981222600486182"><ele>176.0</ele><time>2026-03-28T10:23:50Z</time></trkpt><trkpt lat="45.55546986361354" lon="8.98130817373194"><ele>176.0</ele><time>2026-03-28T10:23:54Z</time></trkpt><trkpt lat="45.5554012553255" lon="8.981402386959411"><ele>176.0</ele><time>2026-03-28T10:23:55Z</time></trkpt><trkpt lat="45.555328378857205" lon="8.981498528723622"><ele>176.0</ele><time>2026-03-28T10:23:56Z</time></trkpt><trkpt lat="45.55525312277178" lon="8.981589888640357"><ele>176.0</ele><time>2026-03-28T10:23:57Z</time></trkpt><trkpt lat="45.555176812655695" lon="8.981706671096113"><ele>176.0</ele><time>2026-03-28T10:23:58Z</time></trkpt><trkpt lat="45.55509111437584" lon="8.981824827153181"><ele>176.0</ele><time>2026-03-28T10:23:59Z</time></trkpt><trkpt lat="45.55500834163353" lon="8.981948340325498"><ele>176.0</ele><time>2026-03-28T10:24:00Z</time></trkpt><trkpt lat="45.55492377139835" lon="8.982070401938234"><ele>176.0</ele><time>2026-03-28T10:24:01Z</time></trkpt><trkpt lat="45.55484167460476" lon="8.982169196849332"><ele>176.0</ele><time>2026-03-28T10:24:02Z</time></trkpt><trkpt lat="45.5547558410162" lon="8.982270589162114"><ele>176.0</ele><time>2026-03-28T10:24:03Z</time></trkpt><trkpt lat="45.55467302366847" lon="8.98236877388142"><ele>176.0</ele><time>2026-03-28T10:24:04Z</time></trkpt><trkpt lat="45.5545971016593" lon="8.982459490056554"><ele>176.0</ele><time>2026-03-28T10:24:05Z</time></trkpt><trkpt lat="45.554527638600185" lon="8.982550606091218"><ele>176.0</ele><time>2026-03-28T10:24:06Z</time></trkpt><trkpt lat="45.55445693557063" lon="8.982640943935923"><ele>176.0</ele><time>2026-03-28T10:24:07Z</time></trkpt><trkpt lat="45.55438494781934" lon="8.982733597380339"><ele>176.0</ele><time>2026-03-28T10:24:08Z</time></trkpt><trkpt lat="45.554308595833184" lon="8.982837784350169"><ele>176.0</ele><time>2026-03-28T10:24:09Z</time></trkpt><trkpt lat="45.554233246953935" lon="8.982938512959295"><ele>176.0</ele><time>2026-03-28T10:24:10Z</time></trkpt><trkpt lat="45.55415449507212" lon="8.983030828007001"><ele>176.0</ele><time>2026-03-28T10:24:11Z</time></trkpt><trkpt lat="45.55407037569055" lon="8.983135637714874"><ele>176.0</ele><time>2026-03-28T10:24:11.999Z</time></trkpt><trkpt lat="45.55398173862586" lon="8.983234113610413"><ele>176.0</ele><time>2026-03-28T10:24:12.999Z</time></trkpt><trkpt lat="45.55389423123631" lon="8.983341498661453"><ele>176.0</ele><time>2026-03-28T10:24:13.999Z</time></trkpt><trkpt lat="45.553816843836884" lon="8.983434396589308"><ele>176.0</ele><time>2026-03-28T10:24:14.999Z</time></trkpt><trkpt lat="45.55374557687342" lon="8.983541316504413"><ele>176.0</ele><time>2026-03-28T10:24:15.999Z</time></trkpt><trkpt lat="45.55368213520042" lon="8.983631128605532"><ele>176.0</ele><time>2026-03-28T10:24:16.999Z</time></trkpt><trkpt lat="45.55359704887168" lon="8.983705220895267"><ele>176.0</ele><time>2026-03-28T10:24:18.999Z</time></trkpt><trkpt lat="45.55364954375296" lon="8.983541833520594"><ele>176.0</ele><time>2026-03-28T10:24:29.999Z</time></trkpt><trkpt lat="45.55386251735925" lon="8.983443100291959"><ele>176.0</ele><time>2026-03-28T10:24:30.999Z</time></trkpt><trkpt lat="45.55395463495966" lon="8.983308201208922"><ele>176.0</ele><time>2026-03-28T10:24:31.999Z</time></trkpt><trkpt lat="45.554054509322" lon="8.983199382358462"><ele>176.0</ele><time>2026-03-28T10:24:32.999Z</time></trkpt><trkpt lat="45.55414769064074" lon="8.98308680546002"><ele>176.0</ele><time>2026-03-28T10:24:33.999Z</time></trkpt><trkpt lat="45.554251104322724" lon="8.98295496357576"><ele>176.0</ele><time>2026-03-28T10:24:34.999Z</time></trkpt><trkpt lat="45.55435017807551" lon="8.982822457227272"><ele>176.0</ele><time>2026-03-28T10:24:35.999Z</time></trkpt><trkpt lat="45.55443859687222" lon="8.982702913786209"><ele>176.0</ele><time>2026-03-28T10:24:36.999Z</time></trkpt><trkpt lat="45.554528904619985" lon="8.982585551519755"><ele>176.0</ele><time>2026-03-28T10:24:37.999Z</time></trkpt><trkpt lat="45.55462585677338" lon="8.982466369976644"><ele>176.0</ele><time>2026-03-28T10:24:38.999Z</time></trkpt><trkpt lat="45.55472930719855" lon="8.98233562287013"><ele>176.0</ele><time>2026-03-28T10:24:39.999Z</time></trkpt><trkpt lat="45.55483504209988" lon="8.982208966485153"><ele>176.0</ele><time>2026-03-28T10:24:40.999Z</time></trkpt><trkpt lat="45.55492885102513" lon="8.98208839738975"><ele>176.0</ele><time>2026-03-28T10:24:41.999Z</time></trkpt><trkpt lat="45.55501765749067" lon="8.981978727998145"><ele>176.0</ele><time>2026-03-28T10:24:42.999Z</time></trkpt><trkpt lat="45.555098800505945" lon="8.981881051201626"><ele>176.0</ele><time>2026-03-28T10:24:43.999Z</time></trkpt><trkpt lat="45.55517929353718" lon="8.981774856482991"><ele>176.0</ele><time>2026-03-28T10:24:44.999Z</time></trkpt><trkpt lat="45.55525920373627" lon="8.981674530055988"><ele>176.0</ele><time>2026-03-28T10:24:45.999Z</time></trkpt><trkpt lat="45.55533652398842" lon="8.981586110911882"><ele>176.0</ele><time>2026-03-28T10:24:46.999Z</time></trkpt><trkpt lat="45.55541796488354" lon="8.98149366065435"><ele>176.0</ele><time>2026-03-28T10:24:47.999Z</time></trkpt><trkpt lat="45.55549625907365" lon="8.981392546265573"><ele>176.0</ele><time>2026-03-28T10:24:48.999Z</time></trkpt><trkpt lat="45.5555633545765" lon="8.981269260777678"><ele>176.0</ele><time>2026-03-28T10:24:49.999Z</time></trkpt><trkpt lat="45.555623438260156" lon="8.98115135676064"><ele>176.0</ele><time>2026-03-28T10:24:50.999Z</time></trkpt><trkpt lat="45.55567619760884" lon="8.98105323974088"><ele>176.0</ele><time>2026-03-28T10:24:51.999Z</time></trkpt><trkpt lat="45.55574065169238" lon="8.980966859991959"><ele>176.0</ele><time>2026-03-28T10:24:52.999Z</time></trkpt><trkpt lat="45.55579886694209" lon="8.980846412034335"><ele>176.0</ele><time>2026-03-28T10:24:53.999Z</time></trkpt><trkpt lat="45.555854355877926" lon="8.980731282410042"><ele>176.0</ele><time>2026-03-28T10:24:54.999Z</time></trkpt><trkpt lat="45.555902435200466" lon="8.980631523632379"><ele>176.0</ele><time>2026-03-28T10:24:55.999Z</time></trkpt><trkpt lat="45.555944375992624" lon="8.980543718684263"><ele>176.0</ele><time>2026-03-28T10:24:56.999Z</time></trkpt><trkpt lat="45.55598383368521" lon="8.980461355367963"><ele>176.0</ele><time>2026-03-28T10:24:57.999Z</time></trkpt><trkpt lat="45.55600917849076" lon="8.980367574338038"><ele>176.0</ele><time>2026-03-28T10:24:58.999Z</time></trkpt><trkpt lat="45.55608873825922" lon="8.980243076325761"><ele>176.0</ele><time>2026-03-28T10:25:00.999Z</time></trkpt><trkpt lat="45.556125554103794" lon="8.980168095364455"><ele>176.0</ele><time>2026-03-28T10:25:01.999Z</time></trkpt><trkpt lat="45.55616234676509" lon="8.980093158171075"><ele>176.0</ele><time>2026-03-28T10:25:02.999Z</time></trkpt><trkpt lat="45.55620314082193" lon="8.980008377667062"><ele>176.0</ele><time>2026-03-28T10:25:03.999Z</time></trkpt><trkpt lat="45.55625187394894" lon="8.979907955755765"><ele>176.0</ele><time>2026-03-28T10:25:04.999Z</time></trkpt><trkpt lat="45.556310643947576" lon="8.979786851362975"><ele>176.0</ele><time>2026-03-28T10:25:05.999Z</time></trkpt><trkpt lat="45.55634419444587" lon="8.979657271618134"><ele>176.20000000000002</ele><time>2026-03-28T10:25:06.999Z</time></trkpt><trkpt lat="45.556403412388974" lon="8.979543303963753"><ele>176.4</ele><time>2026-03-28T10:25:07.999Z</time></trkpt><trkpt lat="45.55645940396613" lon="8.979437241102874"><ele>176.6</ele><time>2026-03-28T10:25:08.999Z</time></trkpt><trkpt lat="45.556516755622816" lon="8.979336348735082"><ele>176.8</ele><time>2026-03-28T10:25:09.999Z</time></trkpt><trkpt lat="45.55656872056913" lon="8.979225909624347"><ele>177.0</ele><time>2026-03-28T10:25:10.999Z</time></trkpt><trkpt lat="45.55661555202025" lon="8.979130702896429"><ele>177.0</ele><time>2026-03-28T10:25:11.999Z</time></trkpt><trkpt lat="45.5566551916331" lon="8.979050046048725"><ele>177.0</ele><time>2026-03-28T10:25:12.999Z</time></trkpt><trkpt lat="45.55668925401046" lon="8.978971640447886"><ele>177.0</ele><time>2026-03-28T10:25:13.999Z</time></trkpt><trkpt lat="45.55674366650185" lon="8.978871404968915"><ele>177.0</ele><time>2026-03-28T10:25:15.999Z</time></trkpt><trkpt lat="45.55676204611073" lon="8.978781610162176"><ele>177.0</ele><time>2026-03-28T10:25:22Z</time></trkpt><trkpt lat="45.55684665370266" lon="8.978702313807856"><ele>177.0</ele><time>2026-03-28T10:25:55Z</time></trkpt><trkpt lat="45.55690298289393" lon="8.978635959101425"><ele>177.0</ele><time>2026-03-28T10:25:56Z</time></trkpt><trkpt lat="45.55694258388991" lon="8.978533210163103"><ele>177.0</ele><time>2026-03-28T10:25:57Z</time></trkpt><trkpt lat="45.55700657787128" lon="8.97843621934875"><ele>177.0</ele><time>2026-03-28T10:25:58Z</time></trkpt><trkpt lat="45.55707861891156" lon="8.978330565496469"><ele>177.0</ele><time>2026-03-28T10:25:59Z</time></trkpt><trkpt lat="45.5571483210638" lon="8.978224340662823"><ele>177.0</ele><time>2026-03-28T10:26:00Z</time></trkpt><trkpt lat="45.55722879318069" lon="8.97809317473893"><ele>177.75</ele><time>2026-03-28T10:26:01Z</time></trkpt><trkpt lat="45.557316349069836" lon="8.977955743907435"><ele>178.5</ele><time>2026-03-28T10:26:02Z</time></trkpt><trkpt lat="45.557398239500216" lon="8.9778195587019"><ele>179.25</ele><time>2026-03-28T10:26:03Z</time></trkpt><trkpt lat="45.5574933431304" lon="8.97767493726728"><ele>180.0</ele><time>2026-03-28T10:26:04Z</time></trkpt><trkpt lat="45.55758487811868" lon="8.977523679450274"><ele>179.75</ele><time>2026-03-28T10:26:05Z</time></trkpt><trkpt lat="45.55767649350088" lon="8.977425294158046"><ele>179.5</ele><time>2026-03-28T10:26:06Z</time></trkpt><trkpt lat="45.55776402909259" lon="8.977279942618672"><ele>179.25</ele><time>2026-03-28T10:26:07Z</time></trkpt><trkpt lat="45.5578618790173" lon="8.977133542389932"><ele>179.0</ele><time>2026-03-28T10:26:08Z</time></trkpt><trkpt lat="45.55796301517836" lon="8.976975291968033"><ele>178.75</ele><time>2026-03-28T10:26:09Z</time></trkpt><trkpt lat="45.55805792793509" lon="8.976838497303483"><ele>178.5</ele><time>2026-03-28T10:26:10Z</time></trkpt><trkpt lat="45.558155043067075" lon="8.97668485891292"><ele>178.25</ele><time>2026-03-28T10:26:11Z</time></trkpt><trkpt lat="45.558252452623805" lon="8.976521123770713"><ele>178.0</ele><time>2026-03-28T10:26:12Z</time></trkpt><trkpt lat="45.558345630068665" lon="8.976356820246199"><ele>178.0</ele><time>2026-03-28T10:26:13Z</time></trkpt><trkpt lat="45.55843591879508" lon="8.976185663350279"><ele>178.0</ele><time>2026-03-28T10:26:14Z</time></trkpt><trkpt lat="45.55851876301185" lon="8.976003546660005"><ele>178.0</ele><time>2026-03-28T10:26:15Z</time></trkpt><trkpt lat="45.55859426562647" lon="8.975806796246715"><ele>178.33333333333334</ele><time>2026-03-28T10:26:16Z</time></trkpt><trkpt lat="45.558662927337416" lon="8.975585413062907"><ele>178.66666666666666</ele><time>2026-03-28T10:26:17Z</time></trkpt><trkpt lat="45.558722932661816" lon="8.975354920780672"><ele>179.0</ele><time>2026-03-28T10:26:18Z</time></trkpt><trkpt lat="45.55877870726954" lon="8.97513306698151"><ele>178.33333333333331</ele><time>2026-03-28T10:26:19Z</time></trkpt><trkpt lat="45.55883406290257" lon="8.974925223150468"><ele>177.66666666666666</ele><time>2026-03-28T10:26:20Z</time></trkpt><trkpt lat="45.55888906094914" lon="8.97471446913687"><ele>177.0</ele><time>2026-03-28T10:26:20.999Z</time></trkpt><trkpt lat="45.55894356466957" lon="8.97449196882664"><ele>177.0</ele><time>2026-03-28T10:26:21.999Z</time></trkpt><trkpt lat="45.558998372322456" lon="8.974280953519468"><ele>177.0</ele><time>2026-03-28T10:26:22.999Z</time></trkpt><trkpt lat="45.55905959345792" lon="8.974060342208197"><ele>177.0</ele><time>2026-03-28T10:26:23.999Z</time></trkpt><trkpt lat="45.55911948269392" lon="8.973842530043738"><ele>176.66666666666666</ele><time>2026-03-28T10:26:24.999Z</time></trkpt><trkpt lat="45.55918123072933" lon="8.973629365086827"><ele>176.33333333333331</ele><time>2026-03-28T10:26:25.999Z</time></trkpt><trkpt lat="45.55924670242898" lon="8.97341859591487"><ele>176.0</ele><time>2026-03-28T10:26:26.999Z</time></trkpt><trkpt lat="45.55932469247992" lon="8.973197671289702"><ele>177.0</ele><time>2026-03-28T10:26:27.999Z</time></trkpt><trkpt lat="45.55941328720402" lon="8.972991433061772"><ele>178.0</ele><time>2026-03-28T10:26:28.999Z</time></trkpt><trkpt lat="45.55950467897367" lon="8.972792333455699"><ele>179.0</ele><time>2026-03-28T10:26:29.999Z</time></trkpt><trkpt lat="45.559607589455744" lon="8.972624786803452"><ele>179.0</ele><time>2026-03-28T10:26:30.999Z</time></trkpt><trkpt lat="45.55971558140657" lon="8.972449720819961"><ele>179.0</ele><time>2026-03-28T10:26:31.999Z</time></trkpt><trkpt lat="45.559830046009395" lon="8.972287048751653"><ele>179.0</ele><time>2026-03-28T10:26:32.999Z</time></trkpt><trkpt lat="45.55994634108499" lon="8.972122612913651"><ele>179.0</ele><time>2026-03-28T10:26:33.999Z</time></trkpt><trkpt lat="45.560056451997106" lon="8.971977247781682"><ele>179.0</ele><time>2026-03-28T10:26:34.999Z</time></trkpt><trkpt lat="45.56015842700004" lon="8.971841238557568"><ele>179.0</ele><time>2026-03-28T10:26:35.999Z</time></trkpt><trkpt lat="45.56026128864073" lon="8.971692900771432"><ele>179.0</ele><time>2026-03-28T10:26:36.999Z</time></trkpt><trkpt lat="45.56036454933313" lon="8.971534964316218"><ele>179.25</ele><time>2026-03-28T10:26:37.999Z</time></trkpt><trkpt lat="45.56045023888177" lon="8.97137930591416"><ele>179.5</ele><time>2026-03-28T10:26:38.999Z</time></trkpt><trkpt lat="45.56052997555492" lon="8.971225511773511"><ele>179.75</ele><time>2026-03-28T10:26:39.999Z</time></trkpt><trkpt lat="45.560632357504815" lon="8.971092236128182"><ele>180.0</ele><time>2026-03-28T10:26:40.999Z</time></trkpt><trkpt lat="45.56072283678518" lon="8.970955352116714"><ele>179.33333333333334</ele><time>2026-03-28T10:26:41.999Z</time></trkpt><trkpt lat="45.560826049314144" lon="8.970805460935807"><ele>178.66666666666669</ele><time>2026-03-28T10:26:42.999Z</time></trkpt><trkpt lat="45.56093137662158" lon="8.970652404341447"><ele>178.0</ele><time>2026-03-28T10:26:43.999Z</time></trkpt><trkpt lat="45.56103721932859" lon="8.970495509098294"><ele>178.0</ele><time>2026-03-28T10:26:44.999Z</time></trkpt><trkpt lat="45.56114229215189" lon="8.970337419287702"><ele>178.0</ele><time>2026-03-28T10:26:45.999Z</time></trkpt><trkpt lat="45.56124563120226" lon="8.970188752986312"><ele>178.0</ele><time>2026-03-28T10:26:46.999Z</time></trkpt><trkpt lat="45.561347725626455" lon="8.970040581644467"><ele>178.0</ele><time>2026-03-28T10:26:47.999Z</time></trkpt><trkpt lat="45.5614304828399" lon="8.969877124771433"><ele>178.5</ele><time>2026-03-28T10:26:48.999Z</time></trkpt><trkpt lat="45.56153443257748" lon="8.969752693707688"><ele>179.0</ele><time>2026-03-28T10:26:49.999Z</time></trkpt><trkpt lat="45.5616300777447" lon="8.969611781604245"><ele>179.5</ele><time>2026-03-28T10:26:50.999Z</time></trkpt><trkpt lat="45.56172545054016" lon="8.969470437497218"><ele>180.0</ele><time>2026-03-28T10:26:51.999Z</time></trkpt><trkpt lat="45.561822528772986" lon="8.969326256674657"><ele>179.75</ele><time>2026-03-28T10:26:52.999Z</time></trkpt><trkpt lat="45.561915092552304" lon="8.969190107527247"><ele>179.5</ele><time>2026-03-28T10:26:53.999Z</time></trkpt><trkpt lat="45.56201285827677" lon="8.969047471838083"><ele>179.25</ele><time>2026-03-28T10:26:54.999Z</time></trkpt><trkpt lat="45.56210810185297" lon="8.96889545950369"><ele>179.0</ele><time>2026-03-28T10:26:55.999Z</time></trkpt><trkpt lat="45.56222066114155" lon="8.968761144458673"><ele>178.66666666666666</ele><time>2026-03-28T10:26:56.999Z</time></trkpt><trkpt lat="45.5623408546361" lon="8.968625744987461"><ele>178.33333333333334</ele><time>2026-03-28T10:26:57.999Z</time></trkpt><trkpt lat="45.56246124289168" lon="8.96849699579499"><ele>178.0</ele><time>2026-03-28T10:26:58.999Z</time></trkpt><trkpt lat="45.562586108643856" lon="8.968370909969032"><ele>177.66666666666669</ele><time>2026-03-28T10:26:59.999Z</time></trkpt><trkpt lat="45.56271560510056" lon="8.968254417233391"><ele>177.33333333333334</ele><time>2026-03-28T10:27:00.999Z</time></trkpt><trkpt lat="45.562847233335155" lon="8.96812645751301"><ele>177.0</ele><time>2026-03-28T10:27:01.999Z</time></trkpt><trkpt lat="45.56297947791789" lon="8.9679919475449"><ele>178.33333333333334</ele><time>2026-03-28T10:27:02.999Z</time></trkpt><trkpt lat="45.56311419235402" lon="8.967858068344986"><ele>179.66666666666669</ele><time>2026-03-28T10:27:03.999Z</time></trkpt><trkpt lat="45.56324781633991" lon="8.967725739552161"><ele>181.0</ele><time>2026-03-28T10:27:04.999Z</time></trkpt><trkpt lat="45.56339320618559" lon="8.967586175337937"><ele>180.66666666666669</ele><time>2026-03-28T10:27:05.999Z</time></trkpt><trkpt lat="45.563537912468945" lon="8.967445410692086"><ele>180.33333333333334</ele><time>2026-03-28T10:27:06.999Z</time></trkpt><trkpt lat="45.56368639124177" lon="8.9673040606067"><ele>180.0</ele><time>2026-03-28T10:27:07.999Z</time></trkpt><trkpt lat="45.5638269413174" lon="8.967168398899974"><ele>180.0</ele><time>2026-03-28T10:27:08.999Z</time></trkpt><trkpt lat="45.563965510820395" lon="8.967029132528019"><ele>180.0</ele><time>2026-03-28T10:27:09.999Z</time></trkpt><trkpt lat="45.5641009394574" lon="8.966887139816736"><ele>180.0</ele><time>2026-03-28T10:27:10.999Z</time></trkpt><trkpt lat="45.564240350401725" lon="8.966750576503584"><ele>179.66666666666666</ele><time>2026-03-28T10:27:11.999Z</time></trkpt><trkpt lat="45.56437947694582" lon="8.966612271028085"><ele>179.33333333333331</ele><time>2026-03-28T10:27:12.999Z</time></trkpt><trkpt lat="45.56452256820603" lon="8.966474601732278"><ele>179.0</ele><time>2026-03-28T10:27:13.999Z</time></trkpt><trkpt lat="45.56466812530133" lon="8.966334295874425"><ele>180.33333333333331</ele><time>2026-03-28T10:27:14.999Z</time></trkpt><trkpt lat="45.56480141884736" lon="8.966203919157394"><ele>181.66666666666666</ele><time>2026-03-28T10:27:15.999Z</time></trkpt><trkpt lat="45.564924103144214" lon="8.966085060420472"><ele>183.0</ele><time>2026-03-28T10:27:16.999Z</time></trkpt><trkpt lat="45.56503674400194" lon="8.96596483559437"><ele>182.75</ele><time>2026-03-28T10:27:17.999Z</time></trkpt><trkpt lat="45.565143375214255" lon="8.9658427509189"><ele>182.5</ele><time>2026-03-28T10:27:18.999Z</time></trkpt><trkpt lat="45.56524470030046" lon="8.965713112566144"><ele>182.25</ele><time>2026-03-28T10:27:19.999Z</time></trkpt><trkpt lat="45.56534626890519" lon="8.965573516016784"><ele>182.0</ele><time>2026-03-28T10:27:20.999Z</time></trkpt><trkpt lat="45.5654419304247" lon="8.965429112367707"><ele>182.0</ele><time>2026-03-28T10:27:21.999Z</time></trkpt><trkpt lat="45.56553968221284" lon="8.965276542302876"><ele>182.0</ele><time>2026-03-28T10:27:22.999Z</time></trkpt><trkpt lat="45.56563814467926" lon="8.965119846439391"><ele>182.0</ele><time>2026-03-28T10:27:23.999Z</time></trkpt><trkpt lat="45.565733354051766" lon="8.96496472066295"><ele>182.0</ele><time>2026-03-28T10:27:24.999Z</time></trkpt><trkpt lat="45.565828359820614" lon="8.964813421558638"><ele>182.5</ele><time>2026-03-28T10:27:25.999Z</time></trkpt><trkpt lat="45.565923281861735" lon="8.964656044601488"><ele>183.0</ele><time>2026-03-28T10:27:27Z</time></trkpt><trkpt lat="45.566020959458136" lon="8.96449515996122"><ele>183.5</ele><time>2026-03-28T10:27:28Z</time></trkpt><trkpt lat="45.56612005135323" lon="8.964340294269798"><ele>184.0</ele><time>2026-03-28T10:27:29Z</time></trkpt><trkpt lat="45.566215752246116" lon="8.964195659120746"><ele>184.0</ele><time>2026-03-28T10:27:30Z</time></trkpt><trkpt lat="45.56631391619838" lon="8.964041128110187"><ele>184.0</ele><time>2026-03-28T10:27:31Z</time></trkpt><trkpt lat="45.566413891230354" lon="8.963887160855304"><ele>184.0</ele><time>2026-03-28T10:27:32Z</time></trkpt><trkpt lat="45.566503181158325" lon="8.963738049995207"><ele>184.0</ele><time>2026-03-28T10:27:33Z</time></trkpt><trkpt lat="45.566594511021314" lon="8.963598107887796"><ele>184.0</ele><time>2026-03-28T10:27:34Z</time></trkpt><trkpt lat="45.56667745583648" lon="8.963462323296785"><ele>184.0</ele><time>2026-03-28T10:27:35Z</time></trkpt><trkpt lat="45.566762383219526" lon="8.963331066131579"><ele>184.0</ele><time>2026-03-28T10:27:36Z</time></trkpt><trkpt lat="45.56683858408331" lon="8.963213095426289"><ele>184.0</ele><time>2026-03-28T10:27:37Z</time></trkpt><trkpt lat="45.56690032907102" lon="8.963113122554505"><ele>184.0</ele><time>2026-03-28T10:27:38Z</time></trkpt><trkpt lat="45.56696140172899" lon="8.963016318354702"><ele>184.0</ele><time>2026-03-28T10:27:39Z</time></trkpt><trkpt lat="45.5670302683101" lon="8.962907871926589"><ele>184.0</ele><time>2026-03-28T10:27:40Z</time></trkpt><trkpt lat="45.56710667676836" lon="8.962789472236716"><ele>184.0</ele><time>2026-03-28T10:27:41Z</time></trkpt><trkpt lat="45.56717883710699" lon="8.962673040530529"><ele>184.0</ele><time>2026-03-28T10:27:42Z</time></trkpt><trkpt lat="45.567256544754585" lon="8.96252691043609"><ele>183.5</ele><time>2026-03-28T10:27:43Z</time></trkpt><trkpt lat="45.567335198936355" lon="8.96239268300448"><ele>183.0</ele><time>2026-03-28T10:27:44Z</time></trkpt><trkpt lat="45.567405110394674" lon="8.96226159326485"><ele>182.5</ele><time>2026-03-28T10:27:45Z</time></trkpt><trkpt lat="45.567468063063465" lon="8.962130583263132"><ele>182.0</ele><time>2026-03-28T10:27:46Z</time></trkpt><trkpt lat="45.56754625449937" lon="8.962026751132129"><ele>182.0</ele><time>2026-03-28T10:27:47Z</time></trkpt><trkpt lat="45.567608224524676" lon="8.961922241160515"><ele>182.0</ele><time>2026-03-28T10:27:48Z</time></trkpt><trkpt lat="45.56766501074349" lon="8.961826733350886"><ele>182.0</ele><time>2026-03-28T10:27:49Z</time></trkpt><trkpt lat="45.56771763966263" lon="8.961738217800889"><ele>182.0</ele><time>2026-03-28T10:27:50Z</time></trkpt><trkpt lat="45.56780730401667" lon="8.961600061438647"><ele>182.0</ele><time>2026-03-28T10:27:52Z</time></trkpt><trkpt lat="45.56784995143277" lon="8.96152324644245"><ele>182.33333333333331</ele><time>2026-03-28T10:27:53Z</time></trkpt><trkpt lat="45.5679180767596" lon="8.961404986050521"><ele>182.66666666666666</ele><time>2026-03-28T10:27:55Z</time></trkpt><trkpt lat="45.567965742093385" lon="8.961320882949833"><ele>183.0</ele><time>2026-03-28T10:27:57Z</time></trkpt><trkpt lat="45.568013606897814" lon="8.96121633856025"><ele>183.33333333333334</ele><time>2026-03-28T10:28:01Z</time></trkpt><trkpt lat="45.568056483618165" lon="8.96114319726181"><ele>183.66666666666669</ele><time>2026-03-28T10:28:02Z</time></trkpt><trkpt lat="45.568106587519736" lon="8.961063996876332"><ele>184.0</ele><time>2026-03-28T10:28:03Z</time></trkpt><trkpt lat="45.568170502493714" lon="8.960980464596839"><ele>184.0</ele><time>2026-03-28T10:28:04Z</time></trkpt><trkpt lat="45.5682393932102" lon="8.960885987644387"><ele>184.0</ele><time>2026-03-28T10:28:05Z</time></trkpt><trkpt lat="45.56831333891198" lon="8.960788162733762"><ele>184.0</ele><time>2026-03-28T10:28:06Z</time></trkpt><trkpt lat="45.568398650465305" lon="8.960687569865128"><ele>184.0</ele><time>2026-03-28T10:28:07Z</time></trkpt><trkpt lat="45.56849176305912" lon="8.960581632830364"><ele>184.0</ele><time>2026-03-28T10:28:08Z</time></trkpt><trkpt lat="45.568583236057584" lon="8.960476121111807"><ele>184.0</ele><time>2026-03-28T10:28:09Z</time></trkpt><trkpt lat="45.56868433232506" lon="8.960349584707373"><ele>184.0</ele><time>2026-03-28T10:28:10Z</time></trkpt><trkpt lat="45.568791587439485" lon="8.96021403206432"><ele>184.0</ele><time>2026-03-28T10:28:11Z</time></trkpt><trkpt lat="45.56890704476325" lon="8.960080506630915"><ele>184.0</ele><time>2026-03-28T10:28:12Z</time></trkpt><trkpt lat="45.56901877665004" lon="8.95994005824566"><ele>184.0</ele><time>2026-03-28T10:28:13Z</time></trkpt><trkpt lat="45.5691330321415" lon="8.9598134360239"><ele>184.0</ele><time>2026-03-28T10:28:14Z</time></trkpt><trkpt lat="45.56925050700113" lon="8.959685444312065"><ele>184.0</ele><time>2026-03-28T10:28:15Z</time></trkpt><trkpt lat="45.5693779550524" lon="8.959550210307794"><ele>184.0</ele><time>2026-03-28T10:28:16Z</time></trkpt><trkpt lat="45.569493448875" lon="8.95942306993607"><ele>184.0</ele><time>2026-03-28T10:28:17Z</time></trkpt><trkpt lat="45.56961570518299" lon="8.959289292951391"><ele>184.0</ele><time>2026-03-28T10:28:18Z</time></trkpt><trkpt lat="45.56973815854112" lon="8.959163894921089"><ele>184.33333333333334</ele><time>2026-03-28T10:28:19Z</time></trkpt><trkpt lat="45.569867738929915" lon="8.959031545376126"><ele>184.66666666666666</ele><time>2026-03-28T10:28:20Z</time></trkpt><trkpt lat="45.57000581327157" lon="8.958884733277399"><ele>185.0</ele><time>2026-03-28T10:28:21Z</time></trkpt><trkpt lat="45.570147027969995" lon="8.958734018511002"><ele>185.0</ele><time>2026-03-28T10:28:22Z</time></trkpt><trkpt lat="45.57027200660317" lon="8.958589666988923"><ele>185.0</ele><time>2026-03-28T10:28:23Z</time></trkpt><trkpt lat="45.57038776686932" lon="8.95845714097167"><ele>185.0</ele><time>2026-03-28T10:28:24Z</time></trkpt><trkpt lat="45.57049391917734" lon="8.958334407128605"><ele>185.0</ele><time>2026-03-28T10:28:25Z</time></trkpt><trkpt lat="45.5705913701816" lon="8.958225741407446"><ele>185.33333333333331</ele><time>2026-03-28T10:28:26Z</time></trkpt><trkpt lat="45.5706778137963" lon="8.958138694357565"><ele>185.66666666666666</ele><time>2026-03-28T10:28:27Z</time></trkpt><trkpt lat="45.57075404165351" lon="8.958065709571406"><ele>186.0</ele><time>2026-03-28T10:28:28Z</time></trkpt><trkpt lat="45.57082049830947" lon="8.958014780098743"><ele>186.33333333333334</ele><time>2026-03-28T10:28:29Z</time></trkpt><trkpt lat="45.57088495976294" lon="8.957987772455096"><ele>186.66666666666669</ele><time>2026-03-28T10:28:30Z</time></trkpt><trkpt lat="45.57095871351955" lon="8.957974270720957"><ele>187.0</ele><time>2026-03-28T10:28:31Z</time></trkpt><trkpt lat="45.571031998088664" lon="8.957961518794937"><ele>187.0</ele><time>2026-03-28T10:28:32Z</time></trkpt><trkpt lat="45.57110743901968" lon="8.957956147721708"><ele>187.0</ele><time>2026-03-28T10:28:32.999Z</time></trkpt><trkpt lat="45.571175610676065" lon="8.957917708733984"><ele>187.0</ele><time>2026-03-28T10:28:33.999Z</time></trkpt><trkpt lat="45.571232300787834" lon="8.957853317948123"><ele>187.0</ele><time>2026-03-28T10:28:34.999Z</time></trkpt><trkpt lat="45.57127088012389" lon="8.957753639524967"><ele>187.0</ele><time>2026-03-28T10:28:35.999Z</time></trkpt><trkpt lat="45.571309296318034" lon="8.957649012013697"><ele>187.0</ele><time>2026-03-28T10:28:36.999Z</time></trkpt><trkpt lat="45.57136227625231" lon="8.957537634415717"><ele>186.8</ele><time>2026-03-28T10:28:37.999Z</time></trkpt><trkpt lat="45.571435584543664" lon="8.957438469324574"><ele>186.6</ele><time>2026-03-28T10:28:38.999Z</time></trkpt><trkpt lat="45.5715206074306" lon="8.957360159594591"><ele>186.4</ele><time>2026-03-28T10:28:39.999Z</time></trkpt><trkpt lat="45.571616006659895" lon="8.95727691677326"><ele>186.20000000000002</ele><time>2026-03-28T10:28:40.999Z</time></trkpt><trkpt lat="45.57171021868801" lon="8.957186840115913"><ele>186.0</ele><time>2026-03-28T10:28:41.999Z</time></trkpt><trkpt lat="45.57181704223686" lon="8.957080024241407"><ele>186.0</ele><time>2026-03-28T10:28:42.999Z</time></trkpt><trkpt lat="45.57193107657349" lon="8.956975889533126"><ele>186.0</ele><time>2026-03-28T10:28:43.999Z</time></trkpt><trkpt lat="45.572047280632994" lon="8.956872793132892"><ele>186.0</ele><time>2026-03-28T10:28:44.999Z</time></trkpt><trkpt lat="45.57215328326856" lon="8.956768464023156"><ele>186.0</ele><time>2026-03-28T10:28:45.999Z</time></trkpt><trkpt lat="45.57226959187994" lon="8.956659517834648"><ele>186.75</ele><time>2026-03-28T10:28:46.999Z</time></trkpt><trkpt lat="45.572388587773936" lon="8.956544693457127"><ele>187.5</ele><time>2026-03-28T10:28:47.999Z</time></trkpt><trkpt lat="45.57251754621089" lon="8.956431501521456"><ele>188.25</ele><time>2026-03-28T10:28:48.999Z</time></trkpt><trkpt lat="45.57264171886974" lon="8.956307422890964"><ele>189.0</ele><time>2026-03-28T10:28:49.999Z</time></trkpt><trkpt lat="45.57276402283656" lon="8.956199463378315"><ele>189.0</ele><time>2026-03-28T10:28:50.999Z</time></trkpt><trkpt lat="45.57288427639282" lon="8.956081956061347"><ele>189.0</ele><time>2026-03-28T10:28:51.999Z</time></trkpt><trkpt lat="45.57300491519162" lon="8.955977867287144"><ele>189.0</ele><time>2026-03-28T10:28:52.999Z</time></trkpt><trkpt lat="45.57312165202625" lon="8.95587231204302"><ele>189.0</ele><time>2026-03-28T10:28:53.999Z</time></trkpt><trkpt lat="45.573244206401284" lon="8.955782681947209"><ele>189.0</ele><time>2026-03-28T10:28:54.999Z</time></trkpt><trkpt lat="45.57335139405765" lon="8.955688178486506"><ele>189.0</ele><time>2026-03-28T10:28:55.999Z</time></trkpt><trkpt lat="45.57346647154316" lon="8.955579940890797"><ele>189.0</ele><time>2026-03-28T10:28:56.999Z</time></trkpt><trkpt lat="45.5735788311213" lon="8.955474423167542"><ele>189.0</ele><time>2026-03-28T10:28:57.999Z</time></trkpt><trkpt lat="45.573690561961264" lon="8.955363318360988"><ele>189.25</ele><time>2026-03-28T10:28:58.999Z</time></trkpt><trkpt lat="45.573814007940925" lon="8.955262100909605"><ele>189.5</ele><time>2026-03-28T10:28:59.999Z</time></trkpt><trkpt lat="45.57393720268441" lon="8.955138958074455"><ele>189.75</ele><time>2026-03-28T10:29:00.999Z</time></trkpt><trkpt lat="45.57406064007447" lon="8.955021532094948"><ele>190.0</ele><time>2026-03-28T10:29:01.999Z</time></trkpt><trkpt lat="45.574183392177204" lon="8.954914115819577"><ele>190.0</ele><time>2026-03-28T10:29:02.999Z</time></trkpt><trkpt lat="45.57430937227391" lon="8.954797597906472"><ele>190.0</ele><time>2026-03-28T10:29:03.999Z</time></trkpt><trkpt lat="45.57443546512586" lon="8.954688276371808"><ele>190.0</ele><time>2026-03-28T10:29:04.999Z</time></trkpt><trkpt lat="45.57455570218312" lon="8.954574547109583"><ele>190.0</ele><time>2026-03-28T10:29:05.999Z</time></trkpt><trkpt lat="45.57467743355936" lon="8.954463753611467"><ele>190.0</ele><time>2026-03-28T10:29:06.999Z</time></trkpt><trkpt lat="45.57479965581336" lon="8.954352285973668"><ele>190.0</ele><time>2026-03-28T10:29:07.999Z</time></trkpt><trkpt lat="45.57492547429697" lon="8.95424532349813"><ele>190.0</ele><time>2026-03-28T10:29:08.999Z</time></trkpt><trkpt lat="45.575047103888046" lon="8.954145230514028"><ele>190.0</ele><time>2026-03-28T10:29:09.999Z</time></trkpt><trkpt lat="45.575165522950115" lon="8.95405542157926"><ele>190.0</ele><time>2026-03-28T10:29:10.999Z</time></trkpt><trkpt lat="45.57528640902717" lon="8.953962457210485"><ele>190.0</ele><time>2026-03-28T10:29:11.999Z</time></trkpt><trkpt lat="45.57541495100252" lon="8.95389769930829"><ele>190.0</ele><time>2026-03-28T10:29:12.999Z</time></trkpt><trkpt lat="45.57553580255439" lon="8.953810430986609"><ele>190.0</ele><time>2026-03-28T10:29:13.999Z</time></trkpt><trkpt lat="45.57565313126562" lon="8.953726048262084"><ele>190.25</ele><time>2026-03-28T10:29:14.999Z</time></trkpt><trkpt lat="45.575768009006275" lon="8.953647517688223"><ele>190.5</ele><time>2026-03-28T10:29:15.999Z</time></trkpt><trkpt lat="45.575882426758085" lon="8.953567696519768"><ele>190.75</ele><time>2026-03-28T10:29:16.999Z</time></trkpt><trkpt lat="45.57599570409678" lon="8.953490548657063"><ele>191.0</ele><time>2026-03-28T10:29:17.999Z</time></trkpt><trkpt lat="45.57610692888423" lon="8.953410136784598"><ele>190.75</ele><time>2026-03-28T10:29:18.999Z</time></trkpt><trkpt lat="45.576220816610466" lon="8.95332687284177"><ele>190.5</ele><time>2026-03-28T10:29:19.999Z</time></trkpt><trkpt lat="45.57633755685513" lon="8.953243775070375"><ele>190.25</ele><time>2026-03-28T10:29:20.999Z</time></trkpt><trkpt lat="45.57645568258621" lon="8.953164781297637"><ele>190.0</ele><time>2026-03-28T10:29:21.999Z</time></trkpt><trkpt lat="45.57657207556672" lon="8.953080660699952"><ele>190.0</ele><time>2026-03-28T10:29:22.999Z</time></trkpt><trkpt lat="45.57668698925219" lon="8.95299311869518"><ele>190.0</ele><time>2026-03-28T10:29:23.999Z</time></trkpt><trkpt lat="45.57680802622148" lon="8.952910916860645"><ele>190.0</ele><time>2026-03-28T10:29:24.999Z</time></trkpt><trkpt lat="45.576929727974466" lon="8.95282552228339"><ele>190.0</ele><time>2026-03-28T10:29:25.999Z</time></trkpt><trkpt lat="45.57704927312096" lon="8.952733769472392"><ele>190.33333333333334</ele><time>2026-03-28T10:29:26.999Z</time></trkpt><trkpt lat="45.577178632413414" lon="8.952638491752392"><ele>190.66666666666666</ele><time>2026-03-28T10:29:27.999Z</time></trkpt><trkpt lat="45.57731105622253" lon="8.952525949163075"><ele>191.0</ele><time>2026-03-28T10:29:28.999Z</time></trkpt><trkpt lat="45.57744193390423" lon="8.952410884954217"><ele>191.0</ele><time>2026-03-28T10:29:29.999Z</time></trkpt><trkpt lat="45.57757549716087" lon="8.95230701227404"><ele>191.0</ele><time>2026-03-28T10:29:30.999Z</time></trkpt><trkpt lat="45.57769875816541" lon="8.952199862865738"><ele>191.0</ele><time>2026-03-28T10:29:31.999Z</time></trkpt><trkpt lat="45.577813099634824" lon="8.952105594502903"><ele>191.0</ele><time>2026-03-28T10:29:33Z</time></trkpt><trkpt lat="45.577920086626214" lon="8.95202408164191"><ele>191.20000000000002</ele><time>2026-03-28T10:29:34Z</time></trkpt><trkpt lat="45.57801903911766" lon="8.951932056101436"><ele>191.4</ele><time>2026-03-28T10:29:35Z</time></trkpt><trkpt lat="45.57811288805899" lon="8.951848345715188"><ele>191.6</ele><time>2026-03-28T10:29:36Z</time></trkpt><trkpt lat="45.57820554193085" lon="8.951775830588813"><ele>191.8</ele><time>2026-03-28T10:29:37Z</time></trkpt><trkpt lat="45.578291941031296" lon="8.951704685888531"><ele>192.0</ele><time>2026-03-28T10:29:38Z</time></trkpt><trkpt lat="45.57837444658391" lon="8.951640086616328"><ele>192.0</ele><time>2026-03-28T10:29:39Z</time></trkpt><trkpt lat="45.57845449563475" lon="8.951598720558431"><ele>192.0</ele><time>2026-03-28T10:29:40Z</time></trkpt><trkpt lat="45.57852961343798" lon="8.951580839601897"><ele>192.0</ele><time>2026-03-28T10:29:41Z</time></trkpt><trkpt lat="45.57861752720809" lon="8.951569590174321"><ele>192.0</ele><time>2026-03-28T10:29:42Z</time></trkpt><trkpt lat="45.57870431299015" lon="8.951559336723097"><ele>192.0</ele><time>2026-03-28T10:29:43Z</time></trkpt><trkpt lat="45.578788853189515" lon="8.951529134864366"><ele>192.0</ele><time>2026-03-28T10:29:44Z</time></trkpt><trkpt lat="45.57886666053163" lon="8.951463425893118"><ele>191.39999999999998</ele><time>2026-03-28T10:29:45Z</time></trkpt><trkpt lat="45.57894029734817" lon="8.951369209269444"><ele>190.79999999999998</ele><time>2026-03-28T10:29:46Z</time></trkpt><trkpt lat="45.5790004707334" lon="8.951245668459768"><ele>190.2</ele><time>2026-03-28T10:29:47Z</time></trkpt><trkpt lat="45.579063219051875" lon="8.951124954270007"><ele>189.6</ele><time>2026-03-28T10:29:48Z</time></trkpt><trkpt lat="45.57913762492812" lon="8.95102760435932"><ele>189.0</ele><time>2026-03-28T10:29:49Z</time></trkpt><trkpt lat="45.579235330750066" lon="8.950926889459206"><ele>189.25</ele><time>2026-03-28T10:29:50Z</time></trkpt><trkpt lat="45.57933516855652" lon="8.950821303062472"><ele>189.5</ele><time>2026-03-28T10:29:51Z</time></trkpt><trkpt lat="45.57944119866511" lon="8.950722403538894"><ele>189.75</ele><time>2026-03-28T10:29:52Z</time></trkpt><trkpt lat="45.579547667606356" lon="8.950622336357492"><ele>190.0</ele><time>2026-03-28T10:29:53Z</time></trkpt><trkpt lat="45.57965800576959" lon="8.950525567921257"><ele>190.5</ele><time>2026-03-28T10:29:54Z</time></trkpt><trkpt lat="45.5797667970383" lon="8.950428668007161"><ele>191.0</ele><time>2026-03-28T10:29:55Z</time></trkpt><trkpt lat="45.579880251657855" lon="8.950304984447328"><ele>191.5</ele><time>2026-03-28T10:29:56Z</time></trkpt><trkpt lat="45.58000879663622" lon="8.950223630510147"><ele>192.0</ele><time>2026-03-28T10:29:57Z</time></trkpt><trkpt lat="45.580113938150426" lon="8.950132809650972"><ele>191.75</ele><time>2026-03-28T10:29:58Z</time></trkpt><trkpt lat="45.58022090909257" lon="8.95004082264134"><ele>191.5</ele><time>2026-03-28T10:29:59Z</time></trkpt><trkpt lat="45.58032582122665" lon="8.949950937871337"><ele>191.25</ele><time>2026-03-28T10:30:00Z</time></trkpt><trkpt lat="45.58043056702499" lon="8.949836317049535"><ele>191.0</ele><time>2026-03-28T10:30:01Z</time></trkpt><trkpt lat="45.58056076389798" lon="8.949755169394539"><ele>190.75</ele><time>2026-03-28T10:30:02Z</time></trkpt><trkpt lat="45.58067532984789" lon="8.949662162433409"><ele>190.5</ele><time>2026-03-28T10:30:03Z</time></trkpt><trkpt lat="45.58078139779125" lon="8.949578616821384"><ele>190.25</ele><time>2026-03-28T10:30:04Z</time></trkpt><trkpt lat="45.58088498848275" lon="8.94949670688006"><ele>190.0</ele><time>2026-03-28T10:30:05Z</time></trkpt><trkpt lat="45.58098620845951" lon="8.949418223815067"><ele>190.0</ele><time>2026-03-28T10:30:06Z</time></trkpt><trkpt lat="45.58108677614261" lon="8.949331724652804"><ele>190.0</ele><time>2026-03-28T10:30:07Z</time></trkpt><trkpt lat="45.58120527843733" lon="8.9492514200288"><ele>190.0</ele><time>2026-03-28T10:30:08Z</time></trkpt><trkpt lat="45.58131932297884" lon="8.949164322773914"><ele>190.0</ele><time>2026-03-28T10:30:09Z</time></trkpt><trkpt lat="45.58142224297769" lon="8.949070984126756"><ele>190.75</ele><time>2026-03-28T10:30:10Z</time></trkpt><trkpt lat="45.58153220426058" lon="8.948984066463698"><ele>191.5</ele><time>2026-03-28T10:30:11Z</time></trkpt><trkpt lat="45.58164601923026" lon="8.948904580073924"><ele>192.25</ele><time>2026-03-28T10:30:12Z</time></trkpt><trkpt lat="45.58174869148133" lon="8.94882959288102"><ele>193.0</ele><time>2026-03-28T10:30:13Z</time></trkpt><trkpt lat="45.58184938646251" lon="8.948754274491892"><ele>193.0</ele><time>2026-03-28T10:30:14Z</time></trkpt><trkpt lat="45.58195733948048" lon="8.948683069603877"><ele>193.0</ele><time>2026-03-28T10:30:15Z</time></trkpt><trkpt lat="45.58205842889206" lon="8.948602107322762"><ele>193.0</ele><time>2026-03-28T10:30:16Z</time></trkpt><trkpt lat="45.582152531478755" lon="8.94852894289233"><ele>193.0</ele><time>2026-03-28T10:30:17Z</time></trkpt><trkpt lat="45.58225724303244" lon="8.94846984899346"><ele>193.0</ele><time>2026-03-28T10:30:18Z</time></trkpt><trkpt lat="45.58235956539857" lon="8.948396694648771"><ele>193.0</ele><time>2026-03-28T10:30:19Z</time></trkpt><trkpt lat="45.58244085900463" lon="8.948297247881657"><ele>193.0</ele><time>2026-03-28T10:30:20Z</time></trkpt><trkpt lat="45.582541214865785" lon="8.948229032085154"><ele>193.0</ele><time>2026-03-28T10:30:21Z</time></trkpt><trkpt lat="45.58262793270478" lon="8.948133019086422"><ele>193.0</ele><time>2026-03-28T10:30:22Z</time></trkpt><trkpt lat="45.58269738028051" lon="8.948037889591694"><ele>193.2</ele><time>2026-03-28T10:30:23Z</time></trkpt><trkpt lat="45.582761113681634" lon="8.947940591132207"><ele>193.4</ele><time>2026-03-28T10:30:24Z</time></trkpt><trkpt lat="45.58281295429316" lon="8.947823323176356"><ele>193.6</ele><time>2026-03-28T10:30:25Z</time></trkpt><trkpt lat="45.58287618846874" lon="8.947718646647466"><ele>193.79999999999998</ele><time>2026-03-28T10:30:26Z</time></trkpt><trkpt lat="45.582939789237706" lon="8.947602324944008"><ele>194.0</ele><time>2026-03-28T10:30:27Z</time></trkpt><trkpt lat="45.582993814902686" lon="8.9474931771695"><ele>194.25</ele><time>2026-03-28T10:30:28Z</time></trkpt><trkpt lat="45.583056112062145" lon="8.947359142119874"><ele>194.5</ele><time>2026-03-28T10:30:29Z</time></trkpt><trkpt lat="45.58313750707369" lon="8.947227442327383"><ele>194.75</ele><time>2026-03-28T10:30:30Z</time></trkpt><trkpt lat="45.58319127367644" lon="8.94709000107968"><ele>195.0</ele><time>2026-03-28T10:30:31Z</time></trkpt><trkpt lat="45.58326179861048" lon="8.946963141656964"><ele>195.0</ele><time>2026-03-28T10:30:32Z</time></trkpt><trkpt lat="45.583341216609824" lon="8.946859885435671"><ele>195.0</ele><time>2026-03-28T10:30:33Z</time></trkpt><trkpt lat="45.583399302533635" lon="8.946730787691157"><ele>195.0</ele><time>2026-03-28T10:30:34Z</time></trkpt><trkpt lat="45.58346752183732" lon="8.946633079286972"><ele>195.0</ele><time>2026-03-28T10:30:34.999Z</time></trkpt><trkpt lat="45.58353866745755" lon="8.946530728361697"><ele>195.0</ele><time>2026-03-28T10:30:35.999Z</time></trkpt><trkpt lat="45.58361198346594" lon="8.946418304447297"><ele>194.8</ele><time>2026-03-28T10:30:36.999Z</time></trkpt><trkpt lat="45.583687257219395" lon="8.946315250457749"><ele>194.6</ele><time>2026-03-28T10:30:37.999Z</time></trkpt><trkpt lat="45.58376069304738" lon="8.946197618183776"><ele>194.39999999999998</ele><time>2026-03-28T10:30:38.999Z</time></trkpt><trkpt lat="45.583830527304514" lon="8.946103618465925"><ele>194.2</ele><time>2026-03-28T10:30:39.999Z</time></trkpt><trkpt lat="45.583910384776416" lon="8.946030304616016"><ele>194.0</ele><time>2026-03-28T10:30:40.999Z</time></trkpt><trkpt lat="45.5839862184336" lon="8.94593690955886"><ele>194.16666666666669</ele><time>2026-03-28T10:30:41.999Z</time></trkpt><trkpt lat="45.58406130778008" lon="8.945850642242087"><ele>194.33333333333334</ele><time>2026-03-28T10:30:42.999Z</time></trkpt><trkpt lat="45.58413792748367" lon="8.945769092398653"><ele>194.5</ele><time>2026-03-28T10:30:43.999Z</time></trkpt><trkpt lat="45.58420519208297" lon="8.945696848564225"><ele>194.66666666666669</ele><time>2026-03-28T10:30:44.999Z</time></trkpt><trkpt lat="45.58427030048172" lon="8.94562985963203"><ele>194.83333333333334</ele><time>2026-03-28T10:30:45.999Z</time></trkpt><trkpt lat="45.5843384232969" lon="8.94555976735445"><ele>195.0</ele><time>2026-03-28T10:30:46.999Z</time></trkpt><trkpt lat="45.58441835689428" lon="8.945479411407797"><ele>195.0</ele><time>2026-03-28T10:30:47.999Z</time></trkpt><trkpt lat="45.58449631262645" lon="8.945399529463245"><ele>195.0</ele><time>2026-03-28T10:30:48.999Z</time></trkpt><trkpt lat="45.58456461952304" lon="8.945298978934689"><ele>195.0</ele><time>2026-03-28T10:30:49.999Z</time></trkpt><trkpt lat="45.58465014529889" lon="8.94523654876127"><ele>195.0</ele><time>2026-03-28T10:30:50.999Z</time></trkpt><trkpt lat="45.584718631381186" lon="8.945136491427782"><ele>195.0</ele><time>2026-03-28T10:30:51.999Z</time></trkpt><trkpt lat="45.58480264089632" lon="8.945073656329726"><ele>195.16666666666666</ele><time>2026-03-28T10:30:52.999Z</time></trkpt><trkpt lat="45.5848678242898" lon="8.94500132765222"><ele>195.33333333333331</ele><time>2026-03-28T10:30:53.999Z</time></trkpt><trkpt lat="45.584912409285984" lon="8.944922239679412"><ele>195.5</ele><time>2026-03-28T10:30:54.999Z</time></trkpt><trkpt lat="45.58497365283732" lon="8.944860925157734"><ele>195.66666666666666</ele><time>2026-03-28T10:30:55.999Z</time></trkpt><trkpt lat="45.58505472073153" lon="8.944835839450048"><ele>195.83333333333331</ele><time>2026-03-28T10:30:56.999Z</time></trkpt><trkpt lat="45.585117357432" lon="8.944764004903499"><ele>196.0</ele><time>2026-03-28T10:30:57.999Z</time></trkpt><trkpt lat="45.58516748158104" lon="8.944692944385514"><ele>195.99999999999997</ele><time>2026-03-28T10:30:58.999Z</time></trkpt><trkpt lat="45.585212989004866" lon="8.944630573182199"><ele>196.0</ele><time>2026-03-28T10:30:59.999Z</time></trkpt><trkpt lat="45.58528999474637" lon="8.944521682425519"><ele>196.0</ele><time>2026-03-28T10:31:01.999Z</time></trkpt><trkpt lat="45.58534400936584" lon="8.944440710560547"><ele>196.0</ele><time>2026-03-28T10:31:02.999Z</time></trkpt><trkpt lat="45.58539885107702" lon="8.944357835259458"><ele>195.99999999999997</ele><time>2026-03-28T10:31:03.999Z</time></trkpt><trkpt lat="45.58545738613683" lon="8.944271702933312"><ele>196.0</ele><time>2026-03-28T10:31:04.999Z</time></trkpt><trkpt lat="45.58551144671507" lon="8.944193613256884"><ele>196.4</ele><time>2026-03-28T10:31:05.999Z</time></trkpt><trkpt lat="45.58556929465593" lon="8.944121113437403"><ele>196.8</ele><time>2026-03-28T10:31:06.999Z</time></trkpt><trkpt lat="45.58562146275656" lon="8.94401312258229"><ele>197.20000000000002</ele><time>2026-03-28T10:31:07.999Z</time></trkpt><trkpt lat="45.58569312996786" lon="8.94388255461131"><ele>197.60000000000002</ele><time>2026-03-28T10:31:08.999Z</time></trkpt><trkpt lat="45.58574496923695" lon="8.943737540676773"><ele>198.0</ele><time>2026-03-28T10:31:09.999Z</time></trkpt><trkpt lat="45.58581447734796" lon="8.943635035079359"><ele>198.0</ele><time>2026-03-28T10:31:10.999Z</time></trkpt><trkpt lat="45.58588423358483" lon="8.943524682698518"><ele>198.0</ele><time>2026-03-28T10:31:11.999Z</time></trkpt><trkpt lat="45.58594762235181" lon="8.943412029778791"><ele>198.0</ele><time>2026-03-28T10:31:12.999Z</time></trkpt><trkpt lat="45.58600955027533" lon="8.94329547395624"><ele>198.0</ele><time>2026-03-28T10:31:13.999Z</time></trkpt><trkpt lat="45.586068123942184" lon="8.943182901716263"><ele>198.0</ele><time>2026-03-28T10:31:14.999Z</time></trkpt><trkpt lat="45.58612360164987" lon="8.943047716858175"><ele>198.2</ele><time>2026-03-28T10:31:15.999Z</time></trkpt><trkpt lat="45.58618919124152" lon="8.942935282439324"><ele>198.4</ele><time>2026-03-28T10:31:16.999Z</time></trkpt><trkpt lat="45.5862566400928" lon="8.942822347318833"><ele>198.6</ele><time>2026-03-28T10:31:17.999Z</time></trkpt><trkpt lat="45.58631347031429" lon="8.942706644155223"><ele>198.79999999999998</ele><time>2026-03-28T10:31:18.999Z</time></trkpt><trkpt lat="45.58637746167613" lon="8.942584941053719"><ele>199.0</ele><time>2026-03-28T10:31:19.999Z</time></trkpt><trkpt lat="45.586445119519595" lon="8.942469094316955"><ele>199.0</ele><time>2026-03-28T10:31:20.999Z</time></trkpt><trkpt lat="45.586521050430036" lon="8.942354189735127"><ele>199.0</ele><time>2026-03-28T10:31:21.999Z</time></trkpt><trkpt lat="45.586597005646155" lon="8.942239796237041"><ele>199.0</ele><time>2026-03-28T10:31:22.999Z</time></trkpt><trkpt lat="45.586667806057164" lon="8.942131334710755"><ele>199.0</ele><time>2026-03-28T10:31:23.999Z</time></trkpt><trkpt lat="45.58673527650445" lon="8.941975244694564"><ele>199.0</ele><time>2026-03-28T10:31:24.999Z</time></trkpt><trkpt lat="45.58679354905853" lon="8.941857235472284"><ele>199.0</ele><time>2026-03-28T10:31:25.999Z</time></trkpt><trkpt lat="45.58685979374724" lon="8.941742393220146"><ele>199.0</ele><time>2026-03-28T10:31:26.999Z</time></trkpt><trkpt lat="45.58693997499719" lon="8.941632138986735"><ele>199.0</ele><time>2026-03-28T10:31:27.999Z</time></trkpt><trkpt lat="45.587010719550435" lon="8.941514575646174"><ele>199.0</ele><time>2026-03-28T10:31:28.999Z</time></trkpt><trkpt lat="45.587081055287356" lon="8.941371421055523"><ele>199.25</ele><time>2026-03-28T10:31:29.999Z</time></trkpt><trkpt lat="45.58715667886257" lon="8.941243909650751"><ele>199.5</ele><time>2026-03-28T10:31:30.999Z</time></trkpt><trkpt lat="45.58723275262475" lon="8.941120208617892"><ele>199.75</ele><time>2026-03-28T10:31:31.999Z</time></trkpt><trkpt lat="45.58731419012201" lon="8.94099634977151"><ele>200.0</ele><time>2026-03-28T10:31:32.999Z</time></trkpt><trkpt lat="45.587399689381385" lon="8.940857133729702"><ele>199.5</ele><time>2026-03-28T10:31:33.999Z</time></trkpt><trkpt lat="45.58748323433114" lon="8.940715254592249"><ele>199.0</ele><time>2026-03-28T10:31:34.999Z</time></trkpt><trkpt lat="45.587560097029744" lon="8.940582585253726"><ele>198.5</ele><time>2026-03-28T10:31:35.999Z</time></trkpt><trkpt lat="45.5876416769376" lon="8.940466053444208"><ele>198.0</ele><time>2026-03-28T10:31:36.999Z</time></trkpt><trkpt lat="45.58771675440899" lon="8.940343057893859"><ele>198.0</ele><time>2026-03-28T10:31:37.999Z</time></trkpt><trkpt lat="45.587783281464596" lon="8.940223800183816"><ele>198.0</ele><time>2026-03-28T10:31:39Z</time></trkpt><trkpt lat="45.58784778460282" lon="8.94012970553666"><ele>198.0</ele><time>2026-03-28T10:31:40Z</time></trkpt><trkpt lat="45.587910625514525" lon="8.940021680659061"><ele>198.0</ele><time>2026-03-28T10:31:41Z</time></trkpt><trkpt lat="45.58797408103194" lon="8.939915530425184"><ele>198.0</ele><time>2026-03-28T10:31:42Z</time></trkpt><trkpt lat="45.58804064843855" lon="8.939809543152927"><ele>198.0</ele><time>2026-03-28T10:31:43Z</time></trkpt><trkpt lat="45.5881036612325" lon="8.939685500221895"><ele>198.0</ele><time>2026-03-28T10:31:44Z</time></trkpt><trkpt lat="45.58817867287223" lon="8.939559308938888"><ele>198.0</ele><time>2026-03-28T10:31:45Z</time></trkpt><trkpt lat="45.58825440709113" lon="8.939418545892678"><ele>198.0</ele><time>2026-03-28T10:31:46Z</time></trkpt><trkpt lat="45.588356168260916" lon="8.939328034260987"><ele>198.0</ele><time>2026-03-28T10:31:47Z</time></trkpt><trkpt lat="45.58844767943373" lon="8.939218861829819"><ele>198.0</ele><time>2026-03-28T10:31:48Z</time></trkpt><trkpt lat="45.588568675193784" lon="8.939150897391395"><ele>198.0</ele><time>2026-03-28T10:31:49Z</time></trkpt><trkpt lat="45.58868467842268" lon="8.939075446129497"><ele>198.0</ele><time>2026-03-28T10:31:50Z</time></trkpt><trkpt lat="45.588814391228176" lon="8.938977989578525"><ele>198.33333333333331</ele><time>2026-03-28T10:31:51Z</time></trkpt><trkpt lat="45.58894824750171" lon="8.93886910012958"><ele>198.66666666666666</ele><time>2026-03-28T10:31:52Z</time></trkpt><trkpt lat="45.589078343875215" lon="8.938765017375736"><ele>199.0</ele><time>2026-03-28T10:31:53Z</time></trkpt><trkpt lat="45.589210046059286" lon="8.93865681378979"><ele>199.0</ele><time>2026-03-28T10:31:54Z</time></trkpt><trkpt lat="45.589337435528044" lon="8.938557488880207"><ele>199.0</ele><time>2026-03-28T10:31:55Z</time></trkpt><trkpt lat="45.58945517484395" lon="8.93845640057078"><ele>199.0</ele><time>2026-03-28T10:31:56Z</time></trkpt><trkpt lat="45.58956582080909" lon="8.938359661043716"><ele>199.0</ele><time>2026-03-28T10:31:57Z</time></trkpt><trkpt lat="45.589683705963004" lon="8.938264937345965"><ele>199.25</ele><time>2026-03-28T10:31:58Z</time></trkpt><trkpt lat="45.58980068027315" lon="8.938169781119884"><ele>199.5</ele><time>2026-03-28T10:31:59Z</time></trkpt><trkpt lat="45.5899230494023" lon="8.938077348770651"><ele>199.75</ele><time>2026-03-28T10:32:00Z</time></trkpt><trkpt lat="45.59003792716277" lon="8.937963839592031"><ele>200.0</ele><time>2026-03-28T10:32:01Z</time></trkpt><trkpt lat="45.590146043540365" lon="8.93784903441295"><ele>200.0</ele><time>2026-03-28T10:32:02Z</time></trkpt><trkpt lat="45.590247540201254" lon="8.937735847111087"><ele>200.0</ele><time>2026-03-28T10:32:03Z</time></trkpt><trkpt lat="45.59033907270642" lon="8.937627710231325"><ele>200.0</ele><time>2026-03-28T10:32:04Z</time></trkpt><trkpt lat="45.59042482510064" lon="8.937522732446427"><ele>200.0</ele><time>2026-03-28T10:32:05Z</time></trkpt><trkpt lat="45.590503085648116" lon="8.937416459880444"><ele>200.2</ele><time>2026-03-28T10:32:06Z</time></trkpt><trkpt lat="45.59057669425769" lon="8.937328766917265"><ele>200.4</ele><time>2026-03-28T10:32:07Z</time></trkpt><trkpt lat="45.59063155053319" lon="8.937270213525371"><ele>200.60000000000002</ele><time>2026-03-28T10:32:08Z</time></trkpt><trkpt lat="45.59071195601015" lon="8.937185179907198"><ele>200.8</ele><time>2026-03-28T10:32:10Z</time></trkpt><trkpt lat="45.590799569060486" lon="8.937158067076568"><ele>201.0</ele><time>2026-03-28T10:32:12Z</time></trkpt><trkpt lat="45.590905112857314" lon="8.937191850674044"><ele>201.0</ele><time>2026-03-28T10:32:14Z</time></trkpt><trkpt lat="45.59104290433629" lon="8.937180712985597"><ele>201.0</ele><time>2026-03-28T10:32:16Z</time></trkpt><trkpt lat="45.5910884052682" lon="8.937068390411104"><ele>201.0</ele><time>2026-03-28T10:32:17Z</time></trkpt><trkpt lat="45.59109061311408" lon="8.936971738998352"><ele>201.0</ele><time>2026-03-28T10:32:18Z</time></trkpt><trkpt lat="45.59107566754155" lon="8.936868111470362"><ele>201.0</ele><time>2026-03-28T10:32:19Z</time></trkpt><trkpt lat="45.59110503269559" lon="8.936768895054149"><ele>201.0</ele><time>2026-03-28T10:32:20Z</time></trkpt><trkpt lat="45.591147789204065" lon="8.936674834486926"><ele>201.33333333333334</ele><time>2026-03-28T10:32:21Z</time></trkpt><trkpt lat="45.59118790636747" lon="8.936571719790297"><ele>201.66666666666669</ele><time>2026-03-28T10:32:22Z</time></trkpt><trkpt lat="45.591258938356695" lon="8.93651042345071"><ele>202.0</ele><time>2026-03-28T10:32:23Z</time></trkpt><trkpt lat="45.591309672067155" lon="8.936418020547757"><ele>202.33333333333334</ele><time>2026-03-28T10:32:24Z</time></trkpt><trkpt lat="45.59136731821834" lon="8.936325010830272"><ele>202.66666666666669</ele><time>2026-03-28T10:32:25Z</time></trkpt><trkpt lat="45.59141936838505" lon="8.93621813707968"><ele>203.0</ele><time>2026-03-28T10:32:26Z</time></trkpt><trkpt lat="45.59149642395723" lon="8.936140096875683"><ele>203.0</ele><time>2026-03-28T10:32:27Z</time></trkpt><trkpt lat="45.591578758265726" lon="8.936059567717352"><ele>203.0</ele><time>2026-03-28T10:32:28Z</time></trkpt><trkpt lat="45.59166019686376" lon="8.935975118256158"><ele>203.0</ele><time>2026-03-28T10:32:29Z</time></trkpt><trkpt lat="45.59174970417656" lon="8.935881120444305"><ele>203.0</ele><time>2026-03-28T10:32:30Z</time></trkpt><trkpt lat="45.59184430701999" lon="8.93578112392378"><ele>203.0</ele><time>2026-03-28T10:32:31Z</time></trkpt><trkpt lat="45.59194271421918" lon="8.935672757929705"><ele>203.0</ele><time>2026-03-28T10:32:32Z</time></trkpt><trkpt lat="45.592041823586634" lon="8.935568709446446"><ele>203.0</ele><time>2026-03-28T10:32:33Z</time></trkpt><trkpt lat="45.592142029268956" lon="8.935463116402088"><ele>203.0</ele><time>2026-03-28T10:32:34Z</time></trkpt><trkpt lat="45.59223776776993" lon="8.935365368104595"><ele>203.0</ele><time>2026-03-28T10:32:35Z</time></trkpt><trkpt lat="45.592332763151795" lon="8.935263129756782"><ele>203.0</ele><time>2026-03-28T10:32:36Z</time></trkpt><trkpt lat="45.592437802824605" lon="8.935180846150061"><ele>203.0</ele><time>2026-03-28T10:32:37Z</time></trkpt><trkpt lat="45.59252456617399" lon="8.935090135595535"><ele>203.0</ele><time>2026-03-28T10:32:38Z</time></trkpt><trkpt lat="45.592609465255514" lon="8.935001235600602"><ele>203.0</ele><time>2026-03-28T10:32:39Z</time></trkpt><trkpt lat="45.59269051930658" lon="8.934913943957131"><ele>203.0</ele><time>2026-03-28T10:32:40Z</time></trkpt><trkpt lat="45.592760559534156" lon="8.934837724847362"><ele>203.00000000000003</ele><time>2026-03-28T10:32:41Z</time></trkpt><trkpt lat="45.59282869881724" lon="8.934762254822504"><ele>203.0</ele><time>2026-03-28T10:32:42Z</time></trkpt><trkpt lat="45.59287753671534" lon="8.934667992494902"><ele>203.0</ele><time>2026-03-28T10:32:43Z</time></trkpt><trkpt lat="45.59293518017787" lon="8.934586859526886"><ele>203.0</ele><time>2026-03-28T10:32:44Z</time></trkpt><trkpt lat="45.592983723954546" lon="8.934504501789672"><ele>203.00000000000003</ele><time>2026-03-28T10:32:45Z</time></trkpt><trkpt lat="45.59302122038388" lon="8.93442582853162"><ele>203.0</ele><time>2026-03-28T10:32:45.999Z</time></trkpt><trkpt lat="45.593066923385855" lon="8.934353950078808"><ele>203.0</ele><time>2026-03-28T10:32:46.999Z</time></trkpt><trkpt lat="45.59308135555144" lon="8.93426622080616"><ele>203.0</ele><time>2026-03-28T10:32:47.999Z</time></trkpt><trkpt lat="45.593138295267345" lon="8.934193392135736"><ele>203.0</ele><time>2026-03-28T10:32:49.999Z</time></trkpt><trkpt lat="45.59316860307549" lon="8.934094669011435"><ele>203.0</ele><time>2026-03-28T10:32:51.999Z</time></trkpt><trkpt lat="45.59319951053164" lon="8.934000873931947"><ele>203.0</ele><time>2026-03-28T10:32:53.999Z</time></trkpt><trkpt lat="45.59322703014164" lon="8.933914285892895"><ele>203.0</ele><time>2026-03-28T10:32:55.999Z</time></trkpt><trkpt lat="45.59325851881577" lon="8.933810799077689"><ele>203.0</ele><time>2026-03-28T10:32:57.999Z</time></trkpt><trkpt lat="45.593299805837766" lon="8.93369424069619"><ele>202.83333333333334</ele><time>2026-03-28T10:32:59.999Z</time></trkpt><trkpt lat="45.59335670268694" lon="8.933596325621256"><ele>202.66666666666669</ele><time>2026-03-28T10:33:01.999Z</time></trkpt><trkpt lat="45.59341964180064" lon="8.933555774776897"><ele>202.5</ele><time>2026-03-28T10:33:02.999Z</time></trkpt><trkpt lat="45.59349156292032" lon="8.933552743420043"><ele>202.33333333333331</ele><time>2026-03-28T10:33:03.999Z</time></trkpt><trkpt lat="45.59355923916017" lon="8.933599170965998"><ele>202.16666666666666</ele><time>2026-03-28T10:33:04.999Z</time></trkpt><trkpt lat="45.59363050044395" lon="8.933617694003432"><ele>202.0</ele><time>2026-03-28T10:33:05.999Z</time></trkpt><trkpt lat="45.59369993023854" lon="8.933682988582387"><ele>202.0</ele><time>2026-03-28T10:33:06.999Z</time></trkpt><trkpt lat="45.59378166498277" lon="8.933757296638632"><ele>202.0</ele><time>2026-03-28T10:33:07.999Z</time></trkpt><trkpt lat="45.59385685096192" lon="8.933826120532537"><ele>202.0</ele><time>2026-03-28T10:33:08.999Z</time></trkpt><trkpt lat="45.59393001602744" lon="8.933907400947017"><ele>202.0</ele><time>2026-03-28T10:33:09.999Z</time></trkpt><trkpt lat="45.5940017843742" lon="8.933999736964447"><ele>202.0</ele><time>2026-03-28T10:33:10.999Z</time></trkpt><trkpt lat="45.594066097271586" lon="8.934091608822373"><ele>202.0</ele><time>2026-03-28T10:33:11.999Z</time></trkpt><trkpt lat="45.59413998003865" lon="8.934193342723043"><ele>202.0</ele><time>2026-03-28T10:33:12.999Z</time></trkpt><trkpt lat="45.594223950298854" lon="8.934295915051672"><ele>202.0</ele><time>2026-03-28T10:33:13.999Z</time></trkpt><trkpt lat="45.59431065671033" lon="8.934395341693524"><ele>202.0</ele><time>2026-03-28T10:33:14.999Z</time></trkpt><trkpt lat="45.59439065111638" lon="8.934498308520151"><ele>202.0</ele><time>2026-03-28T10:33:15.999Z</time></trkpt><trkpt lat="45.59447118777769" lon="8.93458962599893"><ele>202.39999999999998</ele><time>2026-03-28T10:33:16.999Z</time></trkpt><trkpt lat="45.594554725486255" lon="8.934682439105446"><ele>202.79999999999998</ele><time>2026-03-28T10:33:17.999Z</time></trkpt><trkpt lat="45.594627038962315" lon="8.934770951883296"><ele>203.2</ele><time>2026-03-28T10:33:18.999Z</time></trkpt><trkpt lat="45.59469447938188" lon="8.93485286514316"><ele>203.6</ele><time>2026-03-28T10:33:19.999Z</time></trkpt><trkpt lat="45.59476895068159" lon="8.93493406052106"><ele>204.0</ele><time>2026-03-28T10:33:20.999Z</time></trkpt><trkpt lat="45.59484994645059" lon="8.935019399916609"><ele>204.79999999999998</ele><time>2026-03-28T10:33:21.999Z</time></trkpt><trkpt lat="45.594931461630885" lon="8.935108388862156"><ele>205.6</ele><time>2026-03-28T10:33:22.999Z</time></trkpt><trkpt lat="45.595006185934906" lon="8.935200431867203"><ele>206.4</ele><time>2026-03-28T10:33:23.999Z</time></trkpt><trkpt lat="45.59508404750499" lon="8.935292175638827"><ele>207.2</ele><time>2026-03-28T10:33:24.999Z</time></trkpt><trkpt lat="45.595167112897215" lon="8.935392828682188"><ele>208.0</ele><time>2026-03-28T10:33:25.999Z</time></trkpt><trkpt lat="45.59526171613126" lon="8.935495128985616"><ele>208.5</ele><time>2026-03-28T10:33:26.999Z</time></trkpt><trkpt lat="45.59535218400622" lon="8.935603720223986"><ele>209.0</ele><time>2026-03-28T10:33:27.999Z</time></trkpt><trkpt lat="45.59543396559579" lon="8.935712667952963"><ele>209.5</ele><time>2026-03-28T10:33:28.999Z</time></trkpt><trkpt lat="45.59551965720643" lon="8.935821050741556"><ele>210.0</ele><time>2026-03-28T10:33:29.999Z</time></trkpt><trkpt lat="45.595615859072694" lon="8.935928469380682"><ele>210.25</ele><time>2026-03-28T10:33:30.999Z</time></trkpt><trkpt lat="45.59571303024797" lon="8.936036650032639"><ele>210.5</ele><time>2026-03-28T10:33:31.999Z</time></trkpt><trkpt lat="45.59580454233494" lon="8.936150454870369"><ele>210.75</ele><time>2026-03-28T10:33:32.999Z</time></trkpt><trkpt lat="45.59589875697614" lon="8.93626312557065"><ele>211.0</ele><time>2026-03-28T10:33:33.999Z</time></trkpt><trkpt lat="45.59598485727299" lon="8.936367996795768"><ele>211.0</ele><time>2026-03-28T10:33:34.999Z</time></trkpt><trkpt lat="45.59607836008548" lon="8.936476401165491"><ele>211.0</ele><time>2026-03-28T10:33:35.999Z</time></trkpt><trkpt lat="45.59617035877523" lon="8.936580748751428"><ele>211.0</ele><time>2026-03-28T10:33:36.999Z</time></trkpt><trkpt lat="45.59626693109403" lon="8.936683091057148"><ele>211.0</ele><time>2026-03-28T10:33:37.999Z</time></trkpt><trkpt lat="45.596355740437815" lon="8.936783921631399"><ele>211.20000000000002</ele><time>2026-03-28T10:33:38.999Z</time></trkpt><trkpt lat="45.5964156669063" lon="8.936899563559738"><ele>211.4</ele><time>2026-03-28T10:33:39.999Z</time></trkpt><trkpt lat="45.596501314300085" lon="8.937005104945122"><ele>211.6</ele><time>2026-03-28T10:33:40.999Z</time></trkpt><trkpt lat="45.59658469534424" lon="8.93710956089344"><ele>211.8</ele><time>2026-03-28T10:33:41.999Z</time></trkpt><trkpt lat="45.59666985309339" lon="8.937214363738562"><ele>212.0</ele><time>2026-03-28T10:33:42.999Z</time></trkpt><trkpt lat="45.596753665179065" lon="8.937311127797944"><ele>212.0</ele><time>2026-03-28T10:33:43.999Z</time></trkpt><trkpt lat="45.596834877325186" lon="8.937397973580591"><ele>212.0</ele><time>2026-03-28T10:33:45Z</time></trkpt><trkpt lat="45.59691821437175" lon="8.937487310677753"><ele>212.0</ele><time>2026-03-28T10:33:46Z</time></trkpt><trkpt lat="45.59699721939046" lon="8.937588958146803"><ele>212.0</ele><time>2026-03-28T10:33:47Z</time></trkpt><trkpt lat="45.59708449868374" lon="8.93769438771862"><ele>212.0</ele><time>2026-03-28T10:33:48Z</time></trkpt><trkpt lat="45.597177993600205" lon="8.937813637028606"><ele>212.0</ele><time>2026-03-28T10:33:49Z</time></trkpt><trkpt lat="45.59728333568939" lon="8.937932203353109"><ele>212.0</ele><time>2026-03-28T10:33:50Z</time></trkpt><trkpt lat="45.59740225942585" lon="8.938058352389353"><ele>212.0</ele><time>2026-03-28T10:33:51Z</time></trkpt><trkpt lat="45.59752034424782" lon="8.938187931261044"><ele>212.0</ele><time>2026-03-28T10:33:52Z</time></trkpt><trkpt lat="45.59763690601072" lon="8.938313577373405"><ele>212.25</ele><time>2026-03-28T10:33:53Z</time></trkpt><trkpt lat="45.5977252683499" lon="8.938452297631212"><ele>212.5</ele><time>2026-03-28T10:33:54Z</time></trkpt><trkpt lat="45.597827843463335" lon="8.938570129825033"><ele>212.75</ele><time>2026-03-28T10:33:55Z</time></trkpt><trkpt lat="45.597919036607976" lon="8.938683968297573"><ele>213.0</ele><time>2026-03-28T10:33:56Z</time></trkpt><trkpt lat="45.59800359397979" lon="8.938788175118026"><ele>213.0</ele><time>2026-03-28T10:33:57Z</time></trkpt><trkpt lat="45.59807033240886" lon="8.938874604572524"><ele>213.0</ele><time>2026-03-28T10:33:58Z</time></trkpt><trkpt lat="45.59811597552093" lon="8.938937175499785"><ele>213.0</ele><time>2026-03-28T10:33:59Z</time></trkpt><trkpt lat="45.59818222118157" lon="8.939016391287893"><ele>213.0</ele><time>2026-03-28T10:34:01Z</time></trkpt><trkpt lat="45.59823424708011" lon="8.939077771738003"><ele>213.0</ele><time>2026-03-28T10:34:03Z</time></trkpt><trkpt lat="45.59828339664592" lon="8.939135758482898"><ele>213.0</ele><time>2026-03-28T10:34:05Z</time></trkpt><trkpt lat="45.598327762842146" lon="8.939236443134329"><ele>213.0</ele><time>2026-03-28T10:35:23.999Z</time></trkpt><trkpt lat="45.598420822105346" lon="8.939246790690731"><ele>213.0</ele><time>2026-03-28T10:35:31.999Z</time></trkpt><trkpt lat="45.598519043491045" lon="8.939298537247597"><ele>213.0</ele><time>2026-03-28T10:35:33.999Z</time></trkpt><trkpt lat="45.598570457033134" lon="8.939356092164607"><ele>213.0</ele><time>2026-03-28T10:35:34.999Z</time></trkpt><trkpt lat="45.59864175641946" lon="8.939439924867298"><ele>213.0</ele><time>2026-03-28T10:35:35.999Z</time></trkpt><trkpt lat="45.59870059805756" lon="8.939549155081371"><ele>212.60000000000002</ele><time>2026-03-28T10:35:36.999Z</time></trkpt><trkpt lat="45.59879150593013" lon="8.939658143634196"><ele>212.20000000000002</ele><time>2026-03-28T10:35:37.999Z</time></trkpt><trkpt lat="45.59886551215251" lon="8.939765532194953"><ele>211.8</ele><time>2026-03-28T10:35:38.999Z</time></trkpt><trkpt lat="45.59894637444339" lon="8.93985664668082"><ele>211.4</ele><time>2026-03-28T10:35:39.999Z</time></trkpt><trkpt lat="45.599018642019416" lon="8.939944898431618"><ele>211.0</ele><time>2026-03-28T10:35:40.999Z</time></trkpt><trkpt lat="45.59907458447381" lon="8.940036171230865"><ele>211.0</ele><time>2026-03-28T10:35:41.999Z</time></trkpt><trkpt lat="45.59913272043722" lon="8.940103497123403"><ele>211.0</ele><time>2026-03-28T10:35:42.999Z</time></trkpt><trkpt lat="45.59906372517119" lon="8.939899077737667"><ele>211.0</ele><time>2026-03-28T10:35:53Z</time></trkpt><trkpt lat="45.598990398045416" lon="8.939818464138598"><ele>211.0</ele><time>2026-03-28T10:35:54Z</time></trkpt><trkpt lat="45.598900801895695" lon="8.939737504355538"><ele>211.0</ele><time>2026-03-28T10:35:55Z</time></trkpt><trkpt lat="45.5988100013991" lon="8.939626322352558"><ele>211.0</ele><time>2026-03-28T10:35:56Z</time></trkpt><trkpt lat="45.598724177778884" lon="8.939504034751572"><ele>211.0</ele><time>2026-03-28T10:35:57Z</time></trkpt><trkpt lat="45.5986246331977" lon="8.939393806449004"><ele>211.0</ele><time>2026-03-28T10:35:58Z</time></trkpt><trkpt lat="45.59853202181233" lon="8.939265225390859"><ele>211.0</ele><time>2026-03-28T10:35:59Z</time></trkpt><trkpt lat="45.598417881915914" lon="8.939177445116961"><ele>211.0</ele><time>2026-03-28T10:36:00Z</time></trkpt><trkpt lat="45.59830445595849" lon="8.939050843315995"><ele>211.0</ele><time>2026-03-28T10:36:01Z</time></trkpt><trkpt lat="45.598190360789765" lon="8.938915271617198"><ele>211.0</ele><time>2026-03-28T10:36:02Z</time></trkpt><trkpt lat="45.59807551687963" lon="8.938772322037691"><ele>211.0</ele><time>2026-03-28T10:36:03Z</time></trkpt><trkpt lat="45.59795228994874" lon="8.938625426287558"><ele>211.0</ele><time>2026-03-28T10:36:04Z</time></trkpt><trkpt lat="45.597837196889294" lon="8.93848822657274"><ele>211.0</ele><time>2026-03-28T10:36:05Z</time></trkpt><trkpt lat="45.597730594937254" lon="8.938344795015926"><ele>211.0</ele><time>2026-03-28T10:36:06Z</time></trkpt><trkpt lat="45.597617682510595" lon="8.938215239388875"><ele>211.0</ele><time>2026-03-28T10:36:07Z</time></trkpt><trkpt lat="45.597496642369656" lon="8.938100651236084"><ele>211.25</ele><time>2026-03-28T10:36:08Z</time></trkpt><trkpt lat="45.5973911246115" lon="8.937967255980706"><ele>211.5</ele><time>2026-03-28T10:36:09Z</time></trkpt><trkpt lat="45.59727399099312" lon="8.937831045939413"><ele>211.75</ele><time>2026-03-28T10:36:10Z</time></trkpt><trkpt lat="45.597154979848746" lon="8.937686425298013"><ele>212.0</ele><time>2026-03-28T10:36:11Z</time></trkpt><trkpt lat="45.5970339468016" lon="8.937548996981098"><ele>212.0</ele><time>2026-03-28T10:36:12Z</time></trkpt><trkpt lat="45.596926419658104" lon="8.937425189989707"><ele>212.0</ele><time>2026-03-28T10:36:13Z</time></trkpt><trkpt lat="45.59683719832779" lon="8.93731783292205"><ele>212.0</ele><time>2026-03-28T10:36:14Z</time></trkpt><trkpt lat="45.5967340596202" lon="8.937199259434092"><ele>212.0</ele><time>2026-03-28T10:36:15Z</time></trkpt><trkpt lat="45.59663136940082" lon="8.937056515810845"><ele>212.0</ele><time>2026-03-28T10:36:16Z</time></trkpt><trkpt lat="45.59655809059826" lon="8.936959100749634"><ele>212.0</ele><time>2026-03-28T10:36:17Z</time></trkpt><trkpt lat="45.59646437718936" lon="8.936847850201545"><ele>212.0</ele><time>2026-03-28T10:36:18Z</time></trkpt><trkpt lat="45.59637377203811" lon="8.93674424489063"><ele>212.0</ele><time>2026-03-28T10:36:19Z</time></trkpt><trkpt lat="45.59628168415085" lon="8.936638133569945"><ele>212.0</ele><time>2026-03-28T10:36:20Z</time></trkpt><trkpt lat="45.59620607830719" lon="8.936524707292362"><ele>212.0</ele><time>2026-03-28T10:36:21Z</time></trkpt><trkpt lat="45.596135955250716" lon="8.936437547323003"><ele>212.0</ele><time>2026-03-28T10:36:22Z</time></trkpt><trkpt lat="45.59606319126662" lon="8.936357978235046"><ele>212.0</ele><time>2026-03-28T10:36:23Z</time></trkpt><trkpt lat="45.595979490255374" lon="8.936290217987727"><ele>212.0</ele><time>2026-03-28T10:36:24Z</time></trkpt><trkpt lat="45.59591942892748" lon="8.936221387934292"><ele>211.85714285714286</ele><time>2026-03-28T10:36:25Z</time></trkpt><trkpt lat="45.59585833019567" lon="8.936163578434329"><ele>211.7142857142857</ele><time>2026-03-28T10:36:26Z</time></trkpt><trkpt lat="45.595811646932724" lon="8.936082816761237"><ele>211.57142857142856</ele><time>2026-03-28T10:36:27Z</time></trkpt><trkpt lat="45.595761309321354" lon="8.936027472888703"><ele>211.42857142857144</ele><time>2026-03-28T10:36:28Z</time></trkpt><trkpt lat="45.59570681955286" lon="8.935969228032775"><ele>211.28571428571428</ele><time>2026-03-28T10:36:29Z</time></trkpt><trkpt lat="45.59565163720795" lon="8.935905200291085"><ele>211.14285714285714</ele><time>2026-03-28T10:36:30Z</time></trkpt><trkpt lat="45.5955949599543" lon="8.935847116132342"><ele>211.0</ele><time>2026-03-28T10:36:31Z</time></trkpt><trkpt lat="45.595547195423016" lon="8.935775035482196"><ele>210.8</ele><time>2026-03-28T10:36:32Z</time></trkpt><trkpt lat="45.59549478555341" lon="8.935706149799074"><ele>210.60000000000002</ele><time>2026-03-28T10:36:33Z</time></trkpt><trkpt lat="45.59540032727655" lon="8.935592260340824"><ele>210.4</ele><time>2026-03-28T10:36:35Z</time></trkpt><trkpt lat="45.59534188248471" lon="8.935516801743063"><ele>210.2</ele><time>2026-03-28T10:36:36Z</time></trkpt><trkpt lat="45.59527891758624" lon="8.935447619334086"><ele>210.0</ele><time>2026-03-28T10:36:37Z</time></trkpt><trkpt lat="45.59520091980584" lon="8.935365945866304"><ele>209.6</ele><time>2026-03-28T10:36:38Z</time></trkpt><trkpt lat="45.59513432842756" lon="8.935282272115566"><ele>209.2</ele><time>2026-03-28T10:36:39Z</time></trkpt><trkpt lat="45.595061843765414" lon="8.935189926003673"><ele>208.8</ele><time>2026-03-28T10:36:40Z</time></trkpt><trkpt lat="45.59497578617512" lon="8.935091912121134"><ele>208.4</ele><time>2026-03-28T10:36:41Z</time></trkpt><trkpt lat="45.594894346531675" lon="8.934995485354811"><ele>208.0</ele><time>2026-03-28T10:36:42Z</time></trkpt><trkpt lat="45.59481255985912" lon="8.934908730272403"><ele>207.2</ele><time>2026-03-28T10:36:43Z</time></trkpt><trkpt lat="45.59473757314293" lon="8.934823372844914"><ele>206.4</ele><time>2026-03-28T10:36:44Z</time></trkpt><trkpt lat="45.59465044154509" lon="8.934731751182763"><ele>205.6</ele><time>2026-03-28T10:36:45Z</time></trkpt><trkpt lat="45.59457100921593" lon="8.934623415230892"><ele>204.79999999999998</ele><time>2026-03-28T10:36:46Z</time></trkpt><trkpt lat="45.59449423468158" lon="8.934539376686134"><ele>204.0</ele><time>2026-03-28T10:36:47Z</time></trkpt><trkpt lat="45.59442295388423" lon="8.934450873769423"><ele>203.6</ele><time>2026-03-28T10:36:48Z</time></trkpt><trkpt lat="45.59434842966076" lon="8.934344088361575"><ele>203.2</ele><time>2026-03-28T10:36:49Z</time></trkpt><trkpt lat="45.59426606739885" lon="8.934247089744016"><ele>202.79999999999998</ele><time>2026-03-28T10:36:50Z</time></trkpt><trkpt lat="45.59418640455854" lon="8.93414901807083"><ele>202.39999999999998</ele><time>2026-03-28T10:36:51Z</time></trkpt><trkpt lat="45.59411395200597" lon="8.934052991691871"><ele>202.0</ele><time>2026-03-28T10:36:52Z</time></trkpt><trkpt lat="45.594041074267714" lon="8.933970026192446"><ele>201.99999999999997</ele><time>2026-03-28T10:36:53Z</time></trkpt><trkpt lat="45.593966467883966" lon="8.933896181010638"><ele>202.0</ele><time>2026-03-28T10:36:54Z</time></trkpt><trkpt lat="45.59390254315201" lon="8.93380793865127"><ele>202.0</ele><time>2026-03-28T10:36:55Z</time></trkpt><trkpt lat="45.59383675553929" lon="8.93373228607529"><ele>202.0</ele><time>2026-03-28T10:36:56Z</time></trkpt><trkpt lat="45.593772061385664" lon="8.933662782255936"><ele>201.99999999999997</ele><time>2026-03-28T10:36:57Z</time></trkpt><trkpt lat="45.59371058588482" lon="8.933604121603494"><ele>202.0</ele><time>2026-03-28T10:36:57.999Z</time></trkpt><trkpt lat="45.59362289787744" lon="8.933522505553126"><ele>201.99999999999997</ele><time>2026-03-28T10:36:59.999Z</time></trkpt><trkpt lat="45.59357009582422" lon="8.933470031300493"><ele>202.0</ele><time>2026-03-28T10:37:02.999Z</time></trkpt><trkpt lat="45.593504493054475" lon="8.933370330871679"><ele>202.0</ele><time>2026-03-28T10:37:04.999Z</time></trkpt><trkpt lat="45.59348010220034" lon="8.933285633463914"><ele>202.0</ele><time>2026-03-28T10:37:05.999Z</time></trkpt><trkpt lat="45.593478702907895" lon="8.933171360510586"><ele>201.99999999999997</ele><time>2026-03-28T10:37:06.999Z</time></trkpt><trkpt lat="45.59349776643653" lon="8.933037420688425"><ele>202.0</ele><time>2026-03-28T10:37:07.999Z</time></trkpt><trkpt lat="45.593540953275" lon="8.932910084876466"><ele>201.6</ele><time>2026-03-28T10:37:08.999Z</time></trkpt><trkpt lat="45.59359407382308" lon="8.932768401027817"><ele>201.2</ele><time>2026-03-28T10:37:09.999Z</time></trkpt><trkpt lat="45.593641010570224" lon="8.932628413826706"><ele>200.8</ele><time>2026-03-28T10:37:10.999Z</time></trkpt><trkpt lat="45.5936782592303" lon="8.932498035961178"><ele>200.4</ele><time>2026-03-28T10:37:11.999Z</time></trkpt><trkpt lat="45.59372495038542" lon="8.932365291121313"><ele>200.0</ele><time>2026-03-28T10:37:12.999Z</time></trkpt><trkpt lat="45.593768514136826" lon="8.932231302813292"><ele>200.0</ele><time>2026-03-28T10:37:13.999Z</time></trkpt><trkpt lat="45.59381610852406" lon="8.932098009380756"><ele>200.0</ele><time>2026-03-28T10:37:14.999Z</time></trkpt><trkpt lat="45.59385269419293" lon="8.931960891653643"><ele>200.0</ele><time>2026-03-28T10:37:15.999Z</time></trkpt><trkpt lat="45.59389139087704" lon="8.931816639778523"><ele>200.0</ele><time>2026-03-28T10:37:16.999Z</time></trkpt><trkpt lat="45.59392938548877" lon="8.93166896431717"><ele>200.0</ele><time>2026-03-28T10:37:17.999Z</time></trkpt><trkpt lat="45.593988541497005" lon="8.93152830526839"><ele>200.0</ele><time>2026-03-28T10:37:18.999Z</time></trkpt><trkpt lat="45.59402243256849" lon="8.931359212849307"><ele>200.0</ele><time>2026-03-28T10:37:19.999Z</time></trkpt><trkpt lat="45.594100954905485" lon="8.93120640276531"><ele>200.0</ele><time>2026-03-28T10:37:20.999Z</time></trkpt><trkpt lat="45.594152707565854" lon="8.931043902203985"><ele>200.0</ele><time>2026-03-28T10:37:21.999Z</time></trkpt><trkpt lat="45.594202635205676" lon="8.930885887582063"><ele>200.5</ele><time>2026-03-28T10:37:22.999Z</time></trkpt><trkpt lat="45.594253999708314" lon="8.93072294763998"><ele>201.0</ele><time>2026-03-28T10:37:23.999Z</time></trkpt><trkpt lat="45.59429186048205" lon="8.93054640839697"><ele>201.5</ele><time>2026-03-28T10:37:24.999Z</time></trkpt><trkpt lat="45.59433332550711" lon="8.930386238736705"><ele>202.0</ele><time>2026-03-28T10:37:25.999Z</time></trkpt><trkpt lat="45.5943772230654" lon="8.930224551249617"><ele>202.0</ele><time>2026-03-28T10:37:26.999Z</time></trkpt><trkpt lat="45.59442802348418" lon="8.930058133414546"><ele>202.0</ele><time>2026-03-28T10:37:27.999Z</time></trkpt><trkpt lat="45.59447492611339" lon="8.929898789979125"><ele>202.0</ele><time>2026-03-28T10:37:28.999Z</time></trkpt><trkpt lat="45.59451782818506" lon="8.92974145901683"><ele>202.0</ele><time>2026-03-28T10:37:29.999Z</time></trkpt><trkpt lat="45.59455614292451" lon="8.929599049323793"><ele>202.5</ele><time>2026-03-28T10:37:30.999Z</time></trkpt><trkpt lat="45.59459489173476" lon="8.929442790517047"><ele>203.0</ele><time>2026-03-28T10:37:31.999Z</time></trkpt><trkpt lat="45.594640386090155" lon="8.929264960777937"><ele>203.5</ele><time>2026-03-28T10:37:32.999Z</time></trkpt><trkpt lat="45.594702421642516" lon="8.929121325611641"><ele>204.0</ele><time>2026-03-28T10:37:33.999Z</time></trkpt><trkpt lat="45.594748949692544" lon="8.928953853662444"><ele>204.0</ele><time>2026-03-28T10:37:34.999Z</time></trkpt><trkpt lat="45.59479538625567" lon="8.928784046973854"><ele>204.0</ele><time>2026-03-28T10:37:35.999Z</time></trkpt><trkpt lat="45.59484099163948" lon="8.928622333521213"><ele>204.0</ele><time>2026-03-28T10:37:36.999Z</time></trkpt><trkpt lat="45.59488964085936" lon="8.92846519363875"><ele>204.0</ele><time>2026-03-28T10:37:37.999Z</time></trkpt><trkpt lat="45.594932762691386" lon="8.928310835516225"><ele>203.75</ele><time>2026-03-28T10:37:38.999Z</time></trkpt><trkpt lat="45.5949769071942" lon="8.928165496457929"><ele>203.5</ele><time>2026-03-28T10:37:39.999Z</time></trkpt><trkpt lat="45.5950203247014" lon="8.92801236666354"><ele>203.25</ele><time>2026-03-28T10:37:40.999Z</time></trkpt><trkpt lat="45.59507216402968" lon="8.927850853186358"><ele>203.0</ele><time>2026-03-28T10:37:41.999Z</time></trkpt><trkpt lat="45.595121367591766" lon="8.92768602127808"><ele>202.5</ele><time>2026-03-28T10:37:42.999Z</time></trkpt><trkpt lat="45.595172212147" lon="8.927516318682988"><ele>202.0</ele><time>2026-03-28T10:37:43.999Z</time></trkpt><trkpt lat="45.5952201283089" lon="8.927350181544417"><ele>201.5</ele><time>2026-03-28T10:37:44.999Z</time></trkpt><trkpt lat="45.59526143205419" lon="8.927202375878213"><ele>201.0</ele><time>2026-03-28T10:37:45.999Z</time></trkpt><trkpt lat="45.595312377179255" lon="8.927026850435738"><ele>201.75</ele><time>2026-03-28T10:37:46.999Z</time></trkpt><trkpt lat="45.59536842794446" lon="8.926859244899301"><ele>202.5</ele><time>2026-03-28T10:37:47.999Z</time></trkpt><trkpt lat="45.59542448559337" lon="8.92667823257046"><ele>203.25</ele><time>2026-03-28T10:37:48.999Z</time></trkpt><trkpt lat="45.59547300875442" lon="8.926508473829834"><ele>204.0</ele><time>2026-03-28T10:37:49.999Z</time></trkpt><trkpt lat="45.59551941702759" lon="8.926303917735323"><ele>204.0</ele><time>2026-03-28T10:37:50.999Z</time></trkpt><trkpt lat="45.59557219049248" lon="8.926133699157118"><ele>204.0</ele><time>2026-03-28T10:37:51.999Z</time></trkpt><trkpt lat="45.595616209818736" lon="8.925963232118555"><ele>204.0</ele><time>2026-03-28T10:37:52.999Z</time></trkpt><trkpt lat="45.59567279801489" lon="8.925786871150958"><ele>204.0</ele><time>2026-03-28T10:37:53.999Z</time></trkpt><trkpt lat="45.59572738396381" lon="8.925608507870157"><ele>203.75</ele><time>2026-03-28T10:37:54.999Z</time></trkpt><trkpt lat="45.595778969934365" lon="8.925430325342923"><ele>203.5</ele><time>2026-03-28T10:37:55.999Z</time></trkpt><trkpt lat="45.59584515834259" lon="8.925272675951422"><ele>203.25</ele><time>2026-03-28T10:37:57Z</time></trkpt><trkpt lat="45.59589305312012" lon="8.92511592337751"><ele>203.0</ele><time>2026-03-28T10:37:58Z</time></trkpt><trkpt lat="45.595940206586015" lon="8.92496159699348"><ele>203.0</ele><time>2026-03-28T10:37:59Z</time></trkpt><trkpt lat="45.59598992653097" lon="8.924799746946707"><ele>203.0</ele><time>2026-03-28T10:38:00Z</time></trkpt><trkpt lat="45.59604008901996" lon="8.924635689607339"><ele>203.0</ele><time>2026-03-28T10:38:01Z</time></trkpt><trkpt lat="45.59608453241292" lon="8.924490167242652"><ele>203.0</ele><time>2026-03-28T10:38:02Z</time></trkpt><trkpt lat="45.596128687976815" lon="8.92434605503718"><ele>203.4</ele><time>2026-03-28T10:38:03Z</time></trkpt><trkpt lat="45.5961567969758" lon="8.924196917563384"><ele>203.8</ele><time>2026-03-28T10:38:04Z</time></trkpt><trkpt lat="45.59620462590726" lon="8.924054838719764"><ele>204.2</ele><time>2026-03-28T10:38:05Z</time></trkpt><trkpt lat="45.596248633588964" lon="8.92392074422315"><ele>204.6</ele><time>2026-03-28T10:38:06Z</time></trkpt><trkpt lat="45.59629090113642" lon="8.923808734761204"><ele>205.0</ele><time>2026-03-28T10:38:07Z</time></trkpt><trkpt lat="45.59632837125346" lon="8.923698988940561"><ele>205.0</ele><time>2026-03-28T10:38:08Z</time></trkpt><trkpt lat="45.59637306002454" lon="8.923562059200682"><ele>205.0</ele><time>2026-03-28T10:38:10Z</time></trkpt><trkpt lat="45.5963990529835" lon="8.923475147377905"><ele>205.0</ele><time>2026-03-28T10:38:13Z</time></trkpt><trkpt lat="45.59642703311158" lon="8.923384753048762"><ele>205.0</ele><time>2026-03-28T10:38:16Z</time></trkpt><trkpt lat="45.59648815963664" lon="8.923258414117825"><ele>205.0</ele><time>2026-03-28T10:38:18Z</time></trkpt><trkpt lat="45.59650515606279" lon="8.923106291115111"><ele>204.66666666666666</ele><time>2026-03-28T10:38:20Z</time></trkpt><trkpt lat="45.596516243047134" lon="8.923008413971763"><ele>204.33333333333331</ele><time>2026-03-28T10:38:21Z</time></trkpt><trkpt lat="45.596584996931796" lon="8.922956976429504"><ele>204.0</ele><time>2026-03-28T10:38:22Z</time></trkpt><trkpt lat="45.59662504805331" lon="8.922855362243798"><ele>203.66666666666669</ele><time>2026-03-28T10:38:23Z</time></trkpt><trkpt lat="45.596684254935596" lon="8.922763893992974"><ele>203.33333333333334</ele><time>2026-03-28T10:38:24Z</time></trkpt><trkpt lat="45.59675487355979" lon="8.922659506791533"><ele>203.0</ele><time>2026-03-28T10:38:25Z</time></trkpt><trkpt lat="45.596817394566976" lon="8.922582690694156"><ele>202.83333333333334</ele><time>2026-03-28T10:38:26Z</time></trkpt><trkpt lat="45.59686735538945" lon="8.922497318841772"><ele>202.66666666666669</ele><time>2026-03-28T10:38:27Z</time></trkpt><trkpt lat="45.59694970652276" lon="8.922357519202723"><ele>202.5</ele><time>2026-03-28T10:38:29Z</time></trkpt><trkpt lat="45.59700236716521" lon="8.922268071599277"><ele>202.33333333333331</ele><time>2026-03-28T10:38:30Z</time></trkpt><trkpt lat="45.59705133499439" lon="8.922186261868744"><ele>202.16666666666666</ele><time>2026-03-28T10:38:31Z</time></trkpt><trkpt lat="45.59710726497599" lon="8.922114258849128"><ele>202.0</ele><time>2026-03-28T10:38:32Z</time></trkpt><trkpt lat="45.59720652152535" lon="8.922007538687513"><ele>202.2</ele><time>2026-03-28T10:38:34Z</time></trkpt><trkpt lat="45.59725981590448" lon="8.921931924400521"><ele>202.39999999999998</ele><time>2026-03-28T10:38:35Z</time></trkpt><trkpt lat="45.59733250470461" lon="8.921838304965966"><ele>202.60000000000002</ele><time>2026-03-28T10:38:36Z</time></trkpt><trkpt lat="45.597414547062655" lon="8.92174540865374"><ele>202.8</ele><time>2026-03-28T10:38:37Z</time></trkpt><trkpt lat="45.59748733194055" lon="8.921655294361157"><ele>203.0</ele><time>2026-03-28T10:38:38Z</time></trkpt><trkpt lat="45.59754690133913" lon="8.921550677458947"><ele>203.0</ele><time>2026-03-28T10:38:39Z</time></trkpt><trkpt lat="45.59758585497086" lon="8.921468738968942"><ele>203.0</ele><time>2026-03-28T10:38:40Z</time></trkpt><trkpt lat="45.597658410414255" lon="8.921348756257814"><ele>203.0</ele><time>2026-03-28T10:38:42Z</time></trkpt><trkpt lat="45.59772328424951" lon="8.921248439640697"><ele>203.0</ele><time>2026-03-28T10:38:44Z</time></trkpt><trkpt lat="45.597792785898264" lon="8.921129540180148"><ele>203.0</ele><time>2026-03-28T10:38:46Z</time></trkpt><trkpt lat="45.59787653030449" lon="8.921036379649442"><ele>203.0</ele><time>2026-03-28T10:38:48Z</time></trkpt><trkpt lat="45.597953480712455" lon="8.920928957625252"><ele>203.0</ele><time>2026-03-28T10:38:50Z</time></trkpt><trkpt lat="45.59799690663947" lon="8.920853887719979"><ele>203.0</ele><time>2026-03-28T10:38:51Z</time></trkpt><trkpt lat="45.59809531978483" lon="8.920718237173258"><ele>203.0</ele><time>2026-03-28T10:38:53Z</time></trkpt><trkpt lat="45.59816327528681" lon="8.920633302841827"><ele>203.0</ele><time>2026-03-28T10:38:54Z</time></trkpt><trkpt lat="45.59823985251321" lon="8.920537442600644"><ele>203.33333333333334</ele><time>2026-03-28T10:38:55Z</time></trkpt><trkpt lat="45.59829757286481" lon="8.920458038594818"><ele>203.66666666666669</ele><time>2026-03-28T10:38:56Z</time></trkpt><trkpt lat="45.59837001314635" lon="8.920356977948778"><ele>204.0</ele><time>2026-03-28T10:38:58Z</time></trkpt><trkpt lat="45.598393161509904" lon="8.920262781531212"><ele>204.33333333333331</ele><time>2026-03-28T10:39:00Z</time></trkpt><trkpt lat="45.598459765783915" lon="8.920161217623802"><ele>204.66666666666666</ele><time>2026-03-28T10:39:02Z</time></trkpt><trkpt lat="45.59854415541488" lon="8.920111597925859"><ele>205.0</ele><time>2026-03-28T10:39:03Z</time></trkpt><trkpt lat="45.59861341659501" lon="8.920014022492596"><ele>205.0</ele><time>2026-03-28T10:39:04Z</time></trkpt><trkpt lat="45.59868430715868" lon="8.91991605881382"><ele>205.0</ele><time>2026-03-28T10:39:05Z</time></trkpt><trkpt lat="45.59875420916377" lon="8.919820825431543"><ele>205.0</ele><time>2026-03-28T10:39:06Z</time></trkpt><trkpt lat="45.598811917996535" lon="8.9197422039621"><ele>205.0</ele><time>2026-03-28T10:39:07Z</time></trkpt><trkpt lat="45.598842931187455" lon="8.919635309673765"><ele>205.0</ele><time>2026-03-28T10:39:08Z</time></trkpt><trkpt lat="45.59894223577019" lon="8.919515824967215"><ele>205.0</ele><time>2026-03-28T10:39:09.999Z</time></trkpt><trkpt lat="45.59900356178603" lon="8.919476877558836"><ele>205.0</ele><time>2026-03-28T10:39:10.999Z</time></trkpt><trkpt lat="45.59906695624478" lon="8.919439550414957"><ele>205.0</ele><time>2026-03-28T10:39:11.999Z</time></trkpt><trkpt lat="45.59913358218602" lon="8.919308119562151"><ele>205.0</ele><time>2026-03-28T10:39:13.999Z</time></trkpt><trkpt lat="45.59919328154394" lon="8.919193288485094"><ele>205.0</ele><time>2026-03-28T10:39:15.999Z</time></trkpt><trkpt lat="45.59930285464066" lon="8.91908857069443"><ele>204.83333333333331</ele><time>2026-03-28T10:39:17.999Z</time></trkpt><trkpt lat="45.59935476838083" lon="8.919018752288043"><ele>204.66666666666666</ele><time>2026-03-28T10:39:18.999Z</time></trkpt><trkpt lat="45.59941350174769" lon="8.918939934741873"><ele>204.5</ele><time>2026-03-28T10:39:19.999Z</time></trkpt><trkpt lat="45.5994712266586" lon="8.918862714356154"><ele>204.33333333333331</ele><time>2026-03-28T10:39:20.999Z</time></trkpt><trkpt lat="45.59953739876904" lon="8.918774193900132"><ele>204.16666666666666</ele><time>2026-03-28T10:39:21.999Z</time></trkpt><trkpt lat="45.599590612444246" lon="8.918703285413514"><ele>204.0</ele><time>2026-03-28T10:39:22.999Z</time></trkpt><trkpt lat="45.59964036509002" lon="8.918637900839448"><ele>204.0</ele><time>2026-03-28T10:39:23.999Z</time></trkpt><trkpt lat="45.59972918458924" lon="8.918525639158034"><ele>204.0</ele><time>2026-03-28T10:39:25.999Z</time></trkpt><trkpt lat="45.599780755288194" lon="8.918461895859387"><ele>204.0</ele><time>2026-03-28T10:39:26.999Z</time></trkpt><trkpt lat="45.59988182234863" lon="8.9183402291872"><ele>204.0</ele><time>2026-03-28T10:39:28.999Z</time></trkpt><trkpt lat="45.59993671784445" lon="8.918251169536694"><ele>204.0</ele><time>2026-03-28T10:39:29.999Z</time></trkpt><trkpt lat="45.60001960416999" lon="8.918158145155234"><ele>204.0</ele><time>2026-03-28T10:39:30.999Z</time></trkpt><trkpt lat="45.60011984472817" lon="8.918057296446213"><ele>204.0</ele><time>2026-03-28T10:39:31.999Z</time></trkpt><trkpt lat="45.600211740116116" lon="8.917949265592235"><ele>204.0</ele><time>2026-03-28T10:39:32.999Z</time></trkpt><trkpt lat="45.60030609510072" lon="8.9178395380473"><ele>204.0</ele><time>2026-03-28T10:39:33.999Z</time></trkpt><trkpt lat="45.60040386007046" lon="8.91772689385154"><ele>204.0</ele><time>2026-03-28T10:39:34.999Z</time></trkpt><trkpt lat="45.600498101494196" lon="8.91761985479987"><ele>204.0</ele><time>2026-03-28T10:39:35.999Z</time></trkpt><trkpt lat="45.60058201083543" lon="8.917524550798577"><ele>204.0</ele><time>2026-03-28T10:39:36.999Z</time></trkpt><trkpt lat="45.60066127615847" lon="8.917431844016777"><ele>204.0</ele><time>2026-03-28T10:39:37.999Z</time></trkpt><trkpt lat="45.600715655326475" lon="8.917344051374089"><ele>204.0</ele><time>2026-03-28T10:39:38.999Z</time></trkpt><trkpt lat="45.60078056908131" lon="8.917268723947757"><ele>204.0</ele><time>2026-03-28T10:39:39.999Z</time></trkpt><trkpt lat="45.60083837696524" lon="8.917189432516178"><ele>204.0</ele><time>2026-03-28T10:39:40.999Z</time></trkpt><trkpt lat="45.60088742822861" lon="8.917116741618107"><ele>204.0</ele><time>2026-03-28T10:39:41.999Z</time></trkpt><trkpt lat="45.600952221968384" lon="8.917032218482456"><ele>204.0</ele><time>2026-03-28T10:39:42.999Z</time></trkpt><trkpt lat="45.6010178315412" lon="8.916901090755722"><ele>204.0</ele><time>2026-03-28T10:39:43.999Z</time></trkpt><trkpt lat="45.601085152231235" lon="8.91681181460018"><ele>204.0</ele><time>2026-03-28T10:39:44.999Z</time></trkpt><trkpt lat="45.60115658023166" lon="8.916737737256716"><ele>204.28571428571428</ele><time>2026-03-28T10:39:45.999Z</time></trkpt><trkpt lat="45.60124548487323" lon="8.916714141704459"><ele>204.57142857142858</ele><time>2026-03-28T10:39:46.999Z</time></trkpt><trkpt lat="45.601312358707126" lon="8.916647830678713"><ele>204.85714285714283</ele><time>2026-03-28T10:39:47.999Z</time></trkpt><trkpt lat="45.60136472458634" lon="8.916569044915537"><ele>205.14285714285714</ele><time>2026-03-28T10:39:48.999Z</time></trkpt><trkpt lat="45.601421872889894" lon="8.916514378176648"><ele>205.42857142857142</ele><time>2026-03-28T10:39:49.999Z</time></trkpt><trkpt lat="45.60147434780654" lon="8.916463155712117"><ele>205.7142857142857</ele><time>2026-03-28T10:39:50.999Z</time></trkpt><trkpt lat="45.601526938232695" lon="8.916411118002017"><ele>206.0</ele><time>2026-03-28T10:39:51.999Z</time></trkpt><trkpt lat="45.60159797557621" lon="8.916388015127282"><ele>206.00000000000003</ele><time>2026-03-28T10:39:52.999Z</time></trkpt><trkpt lat="45.60166128536758" lon="8.916329012392707"><ele>206.0</ele><time>2026-03-28T10:39:53.999Z</time></trkpt><trkpt lat="45.60170072384131" lon="8.916197672422602"><ele>206.0</ele><time>2026-03-28T10:39:54.999Z</time></trkpt><trkpt lat="45.601764941671355" lon="8.916129395335552"><ele>206.0</ele><time>2026-03-28T10:39:55.999Z</time></trkpt><trkpt lat="45.60183398492486" lon="8.916067751559295"><ele>206.00000000000003</ele><time>2026-03-28T10:39:56.999Z</time></trkpt><trkpt lat="45.601901687054124" lon="8.915981015951237"><ele>206.0</ele><time>2026-03-28T10:39:57.999Z</time></trkpt><trkpt lat="45.60197856283374" lon="8.915905830549038"><ele>206.0</ele><time>2026-03-28T10:39:58.999Z</time></trkpt><trkpt lat="45.60205599347519" lon="8.915848249891154"><ele>206.0</ele><time>2026-03-28T10:39:59.999Z</time></trkpt><trkpt lat="45.602134050156145" lon="8.91576402338643"><ele>206.0</ele><time>2026-03-28T10:40:00.999Z</time></trkpt><trkpt lat="45.60221808775107" lon="8.915660467401857"><ele>206.0</ele><time>2026-03-28T10:40:01.999Z</time></trkpt><trkpt lat="45.60235523711877" lon="8.915747138324857"><ele>206.0</ele><time>2026-03-28T10:40:03Z</time></trkpt><trkpt lat="45.60243626889981" lon="8.91569409226031"><ele>206.0</ele><time>2026-03-28T10:40:04Z</time></trkpt><trkpt lat="45.60251957672514" lon="8.915636625074853"><ele>206.0</ele><time>2026-03-28T10:40:05Z</time></trkpt><trkpt lat="45.602609566786924" lon="8.915573338987873"><ele>206.0</ele><time>2026-03-28T10:40:06Z</time></trkpt><trkpt lat="45.60269872588335" lon="8.915510257826877"><ele>206.0</ele><time>2026-03-28T10:40:07Z</time></trkpt><trkpt lat="45.60278933731411" lon="8.915446178996344"><ele>206.0</ele><time>2026-03-28T10:40:08Z</time></trkpt><trkpt lat="45.60287771465042" lon="8.915383694529716"><ele>206.20000000000002</ele><time>2026-03-28T10:40:09Z</time></trkpt><trkpt lat="45.60295721812547" lon="8.915327484148493"><ele>206.4</ele><time>2026-03-28T10:40:10Z</time></trkpt><trkpt lat="45.60302951582514" lon="8.91527662049772"><ele>206.6</ele><time>2026-03-28T10:40:11Z</time></trkpt><trkpt lat="45.6031037587155" lon="8.915224728507438"><ele>206.8</ele><time>2026-03-28T10:40:12Z</time></trkpt><trkpt lat="45.60321629654049" lon="8.915146070165932"><ele>207.0</ele><time>2026-03-28T10:40:14Z</time></trkpt><trkpt lat="45.60329297514468" lon="8.915092477233701"><ele>206.8</ele><time>2026-03-28T10:40:15Z</time></trkpt><trkpt lat="45.60338273638844" lon="8.915029756027623"><ele>206.6</ele><time>2026-03-28T10:40:16Z</time></trkpt><trkpt lat="45.60347025791948" lon="8.914968597822352"><ele>206.4</ele><time>2026-03-28T10:40:17Z</time></trkpt><trkpt lat="45.60356448600111" lon="8.914902382756653"><ele>206.20000000000002</ele><time>2026-03-28T10:40:18Z</time></trkpt><trkpt lat="45.603658193816294" lon="8.91479679199017"><ele>206.0</ele><time>2026-03-28T10:40:19Z</time></trkpt><trkpt lat="45.60377473467756" lon="8.914718246746052"><ele>206.5</ele><time>2026-03-28T10:40:20Z</time></trkpt><trkpt lat="45.60388734280934" lon="8.91461450823594"><ele>207.0</ele><time>2026-03-28T10:40:21Z</time></trkpt><trkpt lat="45.60400425430695" lon="8.914533238430929"><ele>207.5</ele><time>2026-03-28T10:40:22Z</time></trkpt><trkpt lat="45.60413585605425" lon="8.914497441365604"><ele>208.0</ele><time>2026-03-28T10:40:23Z</time></trkpt><trkpt lat="45.604250969747845" lon="8.914412351429466"><ele>208.0</ele><time>2026-03-28T10:40:24Z</time></trkpt><trkpt lat="45.604359330472725" lon="8.914349338405218"><ele>208.0</ele><time>2026-03-28T10:40:25Z</time></trkpt><trkpt lat="45.60446535188556" lon="8.914261475384519"><ele>208.0</ele><time>2026-03-28T10:40:26Z</time></trkpt><trkpt lat="45.60456744425006" lon="8.91416767728855"><ele>208.0</ele><time>2026-03-28T10:40:27Z</time></trkpt><trkpt lat="45.60465931460447" lon="8.914061538830197"><ele>207.75</ele><time>2026-03-28T10:40:28Z</time></trkpt><trkpt lat="45.60475576907544" lon="8.91393861885692"><ele>207.5</ele><time>2026-03-28T10:40:29Z</time></trkpt><trkpt lat="45.60485254287808" lon="8.913807585470991"><ele>207.25</ele><time>2026-03-28T10:40:30Z</time></trkpt><trkpt lat="45.60493928354247" lon="8.91369030547621"><ele>207.0</ele><time>2026-03-28T10:40:31Z</time></trkpt><trkpt lat="45.605026577258265" lon="8.913568053259228"><ele>207.0</ele><time>2026-03-28T10:40:32Z</time></trkpt><trkpt lat="45.60511069049381" lon="8.913447227439045"><ele>207.0</ele><time>2026-03-28T10:40:33Z</time></trkpt><trkpt lat="45.60519503328625" lon="8.913326508209584"><ele>207.0</ele><time>2026-03-28T10:40:34Z</time></trkpt><trkpt lat="45.60528845125855" lon="8.913212352728728"><ele>207.0</ele><time>2026-03-28T10:40:35Z</time></trkpt><trkpt lat="45.60536935457198" lon="8.913087837296702"><ele>207.0</ele><time>2026-03-28T10:40:36Z</time></trkpt><trkpt lat="45.60544583516233" lon="8.912987723253616"><ele>207.0</ele><time>2026-03-28T10:40:37Z</time></trkpt><trkpt lat="45.60551559480462" lon="8.91288834525294"><ele>207.0</ele><time>2026-03-28T10:40:38Z</time></trkpt><trkpt lat="45.60558197298512" lon="8.912795842888395"><ele>207.0</ele><time>2026-03-28T10:40:39Z</time></trkpt><trkpt lat="45.605644746274365" lon="8.912707104012282"><ele>207.0</ele><time>2026-03-28T10:40:40Z</time></trkpt><trkpt lat="45.60570130596623" lon="8.912630995488852"><ele>206.83333333333334</ele><time>2026-03-28T10:40:41Z</time></trkpt><trkpt lat="45.60575290923811" lon="8.912555579946009"><ele>206.66666666666669</ele><time>2026-03-28T10:40:42Z</time></trkpt><trkpt lat="45.60579978909535" lon="8.91248616552643"><ele>206.5</ele><time>2026-03-28T10:40:43Z</time></trkpt><trkpt lat="45.60588498754534" lon="8.912348911829989"><ele>206.33333333333334</ele><time>2026-03-28T10:40:45Z</time></trkpt><trkpt lat="45.60592342503836" lon="8.91227565199105"><ele>206.16666666666669</ele><time>2026-03-28T10:40:46Z</time></trkpt><trkpt lat="45.605963267656435" lon="8.912200992529643"><ele>206.0</ele><time>2026-03-28T10:40:47Z</time></trkpt><trkpt lat="45.60601366769161" lon="8.91212430901956"><ele>206.0</ele><time>2026-03-28T10:40:48Z</time></trkpt><trkpt lat="45.606069831248035" lon="8.912044358576166"><ele>206.0</ele><time>2026-03-28T10:40:49Z</time></trkpt><trkpt lat="45.60613376860159" lon="8.91195369278435"><ele>206.0</ele><time>2026-03-28T10:40:50Z</time></trkpt><trkpt lat="45.60619664879549" lon="8.911847304731914"><ele>206.0</ele><time>2026-03-28T10:40:51Z</time></trkpt><trkpt lat="45.60626780847266" lon="8.91173645925237"><ele>206.0</ele><time>2026-03-28T10:40:52Z</time></trkpt><trkpt lat="45.60633053302758" lon="8.91161327988751"><ele>206.60000000000002</ele><time>2026-03-28T10:40:53Z</time></trkpt><trkpt lat="45.60639340745733" lon="8.911481071271592"><ele>207.2</ele><time>2026-03-28T10:40:54Z</time></trkpt><trkpt lat="45.60645678880404" lon="8.911346127094697"><ele>207.8</ele><time>2026-03-28T10:40:55Z</time></trkpt><trkpt lat="45.606521051546515" lon="8.911226994866078"><ele>208.39999999999998</ele><time>2026-03-28T10:40:56Z</time></trkpt><trkpt lat="45.60658583842425" lon="8.91110082458504"><ele>209.0</ele><time>2026-03-28T10:40:57Z</time></trkpt><trkpt lat="45.6066489237374" lon="8.910992231718748"><ele>208.79999999999998</ele><time>2026-03-28T10:40:58Z</time></trkpt><trkpt lat="45.60670941266573" lon="8.91087294505473"><ele>208.6</ele><time>2026-03-28T10:40:59Z</time></trkpt><trkpt lat="45.606765971069294" lon="8.910755303613115"><ele>208.4</ele><time>2026-03-28T10:41:00Z</time></trkpt><trkpt lat="45.60681407841902" lon="8.910643542506012"><ele>208.2</ele><time>2026-03-28T10:41:01Z</time></trkpt><trkpt lat="45.60685973601519" lon="8.910529047742761"><ele>208.0</ele><time>2026-03-28T10:41:02Z</time></trkpt><trkpt lat="45.60690774857824" lon="8.910415543806534"><ele>207.99999999999997</ele><time>2026-03-28T10:41:03Z</time></trkpt><trkpt lat="45.60695788791433" lon="8.91031766014438"><ele>208.0</ele><time>2026-03-28T10:41:04Z</time></trkpt><trkpt lat="45.60700272341708" lon="8.91022986525879"><ele>208.0</ele><time>2026-03-28T10:41:05Z</time></trkpt><trkpt lat="45.607046628788005" lon="8.910130697820952"><ele>208.0</ele><time>2026-03-28T10:41:06Z</time></trkpt><trkpt lat="45.60709951313813" lon="8.910035373456592"><ele>207.99999999999997</ele><time>2026-03-28T10:41:07Z</time></trkpt><trkpt lat="45.60714048453578" lon="8.909936790683888"><ele>208.0</ele><time>2026-03-28T10:41:08Z</time></trkpt><trkpt lat="45.60717217187647" lon="8.90984179768538"><ele>208.49999999999997</ele><time>2026-03-28T10:41:08.999Z</time></trkpt><trkpt lat="45.60721193187916" lon="8.909748248651336"><ele>209.0</ele><time>2026-03-28T10:41:09.999Z</time></trkpt><trkpt lat="45.60725245971019" lon="8.909643659332227"><ele>209.5</ele><time>2026-03-28T10:41:10.999Z</time></trkpt><trkpt lat="45.60727849212486" lon="8.909558813495083"><ele>210.0</ele><time>2026-03-28T10:41:11.999Z</time></trkpt><trkpt lat="45.60730443175212" lon="8.909476631903056"><ele>210.49999999999997</ele><time>2026-03-28T10:41:12.999Z</time></trkpt><trkpt lat="45.607372223243836" lon="8.909372889759206"><ele>211.0</ele><time>2026-03-28T10:41:14.999Z</time></trkpt><trkpt lat="45.60746036291485" lon="8.909285365421058"><ele>210.66666666666666</ele><time>2026-03-28T10:41:16.999Z</time></trkpt><trkpt lat="45.60752202709736" lon="8.909143342339126"><ele>210.33333333333331</ele><time>2026-03-28T10:41:18.999Z</time></trkpt><trkpt lat="45.60751054852617" lon="8.909043971707591"><ele>210.0</ele><time>2026-03-28T10:41:19.999Z</time></trkpt><trkpt lat="45.60746382928189" lon="8.908959487247913"><ele>209.66666666666669</ele><time>2026-03-28T10:41:20.999Z</time></trkpt><trkpt lat="45.60740131672969" lon="8.908898748499631"><ele>209.33333333333334</ele><time>2026-03-28T10:41:21.999Z</time></trkpt><trkpt lat="45.60734916569943" lon="8.90883200887219"><ele>209.0</ele><time>2026-03-28T10:41:22.999Z</time></trkpt><trkpt lat="45.60731306038118" lon="8.908738206640598"><ele>209.00000000000003</ele><time>2026-03-28T10:41:23.999Z</time></trkpt><trkpt lat="45.60730629096007" lon="8.908635263249616"><ele>209.0</ele><time>2026-03-28T10:41:24.999Z</time></trkpt><trkpt lat="45.607312503763204" lon="8.908527029242984"><ele>209.0</ele><time>2026-03-28T10:41:25.999Z</time></trkpt><trkpt lat="45.607318691213194" lon="8.9084126607567"><ele>209.0</ele><time>2026-03-28T10:41:26.999Z</time></trkpt><trkpt lat="45.607339171268826" lon="8.908302222610576"><ele>209.00000000000003</ele><time>2026-03-28T10:41:27.999Z</time></trkpt><trkpt lat="45.607358904685874" lon="8.908184926451575"><ele>209.0</ele><time>2026-03-28T10:41:28.999Z</time></trkpt><trkpt lat="45.60738592743266" lon="8.908052770346124"><ele>208.50000000000003</ele><time>2026-03-28T10:41:29.999Z</time></trkpt><trkpt lat="45.607394125760635" lon="8.907925947584635"><ele>208.0</ele><time>2026-03-28T10:41:30.999Z</time></trkpt><trkpt lat="45.6073825318801" lon="8.907790358727937"><ele>207.5</ele><time>2026-03-28T10:41:31.999Z</time></trkpt><trkpt lat="45.60735431737995" lon="8.907667154041896"><ele>207.0</ele><time>2026-03-28T10:41:32.999Z</time></trkpt><trkpt lat="45.60731717317682" lon="8.907554026635442"><ele>206.50000000000003</ele><time>2026-03-28T10:41:33.999Z</time></trkpt><trkpt lat="45.60728517916183" lon="8.907439296937302"><ele>206.0</ele><time>2026-03-28T10:41:34.999Z</time></trkpt><trkpt lat="45.60725862051192" lon="8.907308168476764"><ele>206.0</ele><time>2026-03-28T10:41:35.999Z</time></trkpt><trkpt lat="45.60724497150065" lon="8.907162939802875"><ele>206.0</ele><time>2026-03-28T10:41:36.999Z</time></trkpt><trkpt lat="45.60724126167049" lon="8.907024313964616"><ele>206.0</ele><time>2026-03-28T10:41:37.999Z</time></trkpt><trkpt lat="45.60724716410485" lon="8.906891974354238"><ele>206.0</ele><time>2026-03-28T10:41:38.999Z</time></trkpt><trkpt lat="45.607267633132864" lon="8.906764580188753"><ele>206.0</ele><time>2026-03-28T10:41:39.999Z</time></trkpt><trkpt lat="45.607300036335154" lon="8.906636215400452"><ele>206.00000000000003</ele><time>2026-03-28T10:41:40.999Z</time></trkpt><trkpt lat="45.60732999828969" lon="8.90652087505613"><ele>206.0</ele><time>2026-03-28T10:41:41.999Z</time></trkpt><trkpt lat="45.60733852645378" lon="8.90641540953016"><ele>206.0</ele><time>2026-03-28T10:41:42.999Z</time></trkpt><trkpt lat="45.60734891604554" lon="8.906309123385808"><ele>206.0</ele><time>2026-03-28T10:41:43.999Z</time></trkpt><trkpt lat="45.6073079965821" lon="8.906210267926303"><ele>206.00000000000003</ele><time>2026-03-28T10:41:44.999Z</time></trkpt><trkpt lat="45.60721578132937" lon="8.906200831273502"><ele>206.0</ele><time>2026-03-28T10:41:45.999Z</time></trkpt><trkpt lat="45.60714255878925" lon="8.90618245127312"><ele>206.0</ele><time>2026-03-28T10:41:46.999Z</time></trkpt><trkpt lat="45.60707740411517" lon="8.906129802025234"><ele>206.0</ele><time>2026-03-28T10:41:47.999Z</time></trkpt><trkpt lat="45.60701829945141" lon="8.906004147560342"><ele>206.0</ele><time>2026-03-28T10:41:48.999Z</time></trkpt><trkpt lat="45.60699141498619" lon="8.905863985224727"><ele>206.0</ele><time>2026-03-28T10:41:49.999Z</time></trkpt><trkpt lat="45.60697078135727" lon="8.905706549816635"><ele>206.0</ele><time>2026-03-28T10:41:50.999Z</time></trkpt><trkpt lat="45.6069297953784" lon="8.905548833236352"><ele>206.5</ele><time>2026-03-28T10:41:51.999Z</time></trkpt><trkpt lat="45.60690655648931" lon="8.905364581230344"><ele>207.0</ele><time>2026-03-28T10:41:52.999Z</time></trkpt><trkpt lat="45.6068556729856" lon="8.905185532047787"><ele>207.5</ele><time>2026-03-28T10:41:53.999Z</time></trkpt><trkpt lat="45.60680657750968" lon="8.905013001738704"><ele>208.0</ele><time>2026-03-28T10:41:54.999Z</time></trkpt><trkpt lat="45.60675200154141" lon="8.904821004262198"><ele>209.33333333333331</ele><time>2026-03-28T10:41:55.999Z</time></trkpt><trkpt lat="45.60669454425915" lon="8.90462484045407"><ele>210.66666666666669</ele><time>2026-03-28T10:41:56.999Z</time></trkpt><trkpt lat="45.60663399497808" lon="8.904423378186252"><ele>212.0</ele><time>2026-03-28T10:41:57.999Z</time></trkpt><trkpt lat="45.60657585425786" lon="8.904229415882025"><ele>213.0</ele><time>2026-03-28T10:41:58.999Z</time></trkpt><trkpt lat="45.60651757495589" lon="8.904033975787758"><ele>214.0</ele><time>2026-03-28T10:41:59.999Z</time></trkpt><trkpt lat="45.60645639776715" lon="8.90382881757901"><ele>215.0</ele><time>2026-03-28T10:42:00.999Z</time></trkpt><trkpt lat="45.606391289061904" lon="8.903610475094741"><ele>215.33333333333334</ele><time>2026-03-28T10:42:01.999Z</time></trkpt><trkpt lat="45.6063286456297" lon="8.903402136627992"><ele>215.66666666666669</ele><time>2026-03-28T10:42:02.999Z</time></trkpt><trkpt lat="45.606266416352994" lon="8.90319616481561"><ele>216.0</ele><time>2026-03-28T10:42:03.999Z</time></trkpt><trkpt lat="45.60622428211281" lon="8.902990875325676"><ele>216.0</ele><time>2026-03-28T10:42:04.999Z</time></trkpt><trkpt lat="45.60616450299941" lon="8.902805517817482"><ele>216.0</ele><time>2026-03-28T10:42:05.999Z</time></trkpt><trkpt lat="45.60611301678728" lon="8.902638706458397"><ele>216.0</ele><time>2026-03-28T10:42:06.999Z</time></trkpt><trkpt lat="45.60606003393199" lon="8.902478093484225"><ele>216.0</ele><time>2026-03-28T10:42:07.999Z</time></trkpt><trkpt lat="45.6060071384509" lon="8.902318763189037"><ele>215.5</ele><time>2026-03-28T10:42:09Z</time></trkpt><trkpt lat="45.60596180153609" lon="8.902165527059038"><ele>215.0</ele><time>2026-03-28T10:42:10Z</time></trkpt><trkpt lat="45.60591118151897" lon="8.902010962859665"><ele>214.5</ele><time>2026-03-28T10:42:11Z</time></trkpt><trkpt lat="45.60585234802529" lon="8.901835890428156"><ele>214.0</ele><time>2026-03-28T10:42:12Z</time></trkpt><trkpt lat="45.60578944916109" lon="8.901648683154221"><ele>213.66666666666666</ele><time>2026-03-28T10:42:13Z</time></trkpt><trkpt lat="45.605725646936854" lon="8.901440710657381"><ele>213.33333333333331</ele><time>2026-03-28T10:42:14Z</time></trkpt><trkpt lat="45.60568253981582" lon="8.901211229068421"><ele>213.0</ele><time>2026-03-28T10:42:15Z</time></trkpt><trkpt lat="45.60560445888756" lon="8.901001851473735"><ele>213.33333333333331</ele><time>2026-03-28T10:42:16Z</time></trkpt><trkpt lat="45.60554172406851" lon="8.90078367205921"><ele>213.66666666666666</ele><time>2026-03-28T10:42:17Z</time></trkpt><trkpt lat="45.60547550340215" lon="8.900571341322038"><ele>214.0</ele><time>2026-03-28T10:42:18Z</time></trkpt><trkpt lat="45.60540716605716" lon="8.90035820953069"><ele>214.0</ele><time>2026-03-28T10:42:19Z</time></trkpt><trkpt lat="45.605348643428" lon="8.900142609896223"><ele>214.0</ele><time>2026-03-28T10:42:20Z</time></trkpt><trkpt lat="45.60528608161506" lon="8.899925238366523"><ele>214.0</ele><time>2026-03-28T10:42:21Z</time></trkpt><trkpt lat="45.6052225742091" lon="8.899708832601984"><ele>214.0</ele><time>2026-03-28T10:42:22Z</time></trkpt><trkpt lat="45.6051645525224" lon="8.899482692467453"><ele>214.0</ele><time>2026-03-28T10:42:23Z</time></trkpt><trkpt lat="45.60510010219762" lon="8.89928149992163"><ele>214.0</ele><time>2026-03-28T10:42:24Z</time></trkpt><trkpt lat="45.60503943965849" lon="8.899094523416005"><ele>214.25</ele><time>2026-03-28T10:42:25Z</time></trkpt><trkpt lat="45.604996917683145" lon="8.898898986772764"><ele>214.5</ele><time>2026-03-28T10:42:26Z</time></trkpt><trkpt lat="45.60494256840505" lon="8.89871571272349"><ele>214.75</ele><time>2026-03-28T10:42:27Z</time></trkpt><trkpt lat="45.6048845011655" lon="8.898519901600984"><ele>215.0</ele><time>2026-03-28T10:42:28Z</time></trkpt><trkpt lat="45.60482761265901" lon="8.89832806793949"><ele>215.33333333333334</ele><time>2026-03-28T10:42:29Z</time></trkpt><trkpt lat="45.60474644375019" lon="8.898141397212356"><ele>215.66666666666669</ele><time>2026-03-28T10:42:30Z</time></trkpt><trkpt lat="45.604689710932" lon="8.897937144211765"><ele>216.0</ele><time>2026-03-28T10:42:31Z</time></trkpt><trkpt lat="45.60462953382633" lon="8.897731617666302"><ele>216.0</ele><time>2026-03-28T10:42:32Z</time></trkpt><trkpt lat="45.60456966399977" lon="8.897526967841198"><ele>216.0</ele><time>2026-03-28T10:42:33Z</time></trkpt><trkpt lat="45.6045133289373" lon="8.897330237375595"><ele>216.0</ele><time>2026-03-28T10:42:34Z</time></trkpt><trkpt lat="45.60445483336609" lon="8.897139703310764"><ele>216.0</ele><time>2026-03-28T10:42:35Z</time></trkpt><trkpt lat="45.60439656737709" lon="8.896948192324533"><ele>216.0</ele><time>2026-03-28T10:42:36Z</time></trkpt><trkpt lat="45.60434564942259" lon="8.896770054485382"><ele>216.0</ele><time>2026-03-28T10:42:37Z</time></trkpt><trkpt lat="45.604298635658274" lon="8.896607358286143"><ele>216.0</ele><time>2026-03-28T10:42:38Z</time></trkpt><trkpt lat="45.604254123213494" lon="8.896461112763745"><ele>216.0</ele><time>2026-03-28T10:42:39Z</time></trkpt><trkpt lat="45.604202842500634" lon="8.896324597070997"><ele>215.83333333333334</ele><time>2026-03-28T10:42:40Z</time></trkpt><trkpt lat="45.6041626029508" lon="8.896201597274045"><ele>215.66666666666669</ele><time>2026-03-28T10:42:41Z</time></trkpt><trkpt lat="45.60413043788217" lon="8.896095676999996"><ele>215.5</ele><time>2026-03-28T10:42:42Z</time></trkpt><trkpt lat="45.604095687651494" lon="8.895983806652541"><ele>215.33333333333334</ele><time>2026-03-28T10:42:43Z</time></trkpt><trkpt lat="45.604061674635865" lon="8.895877122979183"><ele>215.16666666666669</ele><time>2026-03-28T10:42:44Z</time></trkpt><trkpt lat="45.604028734431196" lon="8.895768733195595"><ele>215.0</ele><time>2026-03-28T10:42:45Z</time></trkpt><trkpt lat="45.60399840418147" lon="8.895666779931002"><ele>215.0</ele><time>2026-03-28T10:42:46Z</time></trkpt><trkpt lat="45.603977301507655" lon="8.895574992533497"><ele>215.0</ele><time>2026-03-28T10:42:47Z</time></trkpt><trkpt lat="45.60394870026604" lon="8.895488055662833"><ele>215.0</ele><time>2026-03-28T10:42:48Z</time></trkpt><trkpt lat="45.603903929957184" lon="8.8953402063353"><ele>215.0</ele><time>2026-03-28T10:42:50Z</time></trkpt><trkpt lat="45.60386122440142" lon="8.895209209281816"><ele>215.0</ele><time>2026-03-28T10:42:52Z</time></trkpt><trkpt lat="45.60384009096421" lon="8.895040525977581"><ele>215.2</ele><time>2026-03-28T10:42:54Z</time></trkpt><trkpt lat="45.60377484944261" lon="8.894902101145135"><ele>215.4</ele><time>2026-03-28T10:42:56Z</time></trkpt><trkpt lat="45.60373492517601" lon="8.894758285125404"><ele>215.60000000000002</ele><time>2026-03-28T10:42:58Z</time></trkpt><trkpt lat="45.60373747017638" lon="8.894568866981636"><ele>215.8</ele><time>2026-03-28T10:43:00Z</time></trkpt><trkpt lat="45.60375520866254" lon="8.894456283916044"><ele>216.0</ele><time>2026-03-28T10:43:01Z</time></trkpt><trkpt lat="45.603781390284624" lon="8.89433606646818"><ele>216.60000000000002</ele><time>2026-03-28T10:43:02Z</time></trkpt><trkpt lat="45.603821289784165" lon="8.894217880068334"><ele>217.20000000000002</ele><time>2026-03-28T10:43:03Z</time></trkpt><trkpt lat="45.6038374556432" lon="8.89407219433221"><ele>217.79999999999998</ele><time>2026-03-28T10:43:04Z</time></trkpt><trkpt lat="45.6038316842929" lon="8.893915001241515"><ele>218.39999999999998</ele><time>2026-03-28T10:43:05Z</time></trkpt><trkpt lat="45.60382427141375" lon="8.893752315093533"><ele>219.0</ele><time>2026-03-28T10:43:06Z</time></trkpt><trkpt lat="45.60383220952377" lon="8.893612198768642"><ele>219.0</ele><time>2026-03-28T10:43:07Z</time></trkpt><trkpt lat="45.60384804536113" lon="8.893469514743055"><ele>219.0</ele><time>2026-03-28T10:43:08Z</time></trkpt><trkpt lat="45.60388251050833" lon="8.893321544926517"><ele>219.0</ele><time>2026-03-28T10:43:09Z</time></trkpt><trkpt lat="45.6039250505121" lon="8.893158742864268"><ele>219.0</ele><time>2026-03-28T10:43:10Z</time></trkpt><trkpt lat="45.60398467458687" lon="8.892994826988298"><ele>219.25</ele><time>2026-03-28T10:43:10.999Z</time></trkpt><trkpt lat="45.604055844681376" lon="8.892823356804643"><ele>219.5</ele><time>2026-03-28T10:43:11.999Z</time></trkpt><trkpt lat="45.604138642050295" lon="8.89266977714935"><ele>219.75</ele><time>2026-03-28T10:43:12.999Z</time></trkpt><trkpt lat="45.604227827158944" lon="8.892523175393967"><ele>220.0</ele><time>2026-03-28T10:43:13.999Z</time></trkpt><trkpt lat="45.60432061284181" lon="8.892390555107918"><ele>220.25</ele><time>2026-03-28T10:43:14.999Z</time></trkpt><trkpt lat="45.604428563861504" lon="8.892264667077105"><ele>220.5</ele><time>2026-03-28T10:43:15.999Z</time></trkpt><trkpt lat="45.60454066579688" lon="8.892146371302974"><ele>220.75</ele><time>2026-03-28T10:43:16.999Z</time></trkpt><trkpt lat="45.60466033625796" lon="8.892052463857345"><ele>221.0</ele><time>2026-03-28T10:43:17.999Z</time></trkpt><trkpt lat="45.604777773055176" lon="8.89196319688904"><ele>221.25</ele><time>2026-03-28T10:43:18.999Z</time></trkpt><trkpt lat="45.60489300886169" lon="8.89188044889302"><ele>221.5</ele><time>2026-03-28T10:43:19.999Z</time></trkpt><trkpt lat="45.60501377729153" lon="8.89180855578673"><ele>221.75</ele><time>2026-03-28T10:43:20.999Z</time></trkpt><trkpt lat="45.60513730786436" lon="8.89172953019393"><ele>222.0</ele><time>2026-03-28T10:43:21.999Z</time></trkpt><trkpt lat="45.60525312031344" lon="8.891653242350905"><ele>222.25</ele><time>2026-03-28T10:43:22.999Z</time></trkpt><trkpt lat="45.60536721905735" lon="8.89157723120105"><ele>222.5</ele><time>2026-03-28T10:43:23.999Z</time></trkpt><trkpt lat="45.60548119428858" lon="8.891513290480745"><ele>222.75</ele><time>2026-03-28T10:43:24.999Z</time></trkpt><trkpt lat="45.605585808196636" lon="8.891451793539732"><ele>223.0</ele><time>2026-03-28T10:43:25.999Z</time></trkpt><trkpt lat="45.6056902188257" lon="8.89138822045992"><ele>223.0</ele><time>2026-03-28T10:43:26.999Z</time></trkpt><trkpt lat="45.60578847967237" lon="8.891335296979895"><ele>223.0</ele><time>2026-03-28T10:43:27.999Z</time></trkpt><trkpt lat="45.6058834858559" lon="8.891263384676792"><ele>223.0</ele><time>2026-03-28T10:43:28.999Z</time></trkpt><trkpt lat="45.605971834448425" lon="8.891211829906702"><ele>223.0</ele><time>2026-03-28T10:43:29.999Z</time></trkpt><trkpt lat="45.606057948111264" lon="8.891156725228003"><ele>223.0</ele><time>2026-03-28T10:43:30.999Z</time></trkpt><trkpt lat="45.60613987984157" lon="8.891103582774827"><ele>223.0</ele><time>2026-03-28T10:43:31.999Z</time></trkpt><trkpt lat="45.60622464928515" lon="8.89107311153796"><ele>223.0</ele><time>2026-03-28T10:43:32.999Z</time></trkpt><trkpt lat="45.60630698619111" lon="8.890999208764375"><ele>223.0</ele><time>2026-03-28T10:43:33.999Z</time></trkpt><trkpt lat="45.606405615395424" lon="8.890967042463988"><ele>223.0</ele><time>2026-03-28T10:43:34.999Z</time></trkpt><trkpt lat="45.60649710860942" lon="8.89091470941132"><ele>223.0</ele><time>2026-03-28T10:43:35.999Z</time></trkpt><trkpt lat="45.60658906187924" lon="8.890862113332625"><ele>223.0</ele><time>2026-03-28T10:43:36.999Z</time></trkpt><trkpt lat="45.606684693754964" lon="8.890806836880763"><ele>223.0</ele><time>2026-03-28T10:43:37.999Z</time></trkpt><trkpt lat="45.60677651497561" lon="8.890792509738908"><ele>223.0</ele><time>2026-03-28T10:43:38.999Z</time></trkpt><trkpt lat="45.606873394233844" lon="8.89074319167002"><ele>223.0</ele><time>2026-03-28T10:43:39.999Z</time></trkpt><trkpt lat="45.6069566826613" lon="8.890695321194068"><ele>223.0</ele><time>2026-03-28T10:43:40.999Z</time></trkpt><trkpt lat="45.6070470353593" lon="8.890638470579889"><ele>223.0</ele><time>2026-03-28T10:43:41.999Z</time></trkpt><trkpt lat="45.60713674914029" lon="8.890586596894321"><ele>223.0</ele><time>2026-03-28T10:43:42.999Z</time></trkpt><trkpt lat="45.60723883479636" lon="8.890516664652244"><ele>223.0</ele><time>2026-03-28T10:43:43.999Z</time></trkpt><trkpt lat="45.607333570043565" lon="8.89046810337491"><ele>223.0</ele><time>2026-03-28T10:43:44.999Z</time></trkpt><trkpt lat="45.607433370473856" lon="8.890410179076815"><ele>223.0</ele><time>2026-03-28T10:43:45.999Z</time></trkpt><trkpt lat="45.60753998876432" lon="8.890344419401362"><ele>223.0</ele><time>2026-03-28T10:43:46.999Z</time></trkpt><trkpt lat="45.607644667686365" lon="8.890270371417795"><ele>223.0</ele><time>2026-03-28T10:43:47.999Z</time></trkpt><trkpt lat="45.60775400071572" lon="8.890192002415864"><ele>223.0</ele><time>2026-03-28T10:43:48.999Z</time></trkpt><trkpt lat="45.60786713978026" lon="8.890123711061218"><ele>223.0</ele><time>2026-03-28T10:43:49.999Z</time></trkpt><trkpt lat="45.60796874738691" lon="8.890058111106152"><ele>223.0</ele><time>2026-03-28T10:43:50.999Z</time></trkpt><trkpt lat="45.608074310263326" lon="8.890004656439604"><ele>223.0</ele><time>2026-03-28T10:43:51.999Z</time></trkpt><trkpt lat="45.608174746847965" lon="8.889949244253897"><ele>223.0</ele><time>2026-03-28T10:43:52.999Z</time></trkpt><trkpt lat="45.60826546680143" lon="8.889887382777784"><ele>223.0</ele><time>2026-03-28T10:43:53.999Z</time></trkpt><trkpt lat="45.60835022160567" lon="8.889839289438664"><ele>223.0</ele><time>2026-03-28T10:43:54.999Z</time></trkpt><trkpt lat="45.60842875490517" lon="8.889794481653201"><ele>222.99999999999997</ele><time>2026-03-28T10:43:55.999Z</time></trkpt><trkpt lat="45.608487071080525" lon="8.889746782353736"><ele>223.0</ele><time>2026-03-28T10:43:56.999Z</time></trkpt><trkpt lat="45.608551990187976" lon="8.889683392695314"><ele>223.0</ele><time>2026-03-28T10:43:58.999Z</time></trkpt><trkpt lat="45.6086269301672" lon="8.889639790100409"><ele>223.0</ele><time>2026-03-28T10:44:02.999Z</time></trkpt><trkpt lat="45.60870120243217" lon="8.889595384621387"><ele>222.99999999999997</ele><time>2026-03-28T10:44:04.999Z</time></trkpt><trkpt lat="45.6087663621636" lon="8.889556427295311"><ele>223.0</ele><time>2026-03-28T10:44:05.999Z</time></trkpt><trkpt lat="45.608836729182144" lon="8.889514356662481"><ele>223.2</ele><time>2026-03-28T10:44:06.999Z</time></trkpt><trkpt lat="45.608924975154416" lon="8.889461692417504"><ele>223.4</ele><time>2026-03-28T10:44:07.999Z</time></trkpt><trkpt lat="45.60902336820909" lon="8.88940299926289"><ele>223.59999999999997</ele><time>2026-03-28T10:44:08.999Z</time></trkpt><trkpt lat="45.60912661149615" lon="8.889341412888314"><ele>223.79999999999998</ele><time>2026-03-28T10:44:09.999Z</time></trkpt><trkpt lat="45.60923675933252" lon="8.889288689669046"><ele>224.0</ele><time>2026-03-28T10:44:10.999Z</time></trkpt><trkpt lat="45.60935303649991" lon="8.889230081996809"><ele>224.25</ele><time>2026-03-28T10:44:11.999Z</time></trkpt><trkpt lat="45.60946705631008" lon="8.889169527964297"><ele>224.5</ele><time>2026-03-28T10:44:12.999Z</time></trkpt><trkpt lat="45.60957201775167" lon="8.889107096754614"><ele>224.75</ele><time>2026-03-28T10:44:13.999Z</time></trkpt><trkpt lat="45.609681468375086" lon="8.889043456471148"><ele>225.0</ele><time>2026-03-28T10:44:15Z</time></trkpt><trkpt lat="45.60978983394458" lon="8.888979031123691"><ele>225.6</ele><time>2026-03-28T10:44:16Z</time></trkpt><trkpt lat="45.60988949872132" lon="8.888911734353288"><ele>226.2</ele><time>2026-03-28T10:44:17Z</time></trkpt><trkpt lat="45.609983061981744" lon="8.888849722681607"><ele>226.8</ele><time>2026-03-28T10:44:18Z</time></trkpt><trkpt lat="45.61007033799192" lon="8.888793347980098"><ele>227.4</ele><time>2026-03-28T10:44:19Z</time></trkpt><trkpt lat="45.61013939250361" lon="8.888744463202551"><ele>228.0</ele><time>2026-03-28T10:44:20Z</time></trkpt><trkpt lat="45.61021204785007" lon="8.888697103280723"><ele>228.0</ele><time>2026-03-28T10:44:21Z</time></trkpt><trkpt lat="45.610276050216086" lon="8.888650309011041"><ele>228.0</ele><time>2026-03-28T10:44:22Z</time></trkpt><trkpt lat="45.610386517604425" lon="8.888578442912726"><ele>228.0</ele><time>2026-03-28T10:44:24Z</time></trkpt><trkpt lat="45.610442872091" lon="8.888537446749481"><ele>228.0</ele><time>2026-03-28T10:44:26Z</time></trkpt><trkpt lat="45.61054840622621" lon="8.888486489344798"><ele>228.0</ele><time>2026-03-28T10:44:39Z</time></trkpt><trkpt lat="45.61061716950018" lon="8.88845608155937"><ele>228.0</ele><time>2026-03-28T10:44:40Z</time></trkpt><trkpt lat="45.610713868997706" lon="8.888408378784291"><ele>227.66666666666669</ele><time>2026-03-28T10:44:41Z</time></trkpt><trkpt lat="45.610835771136585" lon="8.888335198095278"><ele>227.33333333333334</ele><time>2026-03-28T10:44:42Z</time></trkpt><trkpt lat="45.61098055645061" lon="8.888252350406452"><ele>227.0</ele><time>2026-03-28T10:44:43Z</time></trkpt><trkpt lat="45.61113537764529" lon="8.888158681492769"><ele>227.66666666666669</ele><time>2026-03-28T10:44:44Z</time></trkpt><trkpt lat="45.611297110619404" lon="8.888065039324086"><ele>228.33333333333331</ele><time>2026-03-28T10:44:45Z</time></trkpt><trkpt lat="45.61147508464013" lon="8.887946048521666"><ele>229.0</ele><time>2026-03-28T10:44:46Z</time></trkpt><trkpt lat="45.611649287313114" lon="8.887806434345993"><ele>229.0</ele><time>2026-03-28T10:44:47Z</time></trkpt><trkpt lat="45.6118112638891" lon="8.887675243770396"><ele>229.0</ele><time>2026-03-28T10:44:48Z</time></trkpt><trkpt lat="45.611950094832075" lon="8.88754238599327"><ele>229.0</ele><time>2026-03-28T10:44:49Z</time></trkpt><trkpt lat="45.61207003483634" lon="8.887439564823707"><ele>228.79999999999998</ele><time>2026-03-28T10:44:50Z</time></trkpt><trkpt lat="45.61215470492354" lon="8.887341923737981"><ele>228.59999999999997</ele><time>2026-03-28T10:44:51Z</time></trkpt><trkpt lat="45.61222872937999" lon="8.8872722560748"><ele>228.4</ele><time>2026-03-28T10:44:52Z</time></trkpt><trkpt lat="45.61234292575971" lon="8.887267792442982"><ele>228.2</ele><time>2026-03-28T10:44:53Z</time></trkpt><trkpt lat="45.61245754317822" lon="8.887207476289067"><ele>228.0</ele><time>2026-03-28T10:44:54Z</time></trkpt><trkpt lat="45.61257185916303" lon="8.88712267257637"><ele>228.0</ele><time>2026-03-28T10:44:55Z</time></trkpt><trkpt lat="45.61266834877454" lon="8.887005811077984"><ele>228.0</ele><time>2026-03-28T10:44:56Z</time></trkpt><trkpt lat="45.61276263835648" lon="8.886906673172655"><ele>228.0</ele><time>2026-03-28T10:44:57Z</time></trkpt><trkpt lat="45.612844197647334" lon="8.886774498735308"><ele>228.0</ele><time>2026-03-28T10:44:58Z</time></trkpt><trkpt lat="45.612940845137665" lon="8.886639541216026"><ele>227.0</ele><time>2026-03-28T10:44:59Z</time></trkpt><trkpt lat="45.61308278941638" lon="8.886563811936051"><ele>226.0</ele><time>2026-03-28T10:45:00Z</time></trkpt><trkpt lat="45.61323221437582" lon="8.88648156862561"><ele>225.0</ele><time>2026-03-28T10:45:01Z</time></trkpt><trkpt lat="45.61336493391699" lon="8.886397400073871"><ele>225.0</ele><time>2026-03-28T10:45:02Z</time></trkpt><trkpt lat="45.61348747380524" lon="8.886236681220034"><ele>225.0</ele><time>2026-03-28T10:45:03Z</time></trkpt><trkpt lat="45.613615822823014" lon="8.886129812317899"><ele>225.0</ele><time>2026-03-28T10:45:04Z</time></trkpt><trkpt lat="45.61373092102162" lon="8.886037418187593"><ele>225.0</ele><time>2026-03-28T10:45:05Z</time></trkpt><trkpt lat="45.61386836288858" lon="8.885961746533313"><ele>224.75</ele><time>2026-03-28T10:45:06Z</time></trkpt><trkpt lat="45.61396860569253" lon="8.885887672531897"><ele>224.5</ele><time>2026-03-28T10:45:07Z</time></trkpt><trkpt lat="45.61410353145549" lon="8.885781189742556"><ele>224.25</ele><time>2026-03-28T10:45:08Z</time></trkpt><trkpt lat="45.61422456138506" lon="8.885670135886532"><ele>224.0</ele><time>2026-03-28T10:45:09Z</time></trkpt><trkpt lat="45.61434004636812" lon="8.885558809681978"><ele>224.0</ele><time>2026-03-28T10:45:10Z</time></trkpt><trkpt lat="45.61445472835747" lon="8.885477965581911"><ele>224.0</ele><time>2026-03-28T10:45:11Z</time></trkpt><trkpt lat="45.614552769872844" lon="8.885373294810496"><ele>224.0</ele><time>2026-03-28T10:45:12Z</time></trkpt><trkpt lat="45.61464920148574" lon="8.885286446210234"><ele>224.0</ele><time>2026-03-28T10:45:13Z</time></trkpt><trkpt lat="45.614729705058814" lon="8.885157495446958"><ele>224.50000000000003</ele><time>2026-03-28T10:45:14Z</time></trkpt><trkpt lat="45.6147714422525" lon="8.885089899799729"><ele>225.0</ele><time>2026-03-28T10:45:15Z</time></trkpt><trkpt lat="45.61483252069488" lon="8.884967276491654"><ele>225.5</ele><time>2026-03-28T10:45:17Z</time></trkpt><trkpt lat="45.61486804135989" lon="8.884839346157376"><ele>226.0</ele><time>2026-03-28T10:46:49Z</time></trkpt><trkpt lat="45.6149242107627" lon="8.884776663904782"><ele>226.50000000000003</ele><time>2026-03-28T10:46:50Z</time></trkpt><trkpt lat="45.614984305838355" lon="8.884678583575637"><ele>227.0</ele><time>2026-03-28T10:46:51Z</time></trkpt><trkpt lat="45.615105797372024" lon="8.884455050147658"><ele>227.0</ele><time>2026-03-28T10:46:53Z</time></trkpt><trkpt lat="45.61515115805607" lon="8.8842989472174"><ele>227.0</ele><time>2026-03-28T10:46:54Z</time></trkpt><trkpt lat="45.61519678284675" lon="8.88412222955051"><ele>227.0</ele><time>2026-03-28T10:46:55Z</time></trkpt><trkpt lat="45.6152272399319" lon="8.8839468052492"><ele>227.0</ele><time>2026-03-28T10:46:56Z</time></trkpt><trkpt lat="45.61526462849573" lon="8.883773397744042"><ele>227.25</ele><time>2026-03-28T10:46:57Z</time></trkpt><trkpt lat="45.61531016566328" lon="8.883597649609566"><ele>227.5</ele><time>2026-03-28T10:46:58Z</time></trkpt><trkpt lat="45.61535876153268" lon="8.883416924117478"><ele>227.75</ele><time>2026-03-28T10:46:59Z</time></trkpt><trkpt lat="45.61541374991848" lon="8.883210933862735"><ele>228.0</ele><time>2026-03-28T10:47:00Z</time></trkpt><trkpt lat="45.61546018256278" lon="8.883036763157053"><ele>228.0</ele><time>2026-03-28T10:47:01Z</time></trkpt><trkpt lat="45.61551330439834" lon="8.882838936109852"><ele>228.0</ele><time>2026-03-28T10:47:02Z</time></trkpt><trkpt lat="45.61555481471414" lon="8.882633715706435"><ele>228.0</ele><time>2026-03-28T10:47:03Z</time></trkpt><trkpt lat="45.615604026311644" lon="8.882432348826805"><ele>228.0</ele><time>2026-03-28T10:47:04Z</time></trkpt><trkpt lat="45.61565617424641" lon="8.882246855810363"><ele>228.0</ele><time>2026-03-28T10:47:05Z</time></trkpt><trkpt lat="45.61571409733942" lon="8.882055801039524"><ele>228.0</ele><time>2026-03-28T10:47:06Z</time></trkpt><trkpt lat="45.61576470726054" lon="8.881871622394936"><ele>228.0</ele><time>2026-03-28T10:47:07Z</time></trkpt><trkpt lat="45.61580886270715" lon="8.881694174365588"><ele>228.0</ele><time>2026-03-28T10:47:08Z</time></trkpt><trkpt lat="45.615856842101046" lon="8.881520131928536"><ele>228.0</ele><time>2026-03-28T10:47:09Z</time></trkpt><trkpt lat="45.615926002978256" lon="8.881373503904"><ele>228.0</ele><time>2026-03-28T10:47:10Z</time></trkpt><trkpt lat="45.6159778304302" lon="8.881213323123738"><ele>228.0</ele><time>2026-03-28T10:47:11Z</time></trkpt><trkpt lat="45.6160305767369" lon="8.881009171780779"><ele>228.0</ele><time>2026-03-28T10:47:12Z</time></trkpt><trkpt lat="45.61607751005737" lon="8.880846803277793"><ele>228.0</ele><time>2026-03-28T10:47:13Z</time></trkpt><trkpt lat="45.61612211302629" lon="8.880666478056899"><ele>228.0</ele><time>2026-03-28T10:47:14Z</time></trkpt><trkpt lat="45.61616480710331" lon="8.8805059396698"><ele>228.0</ele><time>2026-03-28T10:47:15Z</time></trkpt><trkpt lat="45.616204017808435" lon="8.880326313848798"><ele>228.0</ele><time>2026-03-28T10:47:16Z</time></trkpt><trkpt lat="45.61625161691329" lon="8.880152672718113"><ele>228.0</ele><time>2026-03-28T10:47:17Z</time></trkpt><trkpt lat="45.61629680113001" lon="8.879996877263537"><ele>228.0</ele><time>2026-03-28T10:47:18Z</time></trkpt><trkpt lat="45.61634713369755" lon="8.879847015874395"><ele>228.0</ele><time>2026-03-28T10:47:19Z</time></trkpt><trkpt lat="45.61640104821239" lon="8.87968875944171"><ele>228.0</ele><time>2026-03-28T10:47:20Z</time></trkpt><trkpt lat="45.61645071454993" lon="8.879511761862558"><ele>228.0</ele><time>2026-03-28T10:47:21Z</time></trkpt><trkpt lat="45.61649331424214" lon="8.879317883392071"><ele>228.0</ele><time>2026-03-28T10:47:22Z</time></trkpt><trkpt lat="45.61653697998106" lon="8.879119975271339"><ele>228.0</ele><time>2026-03-28T10:47:23Z</time></trkpt><trkpt lat="45.61658958621244" lon="8.878935003303077"><ele>228.0</ele><time>2026-03-28T10:47:24Z</time></trkpt><trkpt lat="45.61664516394892" lon="8.878743345051577"><ele>228.0</ele><time>2026-03-28T10:47:24.999Z</time></trkpt><trkpt lat="45.616705099880555" lon="8.878547569819895"><ele>228.0</ele><time>2026-03-28T10:47:25.999Z</time></trkpt><trkpt lat="45.61676052145256" lon="8.878343261076772"><ele>228.0</ele><time>2026-03-28T10:47:26.999Z</time></trkpt><trkpt lat="45.616819453558655" lon="8.878146120804713"><ele>228.25</ele><time>2026-03-28T10:47:27.999Z</time></trkpt><trkpt lat="45.6168642371275" lon="8.877941402198639"><ele>228.5</ele><time>2026-03-28T10:47:28.999Z</time></trkpt><trkpt lat="45.61691010116571" lon="8.877745678354113"><ele>228.75</ele><time>2026-03-28T10:47:29.999Z</time></trkpt><trkpt lat="45.61695152534454" lon="8.877569026401426"><ele>229.0</ele><time>2026-03-28T10:47:30.999Z</time></trkpt><trkpt lat="45.61701043202113" lon="8.87742395659483"><ele>229.25</ele><time>2026-03-28T10:47:31.999Z</time></trkpt><trkpt lat="45.61705018561837" lon="8.877269335586387"><ele>229.5</ele><time>2026-03-28T10:47:32.999Z</time></trkpt><trkpt lat="45.61708722351693" lon="8.877117538487093"><ele>229.75</ele><time>2026-03-28T10:47:33.999Z</time></trkpt><trkpt lat="45.61713242366972" lon="8.876955769236352"><ele>230.0</ele><time>2026-03-28T10:47:34.999Z</time></trkpt><trkpt lat="45.617178414221215" lon="8.876792105668137"><ele>230.0</ele><time>2026-03-28T10:47:35.999Z</time></trkpt><trkpt lat="45.61722515402294" lon="8.876623725534383"><ele>230.0</ele><time>2026-03-28T10:47:36.999Z</time></trkpt><trkpt lat="45.6172675497537" lon="8.8764502954701"><ele>230.0</ele><time>2026-03-28T10:47:37.999Z</time></trkpt><trkpt lat="45.61731398517335" lon="8.876276838078791"><ele>230.0</ele><time>2026-03-28T10:47:38.999Z</time></trkpt><trkpt lat="45.61735992973844" lon="8.876108889460115"><ele>230.0</ele><time>2026-03-28T10:47:39.999Z</time></trkpt><trkpt lat="45.61740273474704" lon="8.875948218386712"><ele>230.0</ele><time>2026-03-28T10:47:40.999Z</time></trkpt><trkpt lat="45.61744095149599" lon="8.87578423822999"><ele>230.0</ele><time>2026-03-28T10:47:41.999Z</time></trkpt><trkpt lat="45.61749961606958" lon="8.875630080644244"><ele>230.0</ele><time>2026-03-28T10:47:42.999Z</time></trkpt><trkpt lat="45.6175415964814" lon="8.87547988453571"><ele>229.83333333333334</ele><time>2026-03-28T10:47:43.999Z</time></trkpt><trkpt lat="45.617581632151506" lon="8.875336646340715"><ele>229.66666666666669</ele><time>2026-03-28T10:47:44.999Z</time></trkpt><trkpt lat="45.617617541911365" lon="8.875208176662406"><ele>229.5</ele><time>2026-03-28T10:47:45.999Z</time></trkpt><trkpt lat="45.61764726216988" lon="8.875101925955526"><ele>229.33333333333331</ele><time>2026-03-28T10:47:46.999Z</time></trkpt><trkpt lat="45.617677901092954" lon="8.87499235312425"><ele>229.16666666666666</ele><time>2026-03-28T10:47:47.999Z</time></trkpt><trkpt lat="45.61770164632994" lon="8.874907434894329"><ele>229.0</ele><time>2026-03-28T10:47:48.999Z</time></trkpt><trkpt lat="45.617725927098476" lon="8.874820600176578"><ele>228.83333333333331</ele><time>2026-03-28T10:47:49.999Z</time></trkpt><trkpt lat="45.617760982357225" lon="8.87467669599619"><ele>228.66666666666666</ele><time>2026-03-28T10:47:51.999Z</time></trkpt><trkpt lat="45.61779515674549" lon="8.874589570713594"><ele>228.5</ele><time>2026-03-28T10:47:54.999Z</time></trkpt><trkpt lat="45.61780693506842" lon="8.874499705694207"><ele>228.33333333333331</ele><time>2026-03-28T10:48:00.999Z</time></trkpt><trkpt lat="45.61782986986402" lon="8.874411574708814"><ele>228.16666666666666</ele><time>2026-03-28T10:48:02.999Z</time></trkpt><trkpt lat="45.617868011065475" lon="8.874284549549522"><ele>228.0</ele><time>2026-03-28T10:48:04.999Z</time></trkpt><trkpt lat="45.61789445652816" lon="8.874202365789202"><ele>228.5</ele><time>2026-03-28T10:48:05.999Z</time></trkpt><trkpt lat="45.61793592885265" lon="8.874104211733618"><ele>229.0</ele><time>2026-03-28T10:48:06.999Z</time></trkpt><trkpt lat="45.61796922836058" lon="8.873990883979832"><ele>229.5</ele><time>2026-03-28T10:48:07.999Z</time></trkpt><trkpt lat="45.61800351896927" lon="8.873866273689597"><ele>230.0</ele><time>2026-03-28T10:48:08.999Z</time></trkpt><trkpt lat="45.6180310548295" lon="8.873779827178428"><ele>230.5</ele><time>2026-03-28T10:48:09.999Z</time></trkpt><trkpt lat="45.618056537247" lon="8.873641145370396"><ele>231.0</ele><time>2026-03-28T10:48:11.999Z</time></trkpt><trkpt lat="45.618097102655774" lon="8.87347516153612"><ele>231.5</ele><time>2026-03-28T10:48:13.999Z</time></trkpt><trkpt lat="45.6181434484919" lon="8.873313783644715"><ele>232.0</ele><time>2026-03-28T10:48:15.999Z</time></trkpt><trkpt lat="45.618179860494585" lon="8.87322093728593"><ele>232.5</ele><time>2026-03-28T10:48:18.999Z</time></trkpt><trkpt lat="45.61823798786524" lon="8.873090013337462"><ele>233.0</ele><time>2026-03-28T10:48:21.999Z</time></trkpt><trkpt lat="45.61825875599526" lon="8.872996781553608"><ele>233.5</ele><time>2026-03-28T10:48:22.999Z</time></trkpt><trkpt lat="45.6182712736699" lon="8.872901825641604"><ele>234.0</ele><time>2026-03-28T10:48:23.999Z</time></trkpt><trkpt lat="45.61829768847316" lon="8.872817804444688"><ele>234.0</ele><time>2026-03-28T10:48:24.999Z</time></trkpt><trkpt lat="45.61832796860735" lon="8.872728276744384"><ele>233.99999999999997</ele><time>2026-03-28T10:48:25.999Z</time></trkpt><trkpt lat="45.61836698640428" lon="8.872614890830045"><ele>233.99999999999997</ele><time>2026-03-28T10:48:27Z</time></trkpt><trkpt lat="45.61840507686262" lon="8.87248755408987"><ele>234.0</ele><time>2026-03-28T10:48:28Z</time></trkpt><trkpt lat="45.61844365695324" lon="8.872358258646742"><ele>234.0</ele><time>2026-03-28T10:48:29Z</time></trkpt><trkpt lat="45.618486160583934" lon="8.872233387844597"><ele>234.0</ele><time>2026-03-28T10:48:30Z</time></trkpt><trkpt lat="45.61853379897706" lon="8.872094334053823"><ele>234.0</ele><time>2026-03-28T10:48:31Z</time></trkpt><trkpt lat="45.61859941300622" lon="8.871947553113886"><ele>234.0</ele><time>2026-03-28T10:48:32Z</time></trkpt><trkpt lat="45.618638927482664" lon="8.871788334640813"><ele>234.0</ele><time>2026-03-28T10:48:33Z</time></trkpt><trkpt lat="45.618694871681726" lon="8.871645194238068"><ele>234.0</ele><time>2026-03-28T10:48:34Z</time></trkpt><trkpt lat="45.618742255167284" lon="8.871510742724409"><ele>234.0</ele><time>2026-03-28T10:48:35Z</time></trkpt><trkpt lat="45.61878738642748" lon="8.871357931414362"><ele>234.0</ele><time>2026-03-28T10:48:36Z</time></trkpt><trkpt lat="45.61883398189172" lon="8.87120326334555"><ele>234.0</ele><time>2026-03-28T10:48:37Z</time></trkpt><trkpt lat="45.61888948490889" lon="8.871057595558915"><ele>233.39999999999998</ele><time>2026-03-28T10:48:38Z</time></trkpt><trkpt lat="45.61893258223932" lon="8.870897534814373"><ele>232.79999999999998</ele><time>2026-03-28T10:48:39Z</time></trkpt><trkpt lat="45.618981654240905" lon="8.870773120286792"><ele>232.20000000000002</ele><time>2026-03-28T10:48:40Z</time></trkpt><trkpt lat="45.61902202230194" lon="8.870634855130808"><ele>231.60000000000002</ele><time>2026-03-28T10:48:41Z</time></trkpt><trkpt lat="45.619072496293356" lon="8.870507444157061"><ele>231.0</ele><time>2026-03-28T10:48:42Z</time></trkpt><trkpt lat="45.61911364368085" lon="8.870358635182077"><ele>231.0</ele><time>2026-03-28T10:48:43Z</time></trkpt><trkpt lat="45.61915318163712" lon="8.870214027386323"><ele>231.0</ele><time>2026-03-28T10:48:44Z</time></trkpt><trkpt lat="45.61919445325249" lon="8.870063905442349"><ele>231.0</ele><time>2026-03-28T10:48:45Z</time></trkpt><trkpt lat="45.61924293263799" lon="8.869907647107407"><ele>231.0</ele><time>2026-03-28T10:48:46Z</time></trkpt><trkpt lat="45.61928876285327" lon="8.869749108215313"><ele>231.0</ele><time>2026-03-28T10:48:47Z</time></trkpt><trkpt lat="45.61934015128871" lon="8.869605861151005"><ele>231.0</ele><time>2026-03-28T10:48:48Z</time></trkpt><trkpt lat="45.6193887582814" lon="8.86943320014146"><ele>231.0</ele><time>2026-03-28T10:48:49Z</time></trkpt><trkpt lat="45.61945767156396" lon="8.86927385297268"><ele>231.0</ele><time>2026-03-28T10:48:50Z</time></trkpt><trkpt lat="45.61951011960923" lon="8.869112579825316"><ele>231.0</ele><time>2026-03-28T10:48:51Z</time></trkpt><trkpt lat="45.61956276382208" lon="8.868950703480666"><ele>231.0</ele><time>2026-03-28T10:48:52Z</time></trkpt><trkpt lat="45.61961511048455" lon="8.86878974126988"><ele>231.0</ele><time>2026-03-28T10:48:53Z</time></trkpt><trkpt lat="45.61966945033624" lon="8.86862210116795"><ele>231.0</ele><time>2026-03-28T10:48:54Z</time></trkpt><trkpt lat="45.61972329625719" lon="8.868456091349858"><ele>231.5</ele><time>2026-03-28T10:48:55Z</time></trkpt><trkpt lat="45.61975339338515" lon="8.868270965671547"><ele>232.0</ele><time>2026-03-28T10:48:56Z</time></trkpt><trkpt lat="45.61981053737973" lon="8.868095086871449"><ele>232.5</ele><time>2026-03-28T10:48:57Z</time></trkpt><trkpt lat="45.619867743660826" lon="8.867930048313728"><ele>233.0</ele><time>2026-03-28T10:48:58Z</time></trkpt><trkpt lat="45.619926177627015" lon="8.867769507123732"><ele>233.0</ele><time>2026-03-28T10:48:59Z</time></trkpt><trkpt lat="45.61997539400683" lon="8.867612082202237"><ele>233.0</ele><time>2026-03-28T10:49:00Z</time></trkpt><trkpt lat="45.62004178962716" lon="8.86746989899282"><ele>233.0</ele><time>2026-03-28T10:49:01Z</time></trkpt><trkpt lat="45.62008901883293" lon="8.867324331233517"><ele>233.0</ele><time>2026-03-28T10:49:02Z</time></trkpt><trkpt lat="45.620133265538115" lon="8.867187955897613"><ele>233.25</ele><time>2026-03-28T10:49:03Z</time></trkpt><trkpt lat="45.620167690100004" lon="8.86704125732369"><ele>233.5</ele><time>2026-03-28T10:49:04Z</time></trkpt><trkpt lat="45.62023933816794" lon="8.866911921834804"><ele>233.75</ele><time>2026-03-28T10:49:05Z</time></trkpt><trkpt lat="45.62028686201711" lon="8.866762670501203"><ele>234.0</ele><time>2026-03-28T10:49:06Z</time></trkpt><trkpt lat="45.620343412920704" lon="8.86660554485003"><ele>234.0</ele><time>2026-03-28T10:49:07Z</time></trkpt><trkpt lat="45.62039256700174" lon="8.866431156686197"><ele>234.0</ele><time>2026-03-28T10:49:08Z</time></trkpt><trkpt lat="45.62042872043623" lon="8.866242004014735"><ele>234.0</ele><time>2026-03-28T10:49:09Z</time></trkpt><trkpt lat="45.620487594889" lon="8.866083827149508"><ele>234.0</ele><time>2026-03-28T10:49:10Z</time></trkpt><trkpt lat="45.62052901141271" lon="8.865924590861734"><ele>234.0</ele><time>2026-03-28T10:49:11Z</time></trkpt><trkpt lat="45.620577999192555" lon="8.865788364727589"><ele>233.99999999999997</ele><time>2026-03-28T10:49:12Z</time></trkpt><trkpt lat="45.62061654222086" lon="8.86566236027467"><ele>233.99999999999997</ele><time>2026-03-28T10:49:13Z</time></trkpt><trkpt lat="45.6206544674903" lon="8.8655491195099"><ele>234.0</ele><time>2026-03-28T10:49:14Z</time></trkpt><trkpt lat="45.62068508930072" lon="8.865447647758929"><ele>234.0</ele><time>2026-03-28T10:49:15Z</time></trkpt><trkpt lat="45.62072987754181" lon="8.865292607990314"><ele>234.0</ele><time>2026-03-28T10:49:17Z</time></trkpt><trkpt lat="45.62077363145392" lon="8.865220658988694"><ele>234.0</ele><time>2026-03-28T10:49:19Z</time></trkpt><trkpt lat="45.620835842054326" lon="8.86512377990732"><ele>234.0</ele><time>2026-03-28T10:49:23Z</time></trkpt><trkpt lat="45.62090007504482" lon="8.865046462353742"><ele>234.0</ele><time>2026-03-28T10:49:25Z</time></trkpt><trkpt lat="45.62096514022725" lon="8.864992873325031"><ele>234.0</ele><time>2026-03-28T10:49:27Z</time></trkpt><trkpt lat="45.620950319572614" lon="8.864867323565003"><ele>234.0</ele><time>2026-03-28T10:49:28Z</time></trkpt><trkpt lat="45.62092655135897" lon="8.864699951437125"><ele>233.83333333333334</ele><time>2026-03-28T10:49:30Z</time></trkpt><trkpt lat="45.62095465522345" lon="8.864597977577185"><ele>233.66666666666669</ele><time>2026-03-28T10:49:31Z</time></trkpt><trkpt lat="45.62099515359923" lon="8.864496910050587"><ele>233.5</ele><time>2026-03-28T10:49:32Z</time></trkpt><trkpt lat="45.62103132642041" lon="8.864402001556844"><ele>233.33333333333334</ele><time>2026-03-28T10:49:32.999Z</time></trkpt><trkpt lat="45.621065793115136" lon="8.864294000869506"><ele>233.16666666666669</ele><time>2026-03-28T10:49:33.999Z</time></trkpt><trkpt lat="45.62110399347369" lon="8.864178169573114"><ele>233.0</ele><time>2026-03-28T10:49:34.999Z</time></trkpt><trkpt lat="45.62114257204975" lon="8.864064844692349"><ele>233.4</ele><time>2026-03-28T10:49:35.999Z</time></trkpt><trkpt lat="45.621185782783094" lon="8.863947695377101"><ele>233.8</ele><time>2026-03-28T10:49:36.999Z</time></trkpt><trkpt lat="45.621233009459964" lon="8.863811742111945"><ele>234.2</ele><time>2026-03-28T10:49:37.999Z</time></trkpt><trkpt lat="45.621280978836104" lon="8.863668797613128"><ele>234.6</ele><time>2026-03-28T10:49:38.999Z</time></trkpt><trkpt lat="45.62131957439221" lon="8.863536175894371"><ele>235.0</ele><time>2026-03-28T10:49:39.999Z</time></trkpt><trkpt lat="45.621365810983875" lon="8.863401902880504"><ele>235.0</ele><time>2026-03-28T10:49:40.999Z</time></trkpt><trkpt lat="45.62141464022586" lon="8.863259036032545"><ele>235.0</ele><time>2026-03-28T10:49:41.999Z</time></trkpt><trkpt lat="45.621466886270966" lon="8.863105441819572"><ele>235.0</ele><time>2026-03-28T10:49:42.999Z</time></trkpt><trkpt lat="45.62151663561754" lon="8.86295414637267"><ele>235.0</ele><time>2026-03-28T10:49:43.999Z</time></trkpt><trkpt lat="45.62158674044809" lon="8.862819114571456"><ele>235.0</ele><time>2026-03-28T10:49:44.999Z</time></trkpt><trkpt lat="45.62163518695842" lon="8.862666260029414"><ele>235.0</ele><time>2026-03-28T10:49:45.999Z</time></trkpt><trkpt lat="45.621685634958475" lon="8.86252284726195"><ele>235.0</ele><time>2026-03-28T10:49:46.999Z</time></trkpt><trkpt lat="45.621732602551674" lon="8.862390484733115"><ele>235.0</ele><time>2026-03-28T10:49:47.999Z</time></trkpt><trkpt lat="45.62177340651022" lon="8.862261546804195"><ele>235.0</ele><time>2026-03-28T10:49:48.999Z</time></trkpt><trkpt lat="45.62181076479781" lon="8.86214445601429"><ele>234.99999999999997</ele><time>2026-03-28T10:49:49.999Z</time></trkpt><trkpt lat="45.621847881128716" lon="8.862014370775556"><ele>235.0</ele><time>2026-03-28T10:49:50.999Z</time></trkpt><trkpt lat="45.6218963907698" lon="8.861903071409875"><ele>235.0</ele><time>2026-03-28T10:49:51.999Z</time></trkpt><trkpt lat="45.62193230575159" lon="8.86178802018123"><ele>235.0</ele><time>2026-03-28T10:49:52.999Z</time></trkpt><trkpt lat="45.62196743729935" lon="8.861672633344355"><ele>234.99999999999997</ele><time>2026-03-28T10:49:53.999Z</time></trkpt><trkpt lat="45.62200574011896" lon="8.861587493398602"><ele>235.0</ele><time>2026-03-28T10:49:54.999Z</time></trkpt><trkpt lat="45.622063631006995" lon="8.861424179435886"><ele>234.83333333333331</ele><time>2026-03-28T10:49:56.999Z</time></trkpt><trkpt lat="45.62210260639838" lon="8.861332117554044"><ele>234.66666666666666</ele><time>2026-03-28T10:49:57.999Z</time></trkpt><trkpt lat="45.62214416886162" lon="8.861228999969368"><ele>234.5</ele><time>2026-03-28T10:49:58.999Z</time></trkpt><trkpt lat="45.622190468686924" lon="8.861117856435353"><ele>234.33333333333331</ele><time>2026-03-28T10:49:59.999Z</time></trkpt><trkpt lat="45.62223595529109" lon="8.861016799053477"><ele>234.16666666666666</ele><time>2026-03-28T10:50:00.999Z</time></trkpt><trkpt lat="45.62227644177325" lon="8.8609023614243"><ele>234.0</ele><time>2026-03-28T10:50:01.999Z</time></trkpt><trkpt lat="45.62232221750404" lon="8.860774503028447"><ele>234.0</ele><time>2026-03-28T10:50:02.999Z</time></trkpt><trkpt lat="45.622371389323426" lon="8.860642387875457"><ele>234.0</ele><time>2026-03-28T10:50:03.999Z</time></trkpt><trkpt lat="45.622426688083735" lon="8.860497289124611"><ele>234.0</ele><time>2026-03-28T10:50:04.999Z</time></trkpt><trkpt lat="45.622481539568014" lon="8.860351237845041"><ele>234.0</ele><time>2026-03-28T10:50:05.999Z</time></trkpt><trkpt lat="45.622532272284296" lon="8.860203110799446"><ele>234.25</ele><time>2026-03-28T10:50:06.999Z</time></trkpt><trkpt lat="45.62258607148244" lon="8.860072622535041"><ele>234.5</ele><time>2026-03-28T10:50:07.999Z</time></trkpt><trkpt lat="45.622640099947915" lon="8.859926565346337"><ele>234.75</ele><time>2026-03-28T10:50:08.999Z</time></trkpt><trkpt lat="45.62269098809771" lon="8.859770998277975"><ele>235.0</ele><time>2026-03-28T10:50:09.999Z</time></trkpt><trkpt lat="45.62274178259696" lon="8.859618347271107"><ele>235.0</ele><time>2026-03-28T10:50:10.999Z</time></trkpt><trkpt lat="45.62279869217557" lon="8.859466203080961"><ele>235.0</ele><time>2026-03-28T10:50:11.999Z</time></trkpt><trkpt lat="45.62285742284437" lon="8.859309185637265"><ele>235.0</ele><time>2026-03-28T10:50:12.999Z</time></trkpt><trkpt lat="45.62291224078297" lon="8.859149117906433"><ele>235.0</ele><time>2026-03-28T10:50:13.999Z</time></trkpt><trkpt lat="45.62296461470953" lon="8.858977257779756"><ele>234.33333333333331</ele><time>2026-03-28T10:50:14.999Z</time></trkpt><trkpt lat="45.62301886718376" lon="8.858794082240415"><ele>233.66666666666669</ele><time>2026-03-28T10:50:15.999Z</time></trkpt><trkpt lat="45.6230734500996" lon="8.858590625593894"><ele>233.0</ele><time>2026-03-28T10:50:16.999Z</time></trkpt><trkpt lat="45.623132198013614" lon="8.85837714310902"><ele>233.0</ele><time>2026-03-28T10:50:17.999Z</time></trkpt><trkpt lat="45.623192722015" lon="8.858158109126947"><ele>233.0</ele><time>2026-03-28T10:50:18.999Z</time></trkpt><trkpt lat="45.623258121456395" lon="8.857954907948887"><ele>233.0</ele><time>2026-03-28T10:50:19.999Z</time></trkpt><trkpt lat="45.623316824351015" lon="8.857764607904546"><ele>232.75</ele><time>2026-03-28T10:50:20.999Z</time></trkpt><trkpt lat="45.623352876507234" lon="8.857564127652688"><ele>232.5</ele><time>2026-03-28T10:50:21.999Z</time></trkpt><trkpt lat="45.623401566611655" lon="8.857373960726143"><ele>232.25</ele><time>2026-03-28T10:50:22.999Z</time></trkpt><trkpt lat="45.62345342593999" lon="8.857196484118754"><ele>232.0</ele><time>2026-03-28T10:50:23.999Z</time></trkpt><trkpt lat="45.62351659808172" lon="8.857014479346976"><ele>232.0</ele><time>2026-03-28T10:50:24.999Z</time></trkpt><trkpt lat="45.623569443091085" lon="8.856804377318992"><ele>232.0</ele><time>2026-03-28T10:50:25.999Z</time></trkpt><trkpt lat="45.62362742765884" lon="8.856600020698872"><ele>232.0</ele><time>2026-03-28T10:50:26.999Z</time></trkpt><trkpt lat="45.62368525951588" lon="8.85639547979048"><ele>233.0</ele><time>2026-03-28T10:50:27.999Z</time></trkpt><trkpt lat="45.623737926633844" lon="8.8561787427169"><ele>234.0</ele><time>2026-03-28T10:50:28.999Z</time></trkpt><trkpt lat="45.62379730040412" lon="8.85596160206645"><ele>235.0</ele><time>2026-03-28T10:50:29.999Z</time></trkpt><trkpt lat="45.62385664334723" lon="8.855750645043042"><ele>235.0</ele><time>2026-03-28T10:50:30.999Z</time></trkpt><trkpt lat="45.62392375778729" lon="8.855531960156625"><ele>235.0</ele><time>2026-03-28T10:50:31.999Z</time></trkpt><trkpt lat="45.62397708965926" lon="8.855315102339995"><ele>235.0</ele><time>2026-03-28T10:50:33Z</time></trkpt><trkpt lat="45.62404802485752" lon="8.855100644060116"><ele>235.0</ele><time>2026-03-28T10:50:34Z</time></trkpt><trkpt lat="45.62412483203158" lon="8.85488674879835"><ele>235.0</ele><time>2026-03-28T10:50:35Z</time></trkpt><trkpt lat="45.624183168544555" lon="8.854679483525285"><ele>235.0</ele><time>2026-03-28T10:50:36Z</time></trkpt><trkpt lat="45.62423763299145" lon="8.85449481743929"><ele>235.0</ele><time>2026-03-28T10:50:37Z</time></trkpt><trkpt lat="45.62428362525323" lon="8.854309234004313"><ele>235.0</ele><time>2026-03-28T10:50:38Z</time></trkpt><trkpt lat="45.62433542281387" lon="8.854128538391034"><ele>235.0</ele><time>2026-03-28T10:50:39Z</time></trkpt><trkpt lat="45.62438212851806" lon="8.853963800440196"><ele>235.0</ele><time>2026-03-28T10:50:40Z</time></trkpt><trkpt lat="45.62441860675592" lon="8.853794307912084"><ele>234.5</ele><time>2026-03-28T10:50:41Z</time></trkpt><trkpt lat="45.62445838275578" lon="8.85361833747324"><ele>234.0</ele><time>2026-03-28T10:50:42Z</time></trkpt><trkpt lat="45.62450456448488" lon="8.853436315298016"><ele>233.5</ele><time>2026-03-28T10:50:43Z</time></trkpt><trkpt lat="45.624545971345526" lon="8.853239934982149"><ele>233.0</ele><time>2026-03-28T10:50:44Z</time></trkpt><trkpt lat="45.62460174934861" lon="8.853045387228955"><ele>233.75</ele><time>2026-03-28T10:50:45Z</time></trkpt><trkpt lat="45.62465095217807" lon="8.852846409651287"><ele>234.5</ele><time>2026-03-28T10:50:46Z</time></trkpt><trkpt lat="45.62470804115387" lon="8.852651243566617"><ele>235.25</ele><time>2026-03-28T10:50:47Z</time></trkpt><trkpt lat="45.624762048031286" lon="8.852467905866447"><ele>236.0</ele><time>2026-03-28T10:50:48Z</time></trkpt><trkpt lat="45.6248217513804" lon="8.852291970663435"><ele>236.0</ele><time>2026-03-28T10:50:49Z</time></trkpt><trkpt lat="45.6248881232965" lon="8.852110589442697"><ele>236.0</ele><time>2026-03-28T10:50:50Z</time></trkpt><trkpt lat="45.624952069922614" lon="8.851926887768336"><ele>236.0</ele><time>2026-03-28T10:50:51Z</time></trkpt><trkpt lat="45.625010717831174" lon="8.851756199296528"><ele>236.0</ele><time>2026-03-28T10:50:52Z</time></trkpt><trkpt lat="45.62505570232076" lon="8.851575183902733"><ele>236.0</ele><time>2026-03-28T10:50:53Z</time></trkpt><trkpt lat="45.62508164665083" lon="8.85139640874812"><ele>236.0</ele><time>2026-03-28T10:50:54Z</time></trkpt><trkpt lat="45.625086427180946" lon="8.851225723826131"><ele>236.0</ele><time>2026-03-28T10:50:55Z</time></trkpt><trkpt lat="45.62508133290472" lon="8.851057013752635"><ele>236.0</ele><time>2026-03-28T10:50:56Z</time></trkpt><trkpt lat="45.62508118618285" lon="8.850894653344195"><ele>236.0</ele><time>2026-03-28T10:50:57Z</time></trkpt><trkpt lat="45.62508471087869" lon="8.850732069690224"><ele>236.0</ele><time>2026-03-28T10:50:58Z</time></trkpt><trkpt lat="45.6251073947272" lon="8.850558537094257"><ele>236.0</ele><time>2026-03-28T10:50:59Z</time></trkpt><trkpt lat="45.62514799529419" lon="8.850378922033972"><ele>236.0</ele><time>2026-03-28T10:51:00Z</time></trkpt><trkpt lat="45.62521945518983" lon="8.850199414105687"><ele>235.33333333333334</ele><time>2026-03-28T10:51:01Z</time></trkpt><trkpt lat="45.625307418718826" lon="8.850028347206656"><ele>234.66666666666669</ele><time>2026-03-28T10:51:02Z</time></trkpt><trkpt lat="45.62539741513345" lon="8.849841587429315"><ele>234.0</ele><time>2026-03-28T10:51:03Z</time></trkpt><trkpt lat="45.62549326368204" lon="8.849648702992772"><ele>233.66666666666669</ele><time>2026-03-28T10:51:04Z</time></trkpt><trkpt lat="45.625584933201424" lon="8.849483984898194"><ele>233.33333333333334</ele><time>2026-03-28T10:51:05Z</time></trkpt><trkpt lat="45.62566646258729" lon="8.84929951156182"><ele>233.0</ele><time>2026-03-28T10:51:06Z</time></trkpt><trkpt lat="45.62575442797932" lon="8.849094395334482"><ele>233.66666666666669</ele><time>2026-03-28T10:51:07Z</time></trkpt><trkpt lat="45.62583472538914" lon="8.848893010144993"><ele>234.33333333333331</ele><time>2026-03-28T10:51:08Z</time></trkpt><trkpt lat="45.625916091543985" lon="8.848715958171441"><ele>235.0</ele><time>2026-03-28T10:51:09Z</time></trkpt><trkpt lat="45.6259847339792" lon="8.848511264763834"><ele>234.66666666666666</ele><time>2026-03-28T10:51:10Z</time></trkpt><trkpt lat="45.62605356309205" lon="8.84831804629957"><ele>234.33333333333331</ele><time>2026-03-28T10:51:11Z</time></trkpt><trkpt lat="45.62612219636397" lon="8.848123587975024"><ele>234.0</ele><time>2026-03-28T10:51:12Z</time></trkpt><trkpt lat="45.62619000764425" lon="8.847923693990708"><ele>234.33333333333331</ele><time>2026-03-28T10:51:13Z</time></trkpt><trkpt lat="45.62625598772189" lon="8.847721656628064"><ele>234.66666666666666</ele><time>2026-03-28T10:51:14Z</time></trkpt><trkpt lat="45.62635521509284" lon="8.847551000313276"><ele>235.0</ele><time>2026-03-28T10:51:15Z</time></trkpt><trkpt lat="45.62642303660225" lon="8.84736401986832"><ele>235.0</ele><time>2026-03-28T10:51:16Z</time></trkpt><trkpt lat="45.62649356608849" lon="8.847169665121106"><ele>235.0</ele><time>2026-03-28T10:51:17Z</time></trkpt><trkpt lat="45.62655612980639" lon="8.846989319905916"><ele>235.0</ele><time>2026-03-28T10:51:18Z</time></trkpt><trkpt lat="45.62662364478457" lon="8.846799943541676"><ele>235.0</ele><time>2026-03-28T10:51:19Z</time></trkpt><trkpt lat="45.626690528097235" lon="8.846608874606565"><ele>235.0</ele><time>2026-03-28T10:51:20Z</time></trkpt><trkpt lat="45.62675642199165" lon="8.846421160082292"><ele>235.0</ele><time>2026-03-28T10:51:21Z</time></trkpt><trkpt lat="45.6268132499394" lon="8.846259099565264"><ele>235.0</ele><time>2026-03-28T10:51:22Z</time></trkpt><trkpt lat="45.62687331696242" lon="8.846089058111147"><ele>235.0</ele><time>2026-03-28T10:51:23Z</time></trkpt><trkpt lat="45.6269226127547" lon="8.845913042557852"><ele>236.0</ele><time>2026-03-28T10:51:24Z</time></trkpt><trkpt lat="45.62698723086762" lon="8.845746104405773"><ele>237.0</ele><time>2026-03-28T10:51:25Z</time></trkpt><trkpt lat="45.627049849126344" lon="8.845559163052537"><ele>238.0</ele><time>2026-03-28T10:51:26Z</time></trkpt><trkpt lat="45.62711594454268" lon="8.84537174033117"><ele>239.0</ele><time>2026-03-28T10:51:27Z</time></trkpt><trkpt lat="45.62719355632059" lon="8.84522365036013"><ele>239.5</ele><time>2026-03-28T10:51:28Z</time></trkpt><trkpt lat="45.62725571370564" lon="8.845061182568957"><ele>240.0</ele><time>2026-03-28T10:51:29Z</time></trkpt><trkpt lat="45.627319142379086" lon="8.84488481123565"><ele>240.5</ele><time>2026-03-28T10:51:30Z</time></trkpt><trkpt lat="45.62738477164016" lon="8.844701802649505"><ele>241.0</ele><time>2026-03-28T10:51:31Z</time></trkpt><trkpt lat="45.627453516798404" lon="8.844492284864797"><ele>241.0</ele><time>2026-03-28T10:51:32Z</time></trkpt><trkpt lat="45.62751786579431" lon="8.844325874907044"><ele>241.0</ele><time>2026-03-28T10:51:33Z</time></trkpt><trkpt lat="45.62757422882178" lon="8.844151413740462"><ele>241.0</ele><time>2026-03-28T10:51:34Z</time></trkpt><trkpt lat="45.62762762116465" lon="8.843990851167915"><ele>241.0</ele><time>2026-03-28T10:51:35Z</time></trkpt><trkpt lat="45.62767488430096" lon="8.843844406127676"><ele>239.60000000000002</ele><time>2026-03-28T10:51:36Z</time></trkpt><trkpt lat="45.62771675273517" lon="8.84371380186257"><ele>238.20000000000002</ele><time>2026-03-28T10:51:37Z</time></trkpt><trkpt lat="45.62775186093431" lon="8.84359663781664"><ele>236.79999999999998</ele><time>2026-03-28T10:51:38Z</time></trkpt><trkpt lat="45.62779203476384" lon="8.843499059094453"><ele>235.39999999999998</ele><time>2026-03-28T10:51:39Z</time></trkpt><trkpt lat="45.62782167126201" lon="8.843419288267638"><ele>234.0</ele><time>2026-03-28T10:51:40Z</time></trkpt><trkpt lat="45.62790935138252" lon="8.843305352837008"><ele>234.0</ele><time>2026-03-28T10:51:42Z</time></trkpt><trkpt lat="45.62797721872019" lon="8.843252717598897"><ele>234.00000000000003</ele><time>2026-03-28T10:51:43Z</time></trkpt><trkpt lat="45.628031218897014" lon="8.843184329607448"><ele>234.0</ele><time>2026-03-28T10:51:44Z</time></trkpt><trkpt lat="45.628057245620965" lon="8.843086208087621"><ele>234.0</ele><time>2026-03-28T10:51:45Z</time></trkpt><trkpt lat="45.62806485943124" lon="8.842967276584647"><ele>234.00000000000003</ele><time>2026-03-28T10:51:45.999Z</time></trkpt><trkpt lat="45.628065989393505" lon="8.842867432327887"><ele>234.0</ele><time>2026-03-28T10:51:46.999Z</time></trkpt><trkpt lat="45.62806676212249" lon="8.84276914151972"><ele>234.0</ele><time>2026-03-28T10:51:47.999Z</time></trkpt><trkpt lat="45.628085712083426" lon="8.842663181430227"><ele>234.2</ele><time>2026-03-28T10:51:48.999Z</time></trkpt><trkpt lat="45.62812299722424" lon="8.842550270532401"><ele>234.39999999999998</ele><time>2026-03-28T10:51:49.999Z</time></trkpt><trkpt lat="45.628159620447576" lon="8.842439870975529"><ele>234.6</ele><time>2026-03-28T10:51:50.999Z</time></trkpt><trkpt lat="45.62820497695328" lon="8.842325038250834"><ele>234.8</ele><time>2026-03-28T10:51:51.999Z</time></trkpt><trkpt lat="45.628251555354716" lon="8.842196605457804"><ele>235.0</ele><time>2026-03-28T10:51:52.999Z</time></trkpt><trkpt lat="45.628294096147165" lon="8.842060549186048"><ele>234.99999999999997</ele><time>2026-03-28T10:51:53.999Z</time></trkpt><trkpt lat="45.62833270131564" lon="8.841947174192219"><ele>235.0</ele><time>2026-03-28T10:51:54.999Z</time></trkpt><trkpt lat="45.6283672339857" lon="8.841835414973897"><ele>235.0</ele><time>2026-03-28T10:51:55.999Z</time></trkpt><trkpt lat="45.62840237735913" lon="8.84172009225004"><ele>235.0</ele><time>2026-03-28T10:51:56.999Z</time></trkpt><trkpt lat="45.62844149952261" lon="8.841616929956393"><ele>234.99999999999997</ele><time>2026-03-28T10:51:57.999Z</time></trkpt><trkpt lat="45.62847382991357" lon="8.841514844507723"><ele>235.0</ele><time>2026-03-28T10:51:58.999Z</time></trkpt><trkpt lat="45.62850767207565" lon="8.841421915724043"><ele>234.99999999999997</ele><time>2026-03-28T10:51:59.999Z</time></trkpt><trkpt lat="45.62854072254449" lon="8.841324604089767"><ele>235.0</ele><time>2026-03-28T10:52:00.999Z</time></trkpt><trkpt lat="45.62857658457126" lon="8.841245266000476"><ele>235.0</ele><time>2026-03-28T10:52:01.999Z</time></trkpt><trkpt lat="45.62861391284128" lon="8.841141526651324"><ele>235.0</ele><time>2026-03-28T10:52:02.999Z</time></trkpt><trkpt lat="45.628656438211365" lon="8.84103426417046"><ele>234.99999999999997</ele><time>2026-03-28T10:52:03.999Z</time></trkpt><trkpt lat="45.62870086724875" lon="8.840905221288352"><ele>235.0</ele><time>2026-03-28T10:52:04.999Z</time></trkpt><trkpt lat="45.62874638877878" lon="8.840769384380211"><ele>235.8</ele><time>2026-03-28T10:52:05.999Z</time></trkpt><trkpt lat="45.62878844766729" lon="8.840646992069"><ele>236.6</ele><time>2026-03-28T10:52:06.999Z</time></trkpt><trkpt lat="45.6288314585573" lon="8.84052184229618"><ele>237.39999999999998</ele><time>2026-03-28T10:52:07.999Z</time></trkpt><trkpt lat="45.62889344373541" lon="8.840407378962285"><ele>238.2</ele><time>2026-03-28T10:52:08.999Z</time></trkpt><trkpt lat="45.628944018644205" lon="8.840249231414047"><ele>239.0</ele><time>2026-03-28T10:52:09.999Z</time></trkpt><trkpt lat="45.628993650264846" lon="8.840113824749789"><ele>239.2</ele><time>2026-03-28T10:52:10.999Z</time></trkpt><trkpt lat="45.629042029514984" lon="8.839972389052102"><ele>239.39999999999998</ele><time>2026-03-28T10:52:11.999Z</time></trkpt><trkpt lat="45.629087031594544" lon="8.839840623062795"><ele>239.6</ele><time>2026-03-28T10:52:12.999Z</time></trkpt><trkpt lat="45.62912263389762" lon="8.839706399368003"><ele>239.8</ele><time>2026-03-28T10:52:13.999Z</time></trkpt><trkpt lat="45.62915904861865" lon="8.839576564883519"><ele>240.0</ele><time>2026-03-28T10:52:14.999Z</time></trkpt><trkpt lat="45.62919407699144" lon="8.839487363950953"><ele>240.0</ele><time>2026-03-28T10:52:15.999Z</time></trkpt><trkpt lat="45.629225962210015" lon="8.839378602275014"><ele>240.0</ele><time>2026-03-28T10:52:16.999Z</time></trkpt><trkpt lat="45.62926395401333" lon="8.8392807405171"><ele>240.0</ele><time>2026-03-28T10:52:17.999Z</time></trkpt><trkpt lat="45.629297660659915" lon="8.839184935536471"><ele>240.0</ele><time>2026-03-28T10:52:18.999Z</time></trkpt><trkpt lat="45.62934150644416" lon="8.839099450416429"><ele>240.0</ele><time>2026-03-28T10:52:19.999Z</time></trkpt><trkpt lat="45.6294094202969" lon="8.839032131843465"><ele>240.0</ele><time>2026-03-28T10:52:20.999Z</time></trkpt><trkpt lat="45.62946463735976" lon="8.838956653724"><ele>238.4</ele><time>2026-03-28T10:52:21.999Z</time></trkpt><trkpt lat="45.62949775118806" lon="8.838845082908007"><ele>236.8</ele><time>2026-03-28T10:52:22.999Z</time></trkpt><trkpt lat="45.62952548984877" lon="8.83872323429768"><ele>235.2</ele><time>2026-03-28T10:52:23.999Z</time></trkpt><trkpt lat="45.62956688547683" lon="8.8386038173299"><ele>233.6</ele><time>2026-03-28T10:52:24.999Z</time></trkpt><trkpt lat="45.62963055171847" lon="8.838507808991418"><ele>232.0</ele><time>2026-03-28T10:52:25.999Z</time></trkpt><trkpt lat="45.62971322861117" lon="8.838418939920656"><ele>232.0</ele><time>2026-03-28T10:52:26.999Z</time></trkpt><trkpt lat="45.62979396302669" lon="8.838326467675577"><ele>232.0</ele><time>2026-03-28T10:52:27.999Z</time></trkpt><trkpt lat="45.62986707343516" lon="8.83822969255531"><ele>232.0</ele><time>2026-03-28T10:52:28.999Z</time></trkpt><trkpt lat="45.629935260148756" lon="8.83811530400049"><ele>232.0</ele><time>2026-03-28T10:52:29.999Z</time></trkpt><trkpt lat="45.63000355393077" lon="8.838009090456104"><ele>232.0</ele><time>2026-03-28T10:52:30.999Z</time></trkpt><trkpt lat="45.6300742159013" lon="8.83790477255387"><ele>232.0</ele><time>2026-03-28T10:52:31.999Z</time></trkpt><trkpt lat="45.630139389822965" lon="8.837798524685121"><ele>232.0</ele><time>2026-03-28T10:52:32.999Z</time></trkpt><trkpt lat="45.63020148081091" lon="8.837699885818127"><ele>232.0</ele><time>2026-03-28T10:52:33.999Z</time></trkpt><trkpt lat="45.63027300944968" lon="8.83760767908972"><ele>232.0</ele><time>2026-03-28T10:52:34.999Z</time></trkpt><trkpt lat="45.63033971900356" lon="8.837506026390221"><ele>232.0</ele><time>2026-03-28T10:52:35.999Z</time></trkpt><trkpt lat="45.63040869415532" lon="8.837406195414967"><ele>232.6</ele><time>2026-03-28T10:52:36.999Z</time></trkpt><trkpt lat="45.63047492061309" lon="8.837304079070144"><ele>233.2</ele><time>2026-03-28T10:52:37.999Z</time></trkpt><trkpt lat="45.6305314859781" lon="8.837194658488267"><ele>233.8</ele><time>2026-03-28T10:52:39Z</time></trkpt><trkpt lat="45.63059432498452" lon="8.837086500954904"><ele>234.4</ele><time>2026-03-28T10:52:40Z</time></trkpt><trkpt lat="45.63067629101181" lon="8.836992214628394"><ele>235.0</ele><time>2026-03-28T10:52:41Z</time></trkpt><trkpt lat="45.630753185363425" lon="8.83687499716936"><ele>235.0</ele><time>2026-03-28T10:52:42Z</time></trkpt><trkpt lat="45.63082228109982" lon="8.836768466757558"><ele>235.0</ele><time>2026-03-28T10:52:43Z</time></trkpt><trkpt lat="45.63088658787551" lon="8.836671844296408"><ele>235.0</ele><time>2026-03-28T10:52:44Z</time></trkpt><trkpt lat="45.63094317177353" lon="8.836557520841827"><ele>235.0</ele><time>2026-03-28T10:52:45Z</time></trkpt><trkpt lat="45.63101184762689" lon="8.836452528652687"><ele>235.0</ele><time>2026-03-28T10:52:46Z</time></trkpt><trkpt lat="45.63109001663015" lon="8.836366063403426"><ele>235.4</ele><time>2026-03-28T10:52:47Z</time></trkpt><trkpt lat="45.631154704739046" lon="8.836269650878817"><ele>235.8</ele><time>2026-03-28T10:52:48Z</time></trkpt><trkpt lat="45.63121354308214" lon="8.836181838528432"><ele>236.2</ele><time>2026-03-28T10:52:49Z</time></trkpt><trkpt lat="45.6312707784544" lon="8.83609444455117"><ele>236.6</ele><time>2026-03-28T10:52:50Z</time></trkpt><trkpt lat="45.63132366615112" lon="8.836013689187109"><ele>237.0</ele><time>2026-03-28T10:52:51Z</time></trkpt><trkpt lat="45.631415502888075" lon="8.83587403706357"><ele>237.0</ele><time>2026-03-28T10:52:53Z</time></trkpt><trkpt lat="45.6314688434031" lon="8.835790950493605"><ele>237.0</ele><time>2026-03-28T10:52:54Z</time></trkpt><trkpt lat="45.63152812942417" lon="8.835693558800008"><ele>237.0</ele><time>2026-03-28T10:52:55Z</time></trkpt><trkpt lat="45.63159513443416" lon="8.835577545494594"><ele>237.0</ele><time>2026-03-28T10:52:56Z</time></trkpt><trkpt lat="45.63166906166781" lon="8.835471319458994"><ele>237.0</ele><time>2026-03-28T10:52:57Z</time></trkpt><trkpt lat="45.63173772752049" lon="8.835362725294797"><ele>237.0</ele><time>2026-03-28T10:52:58Z</time></trkpt><trkpt lat="45.63180972014567" lon="8.835292407402488"><ele>237.0</ele><time>2026-03-28T10:52:59Z</time></trkpt><trkpt lat="45.63187341784208" lon="8.835193026623767"><ele>237.0</ele><time>2026-03-28T10:53:00Z</time></trkpt><trkpt lat="45.63194387896589" lon="8.835076808773463"><ele>237.0</ele><time>2026-03-28T10:53:01Z</time></trkpt><trkpt lat="45.632018895871894" lon="8.834957102345813"><ele>237.0</ele><time>2026-03-28T10:53:02Z</time></trkpt><trkpt lat="45.632090019194194" lon="8.834844670098775"><ele>237.2</ele><time>2026-03-28T10:53:03Z</time></trkpt><trkpt lat="45.63215292274915" lon="8.834752943342227"><ele>237.39999999999998</ele><time>2026-03-28T10:53:04Z</time></trkpt><trkpt lat="45.632210600012726" lon="8.83466719189709"><ele>237.60000000000002</ele><time>2026-03-28T10:53:05Z</time></trkpt><trkpt lat="45.63227228568078" lon="8.834557959763362"><ele>237.8</ele><time>2026-03-28T10:53:06Z</time></trkpt><trkpt lat="45.63233834091407" lon="8.834450302394343"><ele>238.0</ele><time>2026-03-28T10:53:07Z</time></trkpt><trkpt lat="45.63239558054713" lon="8.834362974444147"><ele>237.99999999999997</ele><time>2026-03-28T10:53:08Z</time></trkpt><trkpt lat="45.63245196080944" lon="8.834272364925953"><ele>238.0</ele><time>2026-03-28T10:53:09Z</time></trkpt><trkpt lat="45.63249954405707" lon="8.834213048394684"><ele>238.0</ele><time>2026-03-28T10:53:10Z</time></trkpt><trkpt lat="45.63254558155595" lon="8.83414774966349"><ele>238.0</ele><time>2026-03-28T10:53:11Z</time></trkpt><trkpt lat="45.632617470555374" lon="8.834050657228973"><ele>237.99999999999997</ele><time>2026-03-28T10:53:13Z</time></trkpt><trkpt lat="45.63270901553001" lon="8.833999918016312"><ele>238.0</ele><time>2026-03-28T10:53:15Z</time></trkpt><trkpt lat="45.63283157170401" lon="8.83396964695093"><ele>237.99999999999997</ele><time>2026-03-28T10:53:17Z</time></trkpt><trkpt lat="45.632887557575316" lon="8.833898098197972"><ele>238.0</ele><time>2026-03-28T10:53:18Z</time></trkpt><trkpt lat="45.63294678555951" lon="8.833738221613745"><ele>238.0</ele><time>2026-03-28T10:53:20Z</time></trkpt><trkpt lat="45.63296718560228" lon="8.833645254438524"><ele>238.0</ele><time>2026-03-28T10:53:21Z</time></trkpt><trkpt lat="45.632993637279476" lon="8.833530527778642"><ele>237.99999999999997</ele><time>2026-03-28T10:53:22Z</time></trkpt><trkpt lat="45.63303521502432" lon="8.833411004571381"><ele>238.0</ele><time>2026-03-28T10:53:23Z</time></trkpt><trkpt lat="45.633092975872536" lon="8.8333124963715"><ele>238.0</ele><time>2026-03-28T10:53:24Z</time></trkpt><trkpt lat="45.63316285094144" lon="8.833207078321637"><ele>238.0</ele><time>2026-03-28T10:53:25Z</time></trkpt><trkpt lat="45.63323597721489" lon="8.833104179127186"><ele>238.0</ele><time>2026-03-28T10:53:26Z</time></trkpt><trkpt lat="45.63330451057365" lon="8.832995283620727"><ele>238.0</ele><time>2026-03-28T10:53:27Z</time></trkpt><trkpt lat="45.633379395907355" lon="8.83287988453581"><ele>238.0</ele><time>2026-03-28T10:53:28Z</time></trkpt><trkpt lat="45.63345205322138" lon="8.832767864134727"><ele>238.0</ele><time>2026-03-28T10:53:29Z</time></trkpt><trkpt lat="45.633527246321286" lon="8.832660521158726"><ele>238.0</ele><time>2026-03-28T10:53:30Z</time></trkpt><trkpt lat="45.63360163590254" lon="8.832546500983373"><ele>238.0</ele><time>2026-03-28T10:53:31Z</time></trkpt><trkpt lat="45.63367612197748" lon="8.832429830263477"><ele>238.0</ele><time>2026-03-28T10:53:32Z</time></trkpt><trkpt lat="45.6337540556351" lon="8.832314166955756"><ele>238.0</ele><time>2026-03-28T10:53:33Z</time></trkpt><trkpt lat="45.633842040541126" lon="8.832184684191867"><ele>238.25</ele><time>2026-03-28T10:53:34Z</time></trkpt><trkpt lat="45.6339321764361" lon="8.832055799597352"><ele>238.5</ele><time>2026-03-28T10:53:35Z</time></trkpt><trkpt lat="45.63402075710313" lon="8.831923889617366"><ele>238.75</ele><time>2026-03-28T10:53:36Z</time></trkpt><trkpt lat="45.634112365386095" lon="8.831791453384534"><ele>239.0</ele><time>2026-03-28T10:53:37Z</time></trkpt><trkpt lat="45.6342011529172" lon="8.831655181331792"><ele>239.0</ele><time>2026-03-28T10:53:38Z</time></trkpt><trkpt lat="45.634286085874734" lon="8.831511217460804"><ele>239.0</ele><time>2026-03-28T10:53:39Z</time></trkpt><trkpt lat="45.63437521333325" lon="8.831362978412399"><ele>239.0</ele><time>2026-03-28T10:53:40Z</time></trkpt><trkpt lat="45.63446269930044" lon="8.831218333814544"><ele>239.0</ele><time>2026-03-28T10:53:41Z</time></trkpt><trkpt lat="45.63454864941832" lon="8.831082410347868"><ele>238.0</ele><time>2026-03-28T10:53:42Z</time></trkpt><trkpt lat="45.6346320255118" lon="8.830948452665288"><ele>237.0</ele><time>2026-03-28T10:53:43Z</time></trkpt><trkpt lat="45.63472606269464" lon="8.830854566458491"><ele>236.0</ele><time>2026-03-28T10:53:44Z</time></trkpt><trkpt lat="45.63481050657342" lon="8.830719856702732"><ele>235.0</ele><time>2026-03-28T10:53:45Z</time></trkpt><trkpt lat="45.63489160652811" lon="8.830580477952259"><ele>235.0</ele><time>2026-03-28T10:53:46Z</time></trkpt><trkpt lat="45.63497403054704" lon="8.830447458337593"><ele>235.0</ele><time>2026-03-28T10:53:47Z</time></trkpt><trkpt lat="45.63505388352666" lon="8.830318730044324"><ele>235.0</ele><time>2026-03-28T10:53:48Z</time></trkpt><trkpt lat="45.635133796108526" lon="8.830179830510653"><ele>235.0</ele><time>2026-03-28T10:53:49Z</time></trkpt><trkpt lat="45.63521581959092" lon="8.830046340783197"><ele>235.0</ele><time>2026-03-28T10:53:49.999Z</time></trkpt><trkpt lat="45.63529676020536" lon="8.829912651290687"><ele>235.0</ele><time>2026-03-28T10:53:50.999Z</time></trkpt><trkpt lat="45.63537899592683" lon="8.829782426690555"><ele>235.0</ele><time>2026-03-28T10:53:51.999Z</time></trkpt><trkpt lat="45.635454880861" lon="8.82965583030386"><ele>235.0</ele><time>2026-03-28T10:53:52.999Z</time></trkpt><trkpt lat="45.63552872353335" lon="8.829576867247674"><ele>234.99999999999997</ele><time>2026-03-28T10:53:53.999Z</time></trkpt><trkpt lat="45.63559393423047" lon="8.8294788306545"><ele>235.0</ele><time>2026-03-28T10:53:54.999Z</time></trkpt><trkpt lat="45.63565618493142" lon="8.829385430574915"><ele>235.0</ele><time>2026-03-28T10:53:55.999Z</time></trkpt><trkpt lat="45.63572273269106" lon="8.829301673741854"><ele>235.0</ele><time>2026-03-28T10:53:56.999Z</time></trkpt><trkpt lat="45.635783574617676" lon="8.8292406021172"><ele>234.99999999999997</ele><time>2026-03-28T10:53:57.999Z</time></trkpt><trkpt lat="45.63585362148459" lon="8.829200972211178"><ele>235.0</ele><time>2026-03-28T10:53:58.999Z</time></trkpt><trkpt lat="45.635924406991116" lon="8.829164081111884"><ele>235.16666666666666</ele><time>2026-03-28T10:53:59.999Z</time></trkpt><trkpt lat="45.635976138797595" lon="8.829085248108779"><ele>235.33333333333331</ele><time>2026-03-28T10:54:00.999Z</time></trkpt><trkpt lat="45.636009915700974" lon="8.828971999781176"><ele>235.5</ele><time>2026-03-28T10:54:01.999Z</time></trkpt><trkpt lat="45.636031171617674" lon="8.82885310707161"><ele>235.66666666666669</ele><time>2026-03-28T10:54:02.999Z</time></trkpt><trkpt lat="45.63606535874921" lon="8.828751100413966"><ele>235.83333333333334</ele><time>2026-03-28T10:54:03.999Z</time></trkpt><trkpt lat="45.63611587268701" lon="8.828655282294198"><ele>236.0</ele><time>2026-03-28T10:54:04.999Z</time></trkpt><trkpt lat="45.63616887948031" lon="8.828577522255632"><ele>236.33333333333334</ele><time>2026-03-28T10:54:05.999Z</time></trkpt><trkpt lat="45.636210574572296" lon="8.82850448006858"><ele>236.66666666666669</ele><time>2026-03-28T10:54:06.999Z</time></trkpt><trkpt lat="45.63629274776503" lon="8.828441088549008"><ele>237.0</ele><time>2026-03-28T10:54:08.999Z</time></trkpt><trkpt lat="45.63635859527763" lon="8.828429460906845"><ele>237.33333333333331</ele><time>2026-03-28T10:54:11.999Z</time></trkpt><trkpt lat="45.63640310545703" lon="8.82834331352293"><ele>237.66666666666666</ele><time>2026-03-28T10:54:15.999Z</time></trkpt><trkpt lat="45.63649653206809" lon="8.828439233800866"><ele>238.0</ele><time>2026-03-28T10:54:16.999Z</time></trkpt><trkpt lat="45.636535517408134" lon="8.828364424128095"><ele>237.99999999999997</ele><time>2026-03-28T11:03:22.999Z</time></trkpt><trkpt lat="45.636570645521196" lon="8.828242441611067"><ele>238.0</ele><time>2026-03-28T11:03:24.999Z</time></trkpt><trkpt lat="45.636618582859874" lon="8.82811789307173"><ele>238.0</ele><time>2026-03-28T11:03:26.999Z</time></trkpt><trkpt lat="45.63668672816203" lon="8.827983986404988"><ele>238.0</ele><time>2026-03-28T11:03:28.999Z</time></trkpt><trkpt lat="45.63673882878006" lon="8.827924064374018"><ele>237.99999999999997</ele><time>2026-03-28T11:03:29.999Z</time></trkpt><trkpt lat="45.63678923097245" lon="8.8278575059143"><ele>238.0</ele><time>2026-03-28T11:03:30.999Z</time></trkpt><trkpt lat="45.63683006257237" lon="8.827775745919432"><ele>237.99999999999997</ele><time>2026-03-28T11:03:31.999Z</time></trkpt><trkpt lat="45.6368659733133" lon="8.827671178645122"><ele>238.0</ele><time>2026-03-28T11:03:32.999Z</time></trkpt><trkpt lat="45.636898937568056" lon="8.82757825681101"><ele>238.0</ele><time>2026-03-28T11:03:33.999Z</time></trkpt><trkpt lat="45.636923990740385" lon="8.827469195219892"><ele>238.0</ele><time>2026-03-28T11:03:34.999Z</time></trkpt><trkpt lat="45.63695182818625" lon="8.827334343223297"><ele>237.99999999999997</ele><time>2026-03-28T11:03:35.999Z</time></trkpt><trkpt lat="45.6369988881349" lon="8.827212670816055"><ele>238.0</ele><time>2026-03-28T11:03:36.999Z</time></trkpt><trkpt lat="45.63707018785887" lon="8.827108068449142"><ele>238.0</ele><time>2026-03-28T11:03:37.999Z</time></trkpt><trkpt lat="45.63714807378471" lon="8.82700156508824"><ele>238.0</ele><time>2026-03-28T11:03:38.999Z</time></trkpt><trkpt lat="45.637221163862776" lon="8.826879607091026"><ele>238.0</ele><time>2026-03-28T11:03:39.999Z</time></trkpt><trkpt lat="45.63730463836058" lon="8.826767967232218"><ele>238.0</ele><time>2026-03-28T11:03:40.999Z</time></trkpt><trkpt lat="45.63738301950875" lon="8.826679266876159"><ele>238.0</ele><time>2026-03-28T11:03:41.999Z</time></trkpt><trkpt lat="45.63747214623351" lon="8.826613352158521"><ele>238.0</ele><time>2026-03-28T11:03:42.999Z</time></trkpt><trkpt lat="45.63755518960195" lon="8.826532028587502"><ele>238.0</ele><time>2026-03-28T11:03:43.999Z</time></trkpt><trkpt lat="45.63761367216793" lon="8.826404620938657"><ele>238.0</ele><time>2026-03-28T11:03:44.999Z</time></trkpt><trkpt lat="45.63764663779077" lon="8.826238983817678"><ele>238.0</ele><time>2026-03-28T11:03:45.999Z</time></trkpt><trkpt lat="45.63770708358454" lon="8.826088361946397"><ele>238.0</ele><time>2026-03-28T11:03:46.999Z</time></trkpt><trkpt lat="45.63779194845455" lon="8.825970558674497"><ele>237.8</ele><time>2026-03-28T11:03:47.999Z</time></trkpt><trkpt lat="45.63787329260855" lon="8.825861044712884"><ele>237.60000000000002</ele><time>2026-03-28T11:03:48.999Z</time></trkpt><trkpt lat="45.637942997824815" lon="8.825740097791236"><ele>237.39999999999998</ele><time>2026-03-28T11:03:49.999Z</time></trkpt><trkpt lat="45.638012693478856" lon="8.825641458170539"><ele>237.2</ele><time>2026-03-28T11:03:50.999Z</time></trkpt><trkpt lat="45.63807922353683" lon="8.825544051075047"><ele>237.0</ele><time>2026-03-28T11:03:51.999Z</time></trkpt><trkpt lat="45.6381377058921" lon="8.82544871334305"><ele>237.0</ele><time>2026-03-28T11:03:52.999Z</time></trkpt><trkpt lat="45.638193512951965" lon="8.825364307112306"><ele>237.0</ele><time>2026-03-28T11:03:53.999Z</time></trkpt><trkpt lat="45.638245025121364" lon="8.825283230818867"><ele>237.0</ele><time>2026-03-28T11:03:54.999Z</time></trkpt><trkpt lat="45.63832679634081" lon="8.825189221968378"><ele>237.0</ele><time>2026-03-28T11:03:56.999Z</time></trkpt><trkpt lat="45.638404005628495" lon="8.825076669201215"><ele>237.0</ele><time>2026-03-28T11:04:14.999Z</time></trkpt><trkpt lat="45.63843597979248" lon="8.82499826780312"><ele>237.0</ele><time>2026-03-28T11:04:15.999Z</time></trkpt><trkpt lat="45.638472902069566" lon="8.824918107462889"><ele>237.8</ele><time>2026-03-28T11:04:16.999Z</time></trkpt><trkpt lat="45.63852121450528" lon="8.824837802794848"><ele>238.6</ele><time>2026-03-28T11:04:17.999Z</time></trkpt><trkpt lat="45.638584946531076" lon="8.824738671333899"><ele>239.40000000000003</ele><time>2026-03-28T11:04:18.999Z</time></trkpt><trkpt lat="45.63866848256756" lon="8.824648255753608"><ele>240.20000000000002</ele><time>2026-03-28T11:04:19.999Z</time></trkpt><trkpt lat="45.63874068016368" lon="8.824534835155585"><ele>241.0</ele><time>2026-03-28T11:04:20.999Z</time></trkpt><trkpt lat="45.638821523493" lon="8.824397586893111"><ele>241.5</ele><time>2026-03-28T11:04:22Z</time></trkpt><trkpt lat="45.63890018220713" lon="8.824286901304458"><ele>242.0</ele><time>2026-03-28T11:04:23Z</time></trkpt><trkpt lat="45.63898821222513" lon="8.824161433570223"><ele>242.5</ele><time>2026-03-28T11:04:24Z</time></trkpt><trkpt lat="45.63907686446828" lon="8.824035909786456"><ele>243.0</ele><time>2026-03-28T11:04:25Z</time></trkpt><trkpt lat="45.63917428095059" lon="8.82389431669794"><ele>243.0</ele><time>2026-03-28T11:04:26Z</time></trkpt><trkpt lat="45.63927462705919" lon="8.8237399151013"><ele>243.0</ele><time>2026-03-28T11:04:27Z</time></trkpt><trkpt lat="45.63938829541441" lon="8.823580587664905"><ele>243.0</ele><time>2026-03-28T11:04:28Z</time></trkpt><trkpt lat="45.639503808173416" lon="8.823421746574397"><ele>241.33333333333331</ele><time>2026-03-28T11:04:29Z</time></trkpt><trkpt lat="45.63961599579476" lon="8.823273701229347"><ele>239.66666666666666</ele><time>2026-03-28T11:04:30Z</time></trkpt><trkpt lat="45.639728785522024" lon="8.823118835897446"><ele>238.0</ele><time>2026-03-28T11:04:31Z</time></trkpt><trkpt lat="45.63983101064685" lon="8.82296301518286"><ele>238.0</ele><time>2026-03-28T11:04:32Z</time></trkpt><trkpt lat="45.63993555259924" lon="8.822815644731824"><ele>238.0</ele><time>2026-03-28T11:04:33Z</time></trkpt><trkpt lat="45.64004077398977" lon="8.8226741443513"><ele>238.0</ele><time>2026-03-28T11:04:34Z</time></trkpt><trkpt lat="45.640147757533235" lon="8.822527072459284"><ele>238.0</ele><time>2026-03-28T11:04:35Z</time></trkpt><trkpt lat="45.64025006355281" lon="8.822412661921739"><ele>238.75</ele><time>2026-03-28T11:04:36Z</time></trkpt><trkpt lat="45.640343988120506" lon="8.822307210045706"><ele>239.5</ele><time>2026-03-28T11:04:37Z</time></trkpt><trkpt lat="45.64043995060194" lon="8.822173281887299"><ele>240.25</ele><time>2026-03-28T11:04:38Z</time></trkpt><trkpt lat="45.64053636674565" lon="8.822071654422752"><ele>241.0</ele><time>2026-03-28T11:04:39Z</time></trkpt><trkpt lat="45.64063550693473" lon="8.821974341480184"><ele>241.0</ele><time>2026-03-28T11:04:40Z</time></trkpt><trkpt lat="45.64072939083256" lon="8.821868582606367"><ele>241.0</ele><time>2026-03-28T11:04:41Z</time></trkpt><trkpt lat="45.64082894975822" lon="8.821768103499636"><ele>241.0</ele><time>2026-03-28T11:04:42Z</time></trkpt><trkpt lat="45.64093025258423" lon="8.821698425282948"><ele>241.0</ele><time>2026-03-28T11:04:43Z</time></trkpt><trkpt lat="45.64103208641977" lon="8.8215807010308"><ele>241.0</ele><time>2026-03-28T11:04:44Z</time></trkpt><trkpt lat="45.64111287809652" lon="8.821453253769988"><ele>241.00000000000003</ele><time>2026-03-28T11:04:45Z</time></trkpt><trkpt lat="45.64117844504894" lon="8.821351094366499"><ele>241.00000000000003</ele><time>2026-03-28T11:04:46Z</time></trkpt><trkpt lat="45.6412394794247" lon="8.82124124423698"><ele>241.0</ele><time>2026-03-28T11:04:47Z</time></trkpt><trkpt lat="45.64129657603695" lon="8.821111339362941"><ele>241.0</ele><time>2026-03-28T11:04:48Z</time></trkpt><trkpt lat="45.64132613063836" lon="8.820937410178546"><ele>241.0</ele><time>2026-03-28T11:04:49Z</time></trkpt><trkpt lat="45.64133781544219" lon="8.820751845363628"><ele>241.0</ele><time>2026-03-28T11:04:50Z</time></trkpt><trkpt lat="45.64131777493528" lon="8.820543834722192"><ele>241.0</ele><time>2026-03-28T11:04:51Z</time></trkpt><trkpt lat="45.64129247635053" lon="8.820338018199962"><ele>241.0</ele><time>2026-03-28T11:04:52Z</time></trkpt><trkpt lat="45.64127310568165" lon="8.820130206492545"><ele>241.0</ele><time>2026-03-28T11:04:53Z</time></trkpt><trkpt lat="45.6412511964818" lon="8.81992096305938"><ele>241.0</ele><time>2026-03-28T11:04:54Z</time></trkpt><trkpt lat="45.64122559155931" lon="8.819732593249096"><ele>241.0</ele><time>2026-03-28T11:04:55Z</time></trkpt><trkpt lat="45.64117115894021" lon="8.81954152794724"><ele>241.0</ele><time>2026-03-28T11:04:56Z</time></trkpt><trkpt lat="45.641104492518615" lon="8.819363995425816"><ele>241.0</ele><time>2026-03-28T11:04:57Z</time></trkpt><trkpt lat="45.641046180237865" lon="8.819183854655446"><ele>241.0</ele><time>2026-03-28T11:04:58Z</time></trkpt><trkpt lat="45.64094275975745" lon="8.819015177916366"><ele>241.0</ele><time>2026-03-28T11:04:59Z</time></trkpt><trkpt lat="45.64084648249907" lon="8.818911387077414"><ele>241.0</ele><time>2026-03-28T11:05:00Z</time></trkpt><trkpt lat="45.64072188154332" lon="8.818822735463884"><ele>241.0</ele><time>2026-03-28T11:05:01Z</time></trkpt><trkpt lat="45.64061228919681" lon="8.818812752897447"><ele>241.00000000000003</ele><time>2026-03-28T11:05:02Z</time></trkpt><trkpt lat="45.640504571294905" lon="8.818763482937067"><ele>241.00000000000003</ele><time>2026-03-28T11:05:03Z</time></trkpt><trkpt lat="45.64041858771259" lon="8.818686475314403"><ele>241.0</ele><time>2026-03-28T11:05:04Z</time></trkpt><trkpt lat="45.64032916984574" lon="8.818612648419148"><ele>241.0</ele><time>2026-03-28T11:05:05Z</time></trkpt><trkpt lat="45.640274890630316" lon="8.818489241385882"><ele>241.25</ele><time>2026-03-28T11:05:06Z</time></trkpt><trkpt lat="45.64027629706854" lon="8.818328868506093"><ele>241.5</ele><time>2026-03-28T11:05:07Z</time></trkpt><trkpt lat="45.640284177796616" lon="8.818167120785116"><ele>241.75</ele><time>2026-03-28T11:05:08Z</time></trkpt><trkpt lat="45.64028286837366" lon="8.818000818606397"><ele>242.0</ele><time>2026-03-28T11:05:09Z</time></trkpt><trkpt lat="45.6402943936447" lon="8.817825119579005"><ele>240.75</ele><time>2026-03-28T11:05:10Z</time></trkpt><trkpt lat="45.64030188555355" lon="8.817650172042208"><ele>239.5</ele><time>2026-03-28T11:05:11Z</time></trkpt><trkpt lat="45.64030457558802" lon="8.817451008555249"><ele>238.25</ele><time>2026-03-28T11:05:12Z</time></trkpt><trkpt lat="45.64031231593321" lon="8.817244850840078"><ele>237.0</ele><time>2026-03-28T11:05:13Z</time></trkpt><trkpt lat="45.64031349902294" lon="8.817014991751309"><ele>236.33333333333331</ele><time>2026-03-28T11:05:14Z</time></trkpt><trkpt lat="45.64032159038136" lon="8.816783450617594"><ele>235.66666666666666</ele><time>2026-03-28T11:05:15Z</time></trkpt><trkpt lat="45.64032782797714" lon="8.81655773057406"><ele>235.0</ele><time>2026-03-28T11:05:16Z</time></trkpt><trkpt lat="45.640322814109126" lon="8.816326638701595"><ele>235.0</ele><time>2026-03-28T11:05:17Z</time></trkpt><trkpt lat="45.640314792941716" lon="8.816112008799387"><ele>235.0</ele><time>2026-03-28T11:05:18Z</time></trkpt><trkpt lat="45.640293581953465" lon="8.815909171068046"><ele>235.0</ele><time>2026-03-28T11:05:19Z</time></trkpt><trkpt lat="45.64028621003417" lon="8.81572241800011"><ele>235.0</ele><time>2026-03-28T11:05:20Z</time></trkpt><trkpt lat="45.640279364362115" lon="8.815550824606706"><ele>235.5</ele><time>2026-03-28T11:05:21Z</time></trkpt><trkpt lat="45.64027397830635" lon="8.815404918489397"><ele>236.0</ele><time>2026-03-28T11:05:22Z</time></trkpt><trkpt lat="45.64024833839292" lon="8.815248307320434"><ele>236.5</ele><time>2026-03-28T11:05:23Z</time></trkpt><trkpt lat="45.640258314855444" lon="8.815064579274484"><ele>237.0</ele><time>2026-03-28T11:05:24Z</time></trkpt><trkpt lat="45.64025168983907" lon="8.81487715495733"><ele>237.0</ele><time>2026-03-28T11:05:25Z</time></trkpt><trkpt lat="45.64025195791595" lon="8.81466799128632"><ele>237.0</ele><time>2026-03-28T11:05:26Z</time></trkpt><trkpt lat="45.640256178395404" lon="8.814452038522033"><ele>237.0</ele><time>2026-03-28T11:05:27Z</time></trkpt><trkpt lat="45.64026258711759" lon="8.814243691365288"><ele>237.0</ele><time>2026-03-28T11:05:28Z</time></trkpt><trkpt lat="45.64026583969451" lon="8.814015686061671"><ele>236.33333333333331</ele><time>2026-03-28T11:05:29Z</time></trkpt><trkpt lat="45.64027004312629" lon="8.813785397905185"><ele>235.66666666666666</ele><time>2026-03-28T11:05:29.999Z</time></trkpt><trkpt lat="45.64027244237892" lon="8.813539825459266"><ele>235.0</ele><time>2026-03-28T11:05:30.999Z</time></trkpt><trkpt lat="45.64027923329531" lon="8.813302841559338"><ele>235.0</ele><time>2026-03-28T11:05:31.999Z</time></trkpt><trkpt lat="45.64028779984336" lon="8.813073603042548"><ele>235.0</ele><time>2026-03-28T11:05:32.999Z</time></trkpt><trkpt lat="45.6402943430834" lon="8.812840036553437"><ele>235.0</ele><time>2026-03-28T11:05:33.999Z</time></trkpt><trkpt lat="45.64030120296003" lon="8.81261658164088"><ele>234.33333333333331</ele><time>2026-03-28T11:05:34.999Z</time></trkpt><trkpt lat="45.64030826712943" lon="8.812388280026802"><ele>233.66666666666669</ele><time>2026-03-28T11:05:35.999Z</time></trkpt><trkpt lat="45.640312745131155" lon="8.812145023318083"><ele>233.0</ele><time>2026-03-28T11:05:36.999Z</time></trkpt><trkpt lat="45.64031909491682" lon="8.811913635777431"><ele>233.0</ele><time>2026-03-28T11:05:37.999Z</time></trkpt><trkpt lat="45.64032844225347" lon="8.811680356884555"><ele>233.0</ele><time>2026-03-28T11:05:38.999Z</time></trkpt><trkpt lat="45.640337695214164" lon="8.811432712705072"><ele>233.0</ele><time>2026-03-28T11:05:39.999Z</time></trkpt><trkpt lat="45.640345557158376" lon="8.811170501320342"><ele>235.0</ele><time>2026-03-28T11:05:40.999Z</time></trkpt><trkpt lat="45.64035551063642" lon="8.81089738578798"><ele>237.0</ele><time>2026-03-28T11:05:41.999Z</time></trkpt><trkpt lat="45.64036122004008" lon="8.810623163074522"><ele>239.0</ele><time>2026-03-28T11:05:42.999Z</time></trkpt><trkpt lat="45.64037648501466" lon="8.81035285411595"><ele>240.66666666666669</ele><time>2026-03-28T11:05:43.999Z</time></trkpt><trkpt lat="45.64037963945236" lon="8.810081559820365"><ele>242.33333333333331</ele><time>2026-03-28T11:05:44.999Z</time></trkpt><trkpt lat="45.640369647823064" lon="8.809839214047566"><ele>244.0</ele><time>2026-03-28T11:05:45.999Z</time></trkpt><trkpt lat="45.64036331781299" lon="8.809558176315088"><ele>241.66666666666666</ele><time>2026-03-28T11:05:46.999Z</time></trkpt><trkpt lat="45.64038434859523" lon="8.809302658565894"><ele>239.33333333333331</ele><time>2026-03-28T11:05:47.999Z</time></trkpt><trkpt lat="45.64039807755896" lon="8.809036817902486"><ele>237.0</ele><time>2026-03-28T11:05:48.999Z</time></trkpt><trkpt lat="45.64040059079828" lon="8.808771179373112"><ele>237.0</ele><time>2026-03-28T11:05:49.999Z</time></trkpt><trkpt lat="45.64041235750359" lon="8.808510435894934"><ele>237.0</ele><time>2026-03-28T11:05:50.999Z</time></trkpt><trkpt lat="45.64042617284486" lon="8.808251930569181"><ele>237.0</ele><time>2026-03-28T11:05:51.999Z</time></trkpt><trkpt lat="45.64042918727923" lon="8.807981257320181"><ele>236.66666666666669</ele><time>2026-03-28T11:05:52.999Z</time></trkpt><trkpt lat="45.640436627340286" lon="8.80772858368085"><ele>236.33333333333334</ele><time>2026-03-28T11:05:53.999Z</time></trkpt><trkpt lat="45.64044019022173" lon="8.807477081850992"><ele>236.0</ele><time>2026-03-28T11:05:54.999Z</time></trkpt><trkpt lat="45.64044988763691" lon="8.807227156681886"><ele>236.0</ele><time>2026-03-28T11:05:55.999Z</time></trkpt><trkpt lat="45.64044676700809" lon="8.806963374841112"><ele>236.0</ele><time>2026-03-28T11:05:56.999Z</time></trkpt><trkpt lat="45.64045792942061" lon="8.806695663172299"><ele>236.0</ele><time>2026-03-28T11:05:57.999Z</time></trkpt><trkpt lat="45.64046907946472" lon="8.806432928687123"><ele>236.0</ele><time>2026-03-28T11:05:58.999Z</time></trkpt><trkpt lat="45.64047787127927" lon="8.806170576561437"><ele>236.0</ele><time>2026-03-28T11:05:59.999Z</time></trkpt><trkpt lat="45.64048391334026" lon="8.80590951953565"><ele>236.0</ele><time>2026-03-28T11:06:00.999Z</time></trkpt><trkpt lat="45.640490413767516" lon="8.80565308401527"><ele>236.0</ele><time>2026-03-28T11:06:01.999Z</time></trkpt><trkpt lat="45.64049584773432" lon="8.805395996713324"><ele>236.0</ele><time>2026-03-28T11:06:02.999Z</time></trkpt><trkpt lat="45.64050122122108" lon="8.805139558563255"><ele>236.0</ele><time>2026-03-28T11:06:03.999Z</time></trkpt><trkpt lat="45.64050730802613" lon="8.804879908295902"><ele>236.0</ele><time>2026-03-28T11:06:04.999Z</time></trkpt><trkpt lat="45.64051227860865" lon="8.804615911447655"><ele>236.0</ele><time>2026-03-28T11:06:05.999Z</time></trkpt><trkpt lat="45.64051872292103" lon="8.804356747404164"><ele>236.0</ele><time>2026-03-28T11:06:06.999Z</time></trkpt><trkpt lat="45.64052417557492" lon="8.804102932750926"><ele>235.33333333333334</ele><time>2026-03-28T11:06:07.999Z</time></trkpt><trkpt lat="45.64053125198628" lon="8.803853222089883"><ele>234.66666666666669</ele><time>2026-03-28T11:06:08.999Z</time></trkpt><trkpt lat="45.64054565784225" lon="8.803616398700557"><ele>234.0</ele><time>2026-03-28T11:06:09.999Z</time></trkpt><trkpt lat="45.64055729322722" lon="8.803370374765057"><ele>233.0</ele><time>2026-03-28T11:06:10.999Z</time></trkpt><trkpt lat="45.6405643795088" lon="8.803130837240317"><ele>232.0</ele><time>2026-03-28T11:06:11.999Z</time></trkpt><trkpt lat="45.64057389854658" lon="8.80289526560149"><ele>231.0</ele><time>2026-03-28T11:06:12.999Z</time></trkpt><trkpt lat="45.64058854085242" lon="8.802665439205798"><ele>232.33333333333331</ele><time>2026-03-28T11:06:13.999Z</time></trkpt><trkpt lat="45.64061102384326" lon="8.802441857505677"><ele>233.66666666666666</ele><time>2026-03-28T11:06:14.999Z</time></trkpt><trkpt lat="45.64063718943995" lon="8.80222972054269"><ele>235.0</ele><time>2026-03-28T11:06:15.999Z</time></trkpt><trkpt lat="45.640669971153564" lon="8.802018335999742"><ele>235.0</ele><time>2026-03-28T11:06:16.999Z</time></trkpt><trkpt lat="45.64070962558638" lon="8.801804081681544"><ele>235.0</ele><time>2026-03-28T11:06:17.999Z</time></trkpt><trkpt lat="45.640755943428175" lon="8.801601784231169"><ele>235.0</ele><time>2026-03-28T11:06:18.999Z</time></trkpt><trkpt lat="45.6408027639324" lon="8.801392708630912"><ele>235.0</ele><time>2026-03-28T11:06:19.999Z</time></trkpt><trkpt lat="45.6408566285306" lon="8.80118637374937"><ele>235.0</ele><time>2026-03-28T11:06:20.999Z</time></trkpt><trkpt lat="45.640919666656075" lon="8.800980673088487"><ele>235.0</ele><time>2026-03-28T11:06:21.999Z</time></trkpt><trkpt lat="45.64098726220483" lon="8.800770973438748"><ele>235.0</ele><time>2026-03-28T11:06:22.999Z</time></trkpt><trkpt lat="45.64106018282361" lon="8.800559093658824"><ele>235.0</ele><time>2026-03-28T11:06:23.999Z</time></trkpt><trkpt lat="45.64113622395356" lon="8.800346089773432"><ele>235.0</ele><time>2026-03-28T11:06:24.999Z</time></trkpt><trkpt lat="45.6412167116725" lon="8.800132822805917"><ele>235.0</ele><time>2026-03-28T11:06:25.999Z</time></trkpt><trkpt lat="45.64129821730702" lon="8.799915601039693"><ele>235.0</ele><time>2026-03-28T11:06:26.999Z</time></trkpt><trkpt lat="45.641378187598754" lon="8.799698669377957"><ele>235.0</ele><time>2026-03-28T11:06:28Z</time></trkpt><trkpt lat="45.641454359870295" lon="8.799494442691376"><ele>235.66666666666666</ele><time>2026-03-28T11:06:29Z</time></trkpt><trkpt lat="45.641524468515314" lon="8.799295252844146"><ele>236.33333333333331</ele><time>2026-03-28T11:06:30Z</time></trkpt><trkpt lat="45.6415956398779" lon="8.79909711756257"><ele>237.0</ele><time>2026-03-28T11:06:31Z</time></trkpt><trkpt lat="45.64166676017089" lon="8.798897515526876"><ele>237.0</ele><time>2026-03-28T11:06:32Z</time></trkpt><trkpt lat="45.641739188778814" lon="8.798698248797606"><ele>237.0</ele><time>2026-03-28T11:06:33Z</time></trkpt><trkpt lat="45.64181543162525" lon="8.798494559053392"><ele>237.0</ele><time>2026-03-28T11:06:34Z</time></trkpt><trkpt lat="45.64189118145801" lon="8.798276201177698"><ele>237.33333333333331</ele><time>2026-03-28T11:06:35Z</time></trkpt><trkpt lat="45.64197305874405" lon="8.798050829023897"><ele>237.66666666666666</ele><time>2026-03-28T11:06:36Z</time></trkpt><trkpt lat="45.64206201330359" lon="8.797813710899124"><ele>238.0</ele><time>2026-03-28T11:06:37Z</time></trkpt><trkpt lat="45.64215186588232" lon="8.797570889026296"><ele>236.66666666666666</ele><time>2026-03-28T11:06:38Z</time></trkpt><trkpt lat="45.64223889506406" lon="8.797331614482818"><ele>235.33333333333331</ele><time>2026-03-28T11:06:39Z</time></trkpt><trkpt lat="45.64232510632204" lon="8.797096507757026"><ele>234.0</ele><time>2026-03-28T11:06:40Z</time></trkpt><trkpt lat="45.64241282243617" lon="8.796865983085741"><ele>233.0</ele><time>2026-03-28T11:06:41Z</time></trkpt><trkpt lat="45.6424960545848" lon="8.796626753391731"><ele>232.0</ele><time>2026-03-28T11:06:42Z</time></trkpt><trkpt lat="45.64257630101603" lon="8.796382732453976"><ele>231.0</ele><time>2026-03-28T11:06:43Z</time></trkpt><trkpt lat="45.64265226598702" lon="8.79613666492294"><ele>231.66666666666669</ele><time>2026-03-28T11:06:44Z</time></trkpt><trkpt lat="45.64272302571242" lon="8.795881953843352"><ele>232.33333333333334</ele><time>2026-03-28T11:06:45Z</time></trkpt><trkpt lat="45.642788592970014" lon="8.795623786169532"><ele>233.0</ele><time>2026-03-28T11:06:46Z</time></trkpt><trkpt lat="45.64284968239309" lon="8.795372956870768"><ele>233.0</ele><time>2026-03-28T11:06:47Z</time></trkpt><trkpt lat="45.64290466476387" lon="8.795121347558176"><ele>233.0</ele><time>2026-03-28T11:06:48Z</time></trkpt><trkpt lat="45.642954443269126" lon="8.794863642990723"><ele>233.0</ele><time>2026-03-28T11:06:49Z</time></trkpt><trkpt lat="45.6429991466753" lon="8.794604057740779"><ele>233.0</ele><time>2026-03-28T11:06:50Z</time></trkpt><trkpt lat="45.64304020599804" lon="8.79434075339176"><ele>233.0</ele><time>2026-03-28T11:06:51Z</time></trkpt><trkpt lat="45.64307732336103" lon="8.794070167152539"><ele>233.0</ele><time>2026-03-28T11:06:52Z</time></trkpt><trkpt lat="45.643106684224925" lon="8.79379450480398"><ele>233.0</ele><time>2026-03-28T11:06:53Z</time></trkpt><trkpt lat="45.64313585264885" lon="8.793517314696523"><ele>233.0</ele><time>2026-03-28T11:06:54Z</time></trkpt><trkpt lat="45.643147148534915" lon="8.793228147306431"><ele>233.0</ele><time>2026-03-28T11:06:55Z</time></trkpt><trkpt lat="45.643157025661495" lon="8.79293471537842"><ele>233.66666666666669</ele><time>2026-03-28T11:06:56Z</time></trkpt><trkpt lat="45.64316250329894" lon="8.792634141569746"><ele>234.33333333333331</ele><time>2026-03-28T11:06:57Z</time></trkpt><trkpt lat="45.64316187191673" lon="8.792331113530333"><ele>235.0</ele><time>2026-03-28T11:06:58Z</time></trkpt><trkpt lat="45.64315921473609" lon="8.792035794789895"><ele>233.0</ele><time>2026-03-28T11:06:59Z</time></trkpt><trkpt lat="45.64315214757355" lon="8.791750013493518"><ele>231.0</ele><time>2026-03-28T11:07:00Z</time></trkpt><trkpt lat="45.64313308626911" lon="8.791464338419697"><ele>229.0</ele><time>2026-03-28T11:07:01Z</time></trkpt><trkpt lat="45.643100154023024" lon="8.791158822678984"><ele>229.33333333333331</ele><time>2026-03-28T11:07:02Z</time></trkpt><trkpt lat="45.643063643373644" lon="8.790858464149176"><ele>229.66666666666669</ele><time>2026-03-28T11:07:03Z</time></trkpt><trkpt lat="45.64303239463224" lon="8.790561431293934"><ele>230.0</ele><time>2026-03-28T11:07:04Z</time></trkpt><trkpt lat="45.64300003941695" lon="8.790270070475312"><ele>230.33333333333334</ele><time>2026-03-28T11:07:05Z</time></trkpt><trkpt lat="45.64296839114285" lon="8.789982266224802"><ele>230.66666666666669</ele><time>2026-03-28T11:07:06Z</time></trkpt><trkpt lat="45.64293579514412" lon="8.78969198798575"><ele>231.0</ele><time>2026-03-28T11:07:07Z</time></trkpt><trkpt lat="45.64290352627063" lon="8.789395585009983"><ele>231.0</ele><time>2026-03-28T11:07:08Z</time></trkpt><trkpt lat="45.642854981500484" lon="8.789094714623433"><ele>231.0</ele><time>2026-03-28T11:07:09Z</time></trkpt><trkpt lat="45.642819324692404" lon="8.788799771203141"><ele>231.0</ele><time>2026-03-28T11:07:10Z</time></trkpt><trkpt lat="45.6427860773693" lon="8.788496312728718"><ele>230.66666666666669</ele><time>2026-03-28T11:07:11Z</time></trkpt><trkpt lat="45.6427531296112" lon="8.788199469632007"><ele>230.33333333333334</ele><time>2026-03-28T11:07:12Z</time></trkpt><trkpt lat="45.64271671391406" lon="8.78790536831539"><ele>230.0</ele><time>2026-03-28T11:07:13Z</time></trkpt><trkpt lat="45.64268301451525" lon="8.787613268590539"><ele>229.66666666666669</ele><time>2026-03-28T11:07:14Z</time></trkpt><trkpt lat="45.64264939268864" lon="8.787315755505059"><ele>229.33333333333331</ele><time>2026-03-28T11:07:15Z</time></trkpt><trkpt lat="45.642621966965585" lon="8.78701088396772"><ele>229.0</ele><time>2026-03-28T11:07:16Z</time></trkpt><trkpt lat="45.64258759104536" lon="8.786718110231005"><ele>229.66666666666666</ele><time>2026-03-28T11:07:17Z</time></trkpt><trkpt lat="45.64255475309634" lon="8.786426056816087"><ele>230.33333333333331</ele><time>2026-03-28T11:07:18Z</time></trkpt><trkpt lat="45.64252066005934" lon="8.78612645735677"><ele>231.0</ele><time>2026-03-28T11:07:19Z</time></trkpt><trkpt lat="45.64248479523497" lon="8.78582758107439"><ele>231.33333333333331</ele><time>2026-03-28T11:07:20Z</time></trkpt><trkpt lat="45.642445666712874" lon="8.785528500091374"><ele>231.66666666666666</ele><time>2026-03-28T11:07:21Z</time></trkpt><trkpt lat="45.64240810150628" lon="8.785232821176328"><ele>232.0</ele><time>2026-03-28T11:07:22Z</time></trkpt><trkpt lat="45.642369969009415" lon="8.784933335066794"><ele>231.33333333333331</ele><time>2026-03-28T11:07:23Z</time></trkpt><trkpt lat="45.642329098329824" lon="8.784625648132677"><ele>230.66666666666669</ele><time>2026-03-28T11:07:24Z</time></trkpt><trkpt lat="45.64228939643575" lon="8.784308593461306"><ele>230.0</ele><time>2026-03-28T11:07:25Z</time></trkpt><trkpt lat="45.642249618439095" lon="8.78398261894423"><ele>230.0</ele><time>2026-03-28T11:07:26Z</time></trkpt><trkpt lat="45.64221046465157" lon="8.783651606697259"><ele>230.0</ele><time>2026-03-28T11:07:27Z</time></trkpt><trkpt lat="45.64216896482802" lon="8.783318876633583"><ele>230.5</ele><time>2026-03-28T11:07:28Z</time></trkpt><trkpt lat="45.642126889223654" lon="8.782980973770854"><ele>231.0</ele><time>2026-03-28T11:07:29Z</time></trkpt><trkpt lat="45.64208560227049" lon="8.782650482043767"><ele>232.5</ele><time>2026-03-28T11:07:30Z</time></trkpt><trkpt lat="45.64204562454676" lon="8.78232437468805"><ele>234.0</ele><time>2026-03-28T11:07:31Z</time></trkpt><trkpt lat="45.642006752717464" lon="8.782002299331323"><ele>233.33333333333331</ele><time>2026-03-28T11:07:32Z</time></trkpt><trkpt lat="45.64197061647073" lon="8.781688142483702"><ele>232.66666666666666</ele><time>2026-03-28T11:07:33Z</time></trkpt><trkpt lat="45.641932406398446" lon="8.781379071342622"><ele>232.0</ele><time>2026-03-28T11:07:34Z</time></trkpt><trkpt lat="45.6418915440665" lon="8.781064543723465"><ele>231.33333333333331</ele><time>2026-03-28T11:07:35Z</time></trkpt><trkpt lat="45.64185961742652" lon="8.780755002655395"><ele>230.66666666666669</ele><time>2026-03-28T11:07:36Z</time></trkpt><trkpt lat="45.64182998558595" lon="8.780451402830098"><ele>230.0</ele><time>2026-03-28T11:07:37Z</time></trkpt><trkpt lat="45.641805611949735" lon="8.78014978707134"><ele>230.0</ele><time>2026-03-28T11:07:38Z</time></trkpt><trkpt lat="45.64178646963878" lon="8.779841191170526"><ele>230.0</ele><time>2026-03-28T11:07:39Z</time></trkpt><trkpt lat="45.641771943636535" lon="8.77952737369765"><ele>230.0</ele><time>2026-03-28T11:07:40Z</time></trkpt><trkpt lat="45.641763837007815" lon="8.779218041358835"><ele>230.0</ele><time>2026-03-28T11:07:41Z</time></trkpt><trkpt lat="45.641759985916195" lon="8.778914985858558"><ele>230.0</ele><time>2026-03-28T11:07:42Z</time></trkpt><trkpt lat="45.64176143036072" lon="8.778620524274666"><ele>230.0</ele><time>2026-03-28T11:07:42.999Z</time></trkpt><trkpt lat="45.641768317519734" lon="8.778331283618858"><ele>230.0</ele><time>2026-03-28T11:07:43.999Z</time></trkpt><trkpt lat="45.64177789396123" lon="8.778043324250607"><ele>230.0</ele><time>2026-03-28T11:07:44.999Z</time></trkpt><trkpt lat="45.64179300638271" lon="8.7777620332286"><ele>230.0</ele><time>2026-03-28T11:07:45.999Z</time></trkpt><trkpt lat="45.64181696372902" lon="8.77748180738976"><ele>229.66666666666669</ele><time>2026-03-28T11:07:46.999Z</time></trkpt><trkpt lat="45.64184376126184" lon="8.777198719135225"><ele>229.33333333333331</ele><time>2026-03-28T11:07:47.999Z</time></trkpt><trkpt lat="45.6418750821504" lon="8.776917428128614"><ele>229.0</ele><time>2026-03-28T11:07:48.999Z</time></trkpt><trkpt lat="45.641908918079714" lon="8.7766311009934"><ele>228.66666666666666</ele><time>2026-03-28T11:07:49.999Z</time></trkpt><trkpt lat="45.6419451869536" lon="8.77635236201617"><ele>228.33333333333331</ele><time>2026-03-28T11:07:50.999Z</time></trkpt><trkpt lat="45.641982518141766" lon="8.77607372943228"><ele>228.0</ele><time>2026-03-28T11:07:51.999Z</time></trkpt><trkpt lat="45.64202137352409" lon="8.77581194144921"><ele>228.66666666666669</ele><time>2026-03-28T11:07:52.999Z</time></trkpt><trkpt lat="45.642062036038475" lon="8.775546783133954"><ele>229.33333333333334</ele><time>2026-03-28T11:07:53.999Z</time></trkpt><trkpt lat="45.642101936923105" lon="8.775280904245525"><ele>230.0</ele><time>2026-03-28T11:07:54.999Z</time></trkpt><trkpt lat="45.64213949883231" lon="8.775013009700308"><ele>230.33333333333334</ele><time>2026-03-28T11:07:55.999Z</time></trkpt><trkpt lat="45.64217019153146" lon="8.774745817402287"><ele>230.66666666666669</ele><time>2026-03-28T11:07:56.999Z</time></trkpt><trkpt lat="45.642207341863" lon="8.774485003714862"><ele>231.0</ele><time>2026-03-28T11:07:57.999Z</time></trkpt><trkpt lat="45.64224661142453" lon="8.774225794835148"><ele>231.66666666666669</ele><time>2026-03-28T11:07:58.999Z</time></trkpt><trkpt lat="45.642285266022284" lon="8.773967732984204"><ele>232.33333333333334</ele><time>2026-03-28T11:07:59.999Z</time></trkpt><trkpt lat="45.64232342758064" lon="8.773713447100384"><ele>233.0</ele><time>2026-03-28T11:08:00.999Z</time></trkpt><trkpt lat="45.64235807006307" lon="8.773457230868381"><ele>233.33333333333334</ele><time>2026-03-28T11:08:01.999Z</time></trkpt><trkpt lat="45.64239518490283" lon="8.773198251336357"><ele>233.66666666666669</ele><time>2026-03-28T11:08:02.999Z</time></trkpt><trkpt lat="45.642432685134104" lon="8.772937647668517"><ele>234.0</ele><time>2026-03-28T11:08:03.999Z</time></trkpt><trkpt lat="45.64247108402083" lon="8.772683724119766"><ele>234.33333333333331</ele><time>2026-03-28T11:08:04.999Z</time></trkpt><trkpt lat="45.642508080870805" lon="8.772423050885024"><ele>234.66666666666666</ele><time>2026-03-28T11:08:05.999Z</time></trkpt><trkpt lat="45.642545955807456" lon="8.772158064263463"><ele>235.0</ele><time>2026-03-28T11:08:07.015Z</time></trkpt><trkpt lat="45.642584117663404" lon="8.771898809447856"><ele>236.0</ele><time>2026-03-28T11:08:08.016Z</time></trkpt><trkpt lat="45.64262322149508" lon="8.771640955863763"><ele>237.0</ele><time>2026-03-28T11:08:09.017Z</time></trkpt><trkpt lat="45.642662297127245" lon="8.771386693240089"><ele>238.0</ele><time>2026-03-28T11:08:10.016Z</time></trkpt><trkpt lat="45.64270112020986" lon="8.771134409521801"><ele>238.0</ele><time>2026-03-28T11:08:11.017Z</time></trkpt><trkpt lat="45.642741243104716" lon="8.77088318643404"><ele>238.0</ele><time>2026-03-28T11:08:12.016Z</time></trkpt><trkpt lat="45.64278081432792" lon="8.770632678976098"><ele>238.0</ele><time>2026-03-28T11:08:13.016Z</time></trkpt><trkpt lat="45.6428192466885" lon="8.770382036304698"><ele>237.0</ele><time>2026-03-28T11:08:14.015Z</time></trkpt><trkpt lat="45.64285732253105" lon="8.770131819270665"><ele>236.0</ele><time>2026-03-28T11:08:15.016Z</time></trkpt><trkpt lat="45.64331295438636" lon="8.767275251456319"><ele>236.66666666666669</ele><time>2026-03-28T11:08:25.999Z</time></trkpt><trkpt lat="45.64335425153108" lon="8.767013062663512"><ele>237.33333333333331</ele><time>2026-03-28T11:08:26.999Z</time></trkpt><trkpt lat="45.64336250316032" lon="8.766740336024217"><ele>238.0</ele><time>2026-03-28T11:08:27.999Z</time></trkpt><trkpt lat="45.64339797989581" lon="8.766469937482393"><ele>238.0</ele><time>2026-03-28T11:08:28.999Z</time></trkpt><trkpt lat="45.64344167263006" lon="8.766202049867358"><ele>238.0</ele><time>2026-03-28T11:08:29.999Z</time></trkpt><trkpt lat="45.64348075659678" lon="8.765941455654483"><ele>238.0</ele><time>2026-03-28T11:08:30.999Z</time></trkpt><trkpt lat="45.64351911290132" lon="8.765678420088914"><ele>237.66666666666666</ele><time>2026-03-28T11:08:31.999Z</time></trkpt><trkpt lat="45.643555346405236" lon="8.7654399627365"><ele>237.33333333333331</ele><time>2026-03-28T11:08:32.999Z</time></trkpt><trkpt lat="45.64359345575725" lon="8.765199993054289"><ele>237.0</ele><time>2026-03-28T11:08:34Z</time></trkpt><trkpt lat="45.64363174942613" lon="8.76495287343806"><ele>236.66666666666669</ele><time>2026-03-28T11:08:35Z</time></trkpt><trkpt lat="45.64366546180411" lon="8.764700637109897"><ele>236.33333333333334</ele><time>2026-03-28T11:08:36Z</time></trkpt><trkpt lat="45.643698588696154" lon="8.764448713438947"><ele>236.0</ele><time>2026-03-28T11:08:37Z</time></trkpt><trkpt lat="45.64373326670653" lon="8.764199894393547"><ele>236.0</ele><time>2026-03-28T11:08:38Z</time></trkpt><trkpt lat="45.64377011226793" lon="8.763947881269823"><ele>236.0</ele><time>2026-03-28T11:08:39Z</time></trkpt><trkpt lat="45.64380750832344" lon="8.763707174974943"><ele>236.0</ele><time>2026-03-28T11:08:40Z</time></trkpt><trkpt lat="45.64384740642594" lon="8.763474382599556"><ele>235.33333333333334</ele><time>2026-03-28T11:08:41Z</time></trkpt><trkpt lat="45.64388606471455" lon="8.763240228194757"><ele>234.66666666666669</ele><time>2026-03-28T11:08:42Z</time></trkpt><trkpt lat="45.64392353836596" lon="8.763001436413301"><ele>234.0</ele><time>2026-03-28T11:08:43Z</time></trkpt><trkpt lat="45.64395800222425" lon="8.762754538741502"><ele>233.66666666666669</ele><time>2026-03-28T11:08:44Z</time></trkpt><trkpt lat="45.643993603100135" lon="8.76250981946199"><ele>233.33333333333334</ele><time>2026-03-28T11:08:45Z</time></trkpt><trkpt lat="45.64402955443961" lon="8.762264816489704"><ele>233.0</ele><time>2026-03-28T11:08:46Z</time></trkpt><trkpt lat="45.64406698883515" lon="8.762026057133843"><ele>233.33333333333334</ele><time>2026-03-28T11:08:47Z</time></trkpt><trkpt lat="45.64410460190311" lon="8.76178582853264"><ele>233.66666666666669</ele><time>2026-03-28T11:08:48Z</time></trkpt><trkpt lat="45.64414354289816" lon="8.761542140563545"><ele>234.0</ele><time>2026-03-28T11:08:49Z</time></trkpt><trkpt lat="45.644178183635134" lon="8.761284471463869"><ele>235.33333333333331</ele><time>2026-03-28T11:08:50Z</time></trkpt><trkpt lat="45.644210927248665" lon="8.76101894818848"><ele>236.66666666666666</ele><time>2026-03-28T11:08:51Z</time></trkpt><trkpt lat="45.64424822488482" lon="8.760740667475533"><ele>238.0</ele><time>2026-03-28T11:08:52Z</time></trkpt><trkpt lat="45.64428962396359" lon="8.760455290078863"><ele>237.66666666666666</ele><time>2026-03-28T11:08:53Z</time></trkpt><trkpt lat="45.64433596903573" lon="8.760158303855318"><ele>237.33333333333331</ele><time>2026-03-28T11:08:54Z</time></trkpt><trkpt lat="45.644373346555774" lon="8.759828943821129"><ele>237.0</ele><time>2026-03-28T11:08:55Z</time></trkpt><trkpt lat="45.64440163393421" lon="8.759490786531861"><ele>236.5</ele><time>2026-03-28T11:08:56Z</time></trkpt><trkpt lat="45.64446653230097" lon="8.759185458685764"><ele>236.0</ele><time>2026-03-28T11:08:57Z</time></trkpt><trkpt lat="45.644521220314196" lon="8.758851366618066"><ele>236.5</ele><time>2026-03-28T11:08:58Z</time></trkpt><trkpt lat="45.6445747315181" lon="8.758507207727213"><ele>237.0</ele><time>2026-03-28T11:08:59Z</time></trkpt><trkpt lat="45.64463112306458" lon="8.758187095617627"><ele>237.0</ele><time>2026-03-28T11:09:00Z</time></trkpt><trkpt lat="45.64468072597489" lon="8.757864930889522"><ele>237.0</ele><time>2026-03-28T11:09:01Z</time></trkpt><trkpt lat="45.64473149510995" lon="8.757539760027202"><ele>239.0</ele><time>2026-03-28T11:09:02Z</time></trkpt><trkpt lat="45.64478021712638" lon="8.757214362922467"><ele>241.0</ele><time>2026-03-28T11:09:03Z</time></trkpt><trkpt lat="45.64482993404382" lon="8.756887000622596"><ele>241.5</ele><time>2026-03-28T11:09:04Z</time></trkpt><trkpt lat="45.644876958608904" lon="8.756554975431559"><ele>242.0</ele><time>2026-03-28T11:09:05Z</time></trkpt><trkpt lat="45.64492080195829" lon="8.756217858430295"><ele>243.0</ele><time>2026-03-28T11:09:06Z</time></trkpt><trkpt lat="45.64496876364631" lon="8.755882599195543"><ele>244.0</ele><time>2026-03-28T11:09:07Z</time></trkpt><trkpt lat="45.64501651265389" lon="8.755556070918256"><ele>244.0</ele><time>2026-03-28T11:09:08Z</time></trkpt><trkpt lat="45.64506405886453" lon="8.755229928339217"><ele>244.0</ele><time>2026-03-28T11:09:09Z</time></trkpt><trkpt lat="45.64511074806446" lon="8.754914242176406"><ele>244.33333333333331</ele><time>2026-03-28T11:09:10Z</time></trkpt><trkpt lat="45.64515557745897" lon="8.75461293154364"><ele>244.66666666666669</ele><time>2026-03-28T11:09:11Z</time></trkpt><trkpt lat="45.645199480228605" lon="8.754323624023378"><ele>245.0</ele><time>2026-03-28T11:09:12Z</time></trkpt><trkpt lat="45.6452417286792" lon="8.75403724790788"><ele>245.66666666666669</ele><time>2026-03-28T11:09:13Z</time></trkpt><trkpt lat="45.64528593210284" lon="8.753752124211182"><ele>246.33333333333331</ele><time>2026-03-28T11:09:14Z</time></trkpt><trkpt lat="45.645327501137515" lon="8.753463190037357"><ele>247.0</ele><time>2026-03-28T11:09:15Z</time></trkpt><trkpt lat="45.645369974465616" lon="8.753169553080154"><ele>247.0</ele><time>2026-03-28T11:09:16Z</time></trkpt><trkpt lat="45.64541008625133" lon="8.752876638039172"><ele>247.0</ele><time>2026-03-28T11:09:17Z</time></trkpt><trkpt lat="45.64545187827708" lon="8.752587522001006"><ele>247.0</ele><time>2026-03-28T11:09:18Z</time></trkpt><trkpt lat="45.645496241774275" lon="8.752291454407766"><ele>247.0</ele><time>2026-03-28T11:09:19Z</time></trkpt><trkpt lat="45.64554100383198" lon="8.751993078011227"><ele>247.0</ele><time>2026-03-28T11:09:20Z</time></trkpt><trkpt lat="45.645587689904524" lon="8.75169629887599"><ele>247.0</ele><time>2026-03-28T11:09:21Z</time></trkpt><trkpt lat="45.64562731061839" lon="8.751397749759034"><ele>247.0</ele><time>2026-03-28T11:09:22Z</time></trkpt><trkpt lat="45.64568195960674" lon="8.7511033212849"><ele>247.0</ele><time>2026-03-28T11:09:23Z</time></trkpt><trkpt lat="45.645743033308015" lon="8.75081295751582"><ele>247.0</ele><time>2026-03-28T11:09:24Z</time></trkpt><trkpt lat="45.64581228532369" lon="8.750519686279784"><ele>247.0</ele><time>2026-03-28T11:09:25Z</time></trkpt><trkpt lat="45.64588568595893" lon="8.750243935099858"><ele>247.0</ele><time>2026-03-28T11:09:26Z</time></trkpt><trkpt lat="45.645969071100055" lon="8.749977250787316"><ele>247.0</ele><time>2026-03-28T11:09:27Z</time></trkpt><trkpt lat="45.64605928623447" lon="8.749715299257847"><ele>248.33333333333331</ele><time>2026-03-28T11:09:28Z</time></trkpt><trkpt lat="45.64615780914027" lon="8.749465515669742"><ele>249.66666666666669</ele><time>2026-03-28T11:09:29Z</time></trkpt><trkpt lat="45.64626470113777" lon="8.749226405268834"><ele>251.0</ele><time>2026-03-28T11:09:30Z</time></trkpt><trkpt lat="45.64637709115537" lon="8.74899632409914"><ele>251.0</ele><time>2026-03-28T11:09:31Z</time></trkpt><trkpt lat="45.64649401918226" lon="8.748781968496736"><ele>251.0</ele><time>2026-03-28T11:09:32Z</time></trkpt><trkpt lat="45.646616372447916" lon="8.748572559430341"><ele>251.0</ele><time>2026-03-28T11:09:33Z</time></trkpt><trkpt lat="45.64674382663468" lon="8.748366739778946"><ele>251.33333333333334</ele><time>2026-03-28T11:09:34Z</time></trkpt><trkpt lat="45.64688077693471" lon="8.748172888526009"><ele>251.66666666666669</ele><time>2026-03-28T11:09:35Z</time></trkpt><trkpt lat="45.64702817143235" lon="8.747992389789228"><ele>252.0</ele><time>2026-03-28T11:09:36Z</time></trkpt><trkpt lat="45.647181887764056" lon="8.747819598766112"><ele>252.33333333333331</ele><time>2026-03-28T11:09:37Z</time></trkpt><trkpt lat="45.64734065004179" lon="8.747650167366862"><ele>252.66666666666666</ele><time>2026-03-28T11:09:38Z</time></trkpt><trkpt lat="45.64750486890616" lon="8.747486851233148"><ele>253.0</ele><time>2026-03-28T11:09:39Z</time></trkpt><trkpt lat="45.64767442126666" lon="8.747329113926062"><ele>253.0</ele><time>2026-03-28T11:09:40Z</time></trkpt><trkpt lat="45.647848978885406" lon="8.747180179515228"><ele>253.0</ele><time>2026-03-28T11:09:41Z</time></trkpt><trkpt lat="45.64802289689132" lon="8.747022658864775"><ele>253.0</ele><time>2026-03-28T11:09:42Z</time></trkpt><trkpt lat="45.64820177706015" lon="8.746863669106533"><ele>252.66666666666666</ele><time>2026-03-28T11:09:43Z</time></trkpt><trkpt lat="45.64838437781935" lon="8.746707455794391"><ele>252.33333333333331</ele><time>2026-03-28T11:09:44Z</time></trkpt><trkpt lat="45.64856302599848" lon="8.746547735318718"><ele>252.0</ele><time>2026-03-28T11:09:44.999Z</time></trkpt><trkpt lat="45.64874409977706" lon="8.746390441823856"><ele>252.0</ele><time>2026-03-28T11:09:45.999Z</time></trkpt><trkpt lat="45.64892533672961" lon="8.746235298419103"><ele>252.0</ele><time>2026-03-28T11:09:46.999Z</time></trkpt><trkpt lat="45.649105328798186" lon="8.746062475092367"><ele>252.0</ele><time>2026-03-28T11:09:47.999Z</time></trkpt><trkpt lat="45.64928860681256" lon="8.74591183970094"><ele>251.33333333333331</ele><time>2026-03-28T11:09:48.999Z</time></trkpt><trkpt lat="45.64947065676007" lon="8.745753048721152"><ele>250.66666666666666</ele><time>2026-03-28T11:09:49.999Z</time></trkpt><trkpt lat="45.64964942926114" lon="8.745590457124123"><ele>250.0</ele><time>2026-03-28T11:09:50.999Z</time></trkpt><trkpt lat="45.64983045600222" lon="8.745432223382261"><ele>250.0</ele><time>2026-03-28T11:09:51.999Z</time></trkpt><trkpt lat="45.650006343223495" lon="8.745274275349615"><ele>250.0</ele><time>2026-03-28T11:09:52.999Z</time></trkpt><trkpt lat="45.65018597884331" lon="8.745119152007705"><ele>250.0</ele><time>2026-03-28T11:09:53.999Z</time></trkpt><trkpt lat="45.65036599377406" lon="8.744972772521093"><ele>246.33333333333331</ele><time>2026-03-28T11:09:54.999Z</time></trkpt><trkpt lat="45.650540583523394" lon="8.74481384900758"><ele>242.66666666666669</ele><time>2026-03-28T11:09:55.999Z</time></trkpt><trkpt lat="45.65072194520379" lon="8.744658605871665"><ele>239.0</ele><time>2026-03-28T11:09:56.999Z</time></trkpt><trkpt lat="45.650896567122274" lon="8.744495729928738"><ele>238.0</ele><time>2026-03-28T11:09:57.999Z</time></trkpt><trkpt lat="45.651072525341704" lon="8.744334952160422"><ele>237.0</ele><time>2026-03-28T11:09:58.999Z</time></trkpt><trkpt lat="45.65124561050556" lon="8.744160041093606"><ele>236.0</ele><time>2026-03-28T11:09:59.999Z</time></trkpt><trkpt lat="45.65142068364284" lon="8.743983525020667"><ele>236.0</ele><time>2026-03-28T11:10:00.999Z</time></trkpt><trkpt lat="45.651588326709394" lon="8.743798043487724"><ele>236.0</ele><time>2026-03-28T11:10:01.999Z</time></trkpt><trkpt lat="45.65175390282627" lon="8.743606633923774"><ele>236.0</ele><time>2026-03-28T11:10:02.999Z</time></trkpt><trkpt lat="45.651914150551754" lon="8.743404034154228"><ele>235.0</ele><time>2026-03-28T11:10:03.999Z</time></trkpt><trkpt lat="45.65207487733209" lon="8.74320687126862"><ele>234.0</ele><time>2026-03-28T11:10:04.999Z</time></trkpt><trkpt lat="45.65223280694188" lon="8.74300879052983"><ele>233.0</ele><time>2026-03-28T11:10:05.999Z</time></trkpt><trkpt lat="45.65238459562119" lon="8.742796815482667"><ele>233.0</ele><time>2026-03-28T11:10:06.999Z</time></trkpt><trkpt lat="45.652532548351594" lon="8.742567034585337"><ele>233.0</ele><time>2026-03-28T11:10:07.999Z</time></trkpt><trkpt lat="45.6526830903225" lon="8.742339470508334"><ele>233.0</ele><time>2026-03-28T11:10:08.999Z</time></trkpt><trkpt lat="45.65283288502406" lon="8.742090956687255"><ele>234.0</ele><time>2026-03-28T11:10:09.999Z</time></trkpt><trkpt lat="45.652987814461156" lon="8.741840598258174"><ele>235.0</ele><time>2026-03-28T11:10:10.999Z</time></trkpt><trkpt lat="45.653144797381636" lon="8.741587752564163"><ele>235.0</ele><time>2026-03-28T11:10:11.999Z</time></trkpt><trkpt lat="45.65329686294062" lon="8.741324715885849"><ele>235.0</ele><time>2026-03-28T11:10:12.999Z</time></trkpt><trkpt lat="45.653449875568484" lon="8.741064970642075"><ele>235.5</ele><time>2026-03-28T11:10:13.999Z</time></trkpt><trkpt lat="45.65360106225498" lon="8.740814312917243"><ele>236.0</ele><time>2026-03-28T11:10:14.999Z</time></trkpt><trkpt lat="45.653750110253746" lon="8.740573232903111"><ele>236.33333333333334</ele><time>2026-03-28T11:10:15.999Z</time></trkpt><trkpt lat="45.65389422206825" lon="8.740336969674294"><ele>236.66666666666669</ele><time>2026-03-28T11:10:16.999Z</time></trkpt><trkpt lat="45.65403122259377" lon="8.740101082649815"><ele>237.0</ele><time>2026-03-28T11:10:17.999Z</time></trkpt><trkpt lat="45.65416255211705" lon="8.739888801877298"><ele>237.0</ele><time>2026-03-28T11:10:18.999Z</time></trkpt><trkpt lat="45.65428785565308" lon="8.739682014348052"><ele>237.0</ele><time>2026-03-28T11:10:19.999Z</time></trkpt><trkpt lat="45.654402215562676" lon="8.739459151266113"><ele>237.0</ele><time>2026-03-28T11:10:20.999Z</time></trkpt><trkpt lat="45.654510621072525" lon="8.739238503438544"><ele>237.33333333333331</ele><time>2026-03-28T11:10:21.999Z</time></trkpt><trkpt lat="45.654615286745724" lon="8.739007980788777"><ele>237.66666666666666</ele><time>2026-03-28T11:10:22.999Z</time></trkpt><trkpt lat="45.65471495230329" lon="8.738770114253052"><ele>238.0</ele><time>2026-03-28T11:10:23.999Z</time></trkpt><trkpt lat="45.65480816954803" lon="8.738525162851536"><ele>238.0</ele><time>2026-03-28T11:10:24.999Z</time></trkpt><trkpt lat="45.65489345025622" lon="8.738274240807398"><ele>238.0</ele><time>2026-03-28T11:10:25.999Z</time></trkpt><trkpt lat="45.65496951078206" lon="8.738012116266919"><ele>238.0</ele><time>2026-03-28T11:10:26.999Z</time></trkpt><trkpt lat="45.65504186909129" lon="8.737750454146079"><ele>237.66666666666666</ele><time>2026-03-28T11:10:27.999Z</time></trkpt><trkpt lat="45.65510690758917" lon="8.737488840594057"><ele>237.33333333333331</ele><time>2026-03-28T11:10:28.999Z</time></trkpt><trkpt lat="45.65516459449029" lon="8.737225032360476"><ele>237.0</ele><time>2026-03-28T11:10:29.999Z</time></trkpt><trkpt lat="45.65521279034453" lon="8.736948199425193"><ele>236.33333333333331</ele><time>2026-03-28T11:10:30.999Z</time></trkpt><trkpt lat="45.65525161249095" lon="8.736670490166716"><ele>235.66666666666666</ele><time>2026-03-28T11:10:31.999Z</time></trkpt><trkpt lat="45.65528417855537" lon="8.73638951737349"><ele>235.0</ele><time>2026-03-28T11:10:32.999Z</time></trkpt><trkpt lat="45.655308912424324" lon="8.7361057854462"><ele>237.0</ele><time>2026-03-28T11:10:33.999Z</time></trkpt><trkpt lat="45.65532597908919" lon="8.735816713325987"><ele>239.0</ele><time>2026-03-28T11:10:34.999Z</time></trkpt><trkpt lat="45.65533245821177" lon="8.735529559724032"><ele>241.0</ele><time>2026-03-28T11:10:35.999Z</time></trkpt><trkpt lat="45.65532903066632" lon="8.735244933219564"><ele>241.0</ele><time>2026-03-28T11:10:36.999Z</time></trkpt><trkpt lat="45.65531744622987" lon="8.734965952630999"><ele>241.0</ele><time>2026-03-28T11:10:37.999Z</time></trkpt><trkpt lat="45.65529745587336" lon="8.734687833809769"><ele>241.0</ele><time>2026-03-28T11:10:38.999Z</time></trkpt><trkpt lat="45.65526685837203" lon="8.734410898543723"><ele>239.33333333333331</ele><time>2026-03-28T11:10:40Z</time></trkpt><trkpt lat="45.65523004041724" lon="8.734134612358405"><ele>237.66666666666669</ele><time>2026-03-28T11:10:41Z</time></trkpt><trkpt lat="45.655187024269935" lon="8.733859783925002"><ele>236.0</ele><time>2026-03-28T11:10:42Z</time></trkpt><trkpt lat="45.655134404614955" lon="8.733584877576122"><ele>236.66666666666669</ele><time>2026-03-28T11:10:43Z</time></trkpt><trkpt lat="45.65507425095878" lon="8.733300731547006"><ele>237.33333333333331</ele><time>2026-03-28T11:10:44Z</time></trkpt><trkpt lat="45.65501468992436" lon="8.733020169130947"><ele>238.0</ele><time>2026-03-28T11:10:45Z</time></trkpt><trkpt lat="45.65495408015742" lon="8.732740687546872"><ele>238.33333333333331</ele><time>2026-03-28T11:10:46Z</time></trkpt><trkpt lat="45.654892680622304" lon="8.73246240829393"><ele>238.66666666666669</ele><time>2026-03-28T11:10:47Z</time></trkpt><trkpt lat="45.65482866146604" lon="8.732179082826862"><ele>239.0</ele><time>2026-03-28T11:10:48Z</time></trkpt><trkpt lat="45.65476613453344" lon="8.731898324211343"><ele>239.66666666666669</ele><time>2026-03-28T11:10:49Z</time></trkpt><trkpt lat="45.65470781020875" lon="8.731619798366893"><ele>240.33333333333331</ele><time>2026-03-28T11:10:50Z</time></trkpt><trkpt lat="45.654647194410465" lon="8.731339873470024"><ele>241.0</ele><time>2026-03-28T11:10:51Z</time></trkpt><trkpt lat="45.6545844787098" lon="8.731064080470505"><ele>241.66666666666666</ele><time>2026-03-28T11:10:52Z</time></trkpt><trkpt lat="45.65451931786229" lon="8.730790269784976"><ele>242.33333333333331</ele><time>2026-03-28T11:10:53Z</time></trkpt><trkpt lat="45.6544579376568" lon="8.730517330538788"><ele>243.0</ele><time>2026-03-28T11:10:54Z</time></trkpt><trkpt lat="45.654398568638264" lon="8.730239725007872"><ele>241.33333333333331</ele><time>2026-03-28T11:10:55Z</time></trkpt><trkpt lat="45.65433286820672" lon="8.729960191834376"><ele>239.66666666666666</ele><time>2026-03-28T11:10:56Z</time></trkpt><trkpt lat="45.65426585125877" lon="8.729679509036613"><ele>238.0</ele><time>2026-03-28T11:10:57Z</time></trkpt><trkpt lat="45.65420210177891" lon="8.729393750254781"><ele>238.0</ele><time>2026-03-28T11:10:58Z</time></trkpt><trkpt lat="45.654133098937194" lon="8.729107569033653"><ele>238.0</ele><time>2026-03-28T11:10:59Z</time></trkpt><trkpt lat="45.654070785462935" lon="8.728820703723528"><ele>238.0</ele><time>2026-03-28T11:11:00Z</time></trkpt><trkpt lat="45.6540134631674" lon="8.728533986180894"><ele>237.33333333333331</ele><time>2026-03-28T11:11:01Z</time></trkpt><trkpt lat="45.653949945793315" lon="8.72824414421197"><ele>236.66666666666669</ele><time>2026-03-28T11:11:02Z</time></trkpt><trkpt lat="45.65388617451745" lon="8.72795532070196"><ele>236.0</ele><time>2026-03-28T11:11:03Z</time></trkpt><trkpt lat="45.65382197234209" lon="8.72766678209305"><ele>235.0</ele><time>2026-03-28T11:11:04Z</time></trkpt><trkpt lat="45.65375883052099" lon="8.727378189717617"><ele>234.0</ele><time>2026-03-28T11:11:05Z</time></trkpt><trkpt lat="45.653689280207374" lon="8.727089367499792"><ele>233.0</ele><time>2026-03-28T11:11:06Z</time></trkpt><trkpt lat="45.6536249198977" lon="8.726801394993865"><ele>234.0</ele><time>2026-03-28T11:11:07Z</time></trkpt><trkpt lat="45.65356096672839" lon="8.72651675070376"><ele>235.0</ele><time>2026-03-28T11:11:08Z</time></trkpt><trkpt lat="45.65349286075233" lon="8.726233343604445"><ele>236.0</ele><time>2026-03-28T11:11:09Z</time></trkpt><trkpt lat="45.653431980656315" lon="8.725948591883844"><ele>236.0</ele><time>2026-03-28T11:11:10Z</time></trkpt><trkpt lat="45.653364394949634" lon="8.72566193093771"><ele>236.0</ele><time>2026-03-28T11:11:11Z</time></trkpt><trkpt lat="45.65330129169674" lon="8.725373605080954"><ele>236.0</ele><time>2026-03-28T11:11:12Z</time></trkpt><trkpt lat="45.65323825585563" lon="8.72508872961606"><ele>236.0</ele><time>2026-03-28T11:11:13Z</time></trkpt><trkpt lat="45.65317719142429" lon="8.72481088803823"><ele>236.0</ele><time>2026-03-28T11:11:14Z</time></trkpt><trkpt lat="45.65311070012848" lon="8.724538633893836"><ele>236.0</ele><time>2026-03-28T11:11:15Z</time></trkpt><trkpt lat="45.653043660605654" lon="8.724275915073697"><ele>236.66666666666669</ele><time>2026-03-28T11:11:16Z</time></trkpt><trkpt lat="45.652959846467695" lon="8.724024912412375"><ele>237.33333333333331</ele><time>2026-03-28T11:11:17Z</time></trkpt><trkpt lat="45.6528664452264" lon="8.723779565715455"><ele>238.0</ele><time>2026-03-28T11:11:18Z</time></trkpt><trkpt lat="45.652753152710694" lon="8.72355159196911"><ele>236.66666666666666</ele><time>2026-03-28T11:11:19Z</time></trkpt><trkpt lat="45.65262158415505" lon="8.723338136001113"><ele>235.33333333333331</ele><time>2026-03-28T11:11:20Z</time></trkpt><trkpt lat="45.652476949683276" lon="8.723148620379023"><ele>234.0</ele><time>2026-03-28T11:11:21Z</time></trkpt><trkpt lat="45.65233019329127" lon="8.72296767700244"><ele>234.0</ele><time>2026-03-28T11:11:22Z</time></trkpt><trkpt lat="45.65217883245535" lon="8.72282840069385"><ele>234.0</ele><time>2026-03-28T11:11:23Z</time></trkpt><trkpt lat="45.652035924094804" lon="8.722699645118146"><ele>234.0</ele><time>2026-03-28T11:11:24Z</time></trkpt><trkpt lat="45.65190180215287" lon="8.722575420659387"><ele>235.33333333333331</ele><time>2026-03-28T11:11:25Z</time></trkpt><trkpt lat="45.65176722208545" lon="8.722446310772785"><ele>236.66666666666666</ele><time>2026-03-28T11:11:26Z</time></trkpt><trkpt lat="45.651635164443896" lon="8.722313686462995"><ele>238.0</ele><time>2026-03-28T11:11:27Z</time></trkpt><trkpt lat="45.65150730603084" lon="8.722185358388598"><ele>238.0</ele><time>2026-03-28T11:11:28Z</time></trkpt><trkpt lat="45.65138172212619" lon="8.722046476670616"><ele>238.0</ele><time>2026-03-28T11:11:29Z</time></trkpt><trkpt lat="45.651275530933745" lon="8.721886558144218"><ele>238.0</ele><time>2026-03-28T11:11:30Z</time></trkpt><trkpt lat="45.65118239596827" lon="8.721705427272866"><ele>237.33333333333331</ele><time>2026-03-28T11:11:31Z</time></trkpt><trkpt lat="45.65110217796254" lon="8.721503391852144"><ele>236.66666666666669</ele><time>2026-03-28T11:11:32Z</time></trkpt><trkpt lat="45.651033192610555" lon="8.721285006653899"><ele>236.0</ele><time>2026-03-28T11:11:33Z</time></trkpt><trkpt lat="45.650983912559866" lon="8.721062896761437"><ele>236.0</ele><time>2026-03-28T11:11:34Z</time></trkpt><trkpt lat="45.650941744055196" lon="8.72084495448498"><ele>236.0</ele><time>2026-03-28T11:11:35Z</time></trkpt><trkpt lat="45.65088860076354" lon="8.72062158571688"><ele>236.0</ele><time>2026-03-28T11:11:36Z</time></trkpt><trkpt lat="45.650835363355746" lon="8.720389823350121"><ele>235.66666666666669</ele><time>2026-03-28T11:11:37Z</time></trkpt><trkpt lat="45.65077356827373" lon="8.720153108093205"><ele>235.33333333333331</ele><time>2026-03-28T11:11:38Z</time></trkpt><trkpt lat="45.650719549264046" lon="8.719916984534407"><ele>235.0</ele><time>2026-03-28T11:11:39Z</time></trkpt><trkpt lat="45.65066676784427" lon="8.719683079766865"><ele>235.0</ele><time>2026-03-28T11:11:40Z</time></trkpt><trkpt lat="45.650603974966785" lon="8.719443974603179"><ele>235.0</ele><time>2026-03-28T11:11:41Z</time></trkpt><trkpt lat="45.650545985311304" lon="8.719202570453604"><ele>235.0</ele><time>2026-03-28T11:11:42Z</time></trkpt><trkpt lat="45.65049256713377" lon="8.718966104333221"><ele>234.0</ele><time>2026-03-28T11:11:42.999Z</time></trkpt><trkpt lat="45.65043625025325" lon="8.718732827208756"><ele>233.0</ele><time>2026-03-28T11:11:43.999Z</time></trkpt><trkpt lat="45.650385625675526" lon="8.718498724411521"><ele>232.0</ele><time>2026-03-28T11:11:44.999Z</time></trkpt><trkpt lat="45.65033575262128" lon="8.71826361181713"><ele>232.33333333333331</ele><time>2026-03-28T11:11:45.999Z</time></trkpt><trkpt lat="45.65027631490518" lon="8.718020674543457"><ele>232.66666666666669</ele><time>2026-03-28T11:11:46.999Z</time></trkpt><trkpt lat="45.65022703390139" lon="8.717791484570654"><ele>233.0</ele><time>2026-03-28T11:11:47.999Z</time></trkpt><trkpt lat="45.65018208546069" lon="8.717563024892808"><ele>233.0</ele><time>2026-03-28T11:11:48.999Z</time></trkpt><trkpt lat="45.650126327829376" lon="8.717331663020106"><ele>233.0</ele><time>2026-03-28T11:11:49.999Z</time></trkpt><trkpt lat="45.65007868931931" lon="8.717088886998008"><ele>233.0</ele><time>2026-03-28T11:11:50.999Z</time></trkpt><trkpt lat="45.65002758656921" lon="8.716839289341364"><ele>233.66666666666669</ele><time>2026-03-28T11:11:51.999Z</time></trkpt><trkpt lat="45.64997913345244" lon="8.716580289067307"><ele>234.33333333333331</ele><time>2026-03-28T11:11:52.999Z</time></trkpt><trkpt lat="45.649930398747856" lon="8.716318631930559"><ele>235.0</ele><time>2026-03-28T11:11:53.999Z</time></trkpt><trkpt lat="45.649875871046746" lon="8.716057062915747"><ele>235.0</ele><time>2026-03-28T11:11:54.999Z</time></trkpt><trkpt lat="45.649820065068354" lon="8.715797635344448"><ele>235.0</ele><time>2026-03-28T11:11:55.999Z</time></trkpt><trkpt lat="45.64976356101381" lon="8.715539203709971"><ele>235.0</ele><time>2026-03-28T11:11:56.999Z</time></trkpt><trkpt lat="45.64971308446572" lon="8.715285666317339"><ele>235.33333333333331</ele><time>2026-03-28T11:11:57.999Z</time></trkpt><trkpt lat="45.64966887832347" lon="8.715044067236057"><ele>235.66666666666669</ele><time>2026-03-28T11:11:58.999Z</time></trkpt><trkpt lat="45.649622986600804" lon="8.714803993340348"><ele>236.0</ele><time>2026-03-28T11:11:59.999Z</time></trkpt><trkpt lat="45.64957443532956" lon="8.714564885704762"><ele>236.33333333333334</ele><time>2026-03-28T11:12:00.999Z</time></trkpt><trkpt lat="45.649521588325875" lon="8.714315722654533"><ele>236.66666666666669</ele><time>2026-03-28T11:12:01.999Z</time></trkpt><trkpt lat="45.64947202919121" lon="8.714069187222856"><ele>237.0</ele><time>2026-03-28T11:12:02.999Z</time></trkpt><trkpt lat="45.64942543000876" lon="8.713834487272837"><ele>237.33333333333331</ele><time>2026-03-28T11:12:03.999Z</time></trkpt><trkpt lat="45.649379985123396" lon="8.71360981121797"><ele>237.66666666666666</ele><time>2026-03-28T11:12:04.999Z</time></trkpt><trkpt lat="45.64933400706549" lon="8.713375931503286"><ele>238.0</ele><time>2026-03-28T11:12:05.999Z</time></trkpt><trkpt lat="45.649285875009404" lon="8.713134283153604"><ele>238.33333333333331</ele><time>2026-03-28T11:12:06.999Z</time></trkpt><trkpt lat="45.649237384553786" lon="8.71288810689664"><ele>238.66666666666669</ele><time>2026-03-28T11:12:07.999Z</time></trkpt><trkpt lat="45.6491867906711" lon="8.712638113508037"><ele>239.0</ele><time>2026-03-28T11:12:08.999Z</time></trkpt><trkpt lat="45.649134779720846" lon="8.712394207969348"><ele>239.0</ele><time>2026-03-28T11:12:09.999Z</time></trkpt><trkpt lat="45.64908184523122" lon="8.712151543566666"><ele>239.0</ele><time>2026-03-28T11:12:10.999Z</time></trkpt><trkpt lat="45.649031330689255" lon="8.71191386524343"><ele>239.0</ele><time>2026-03-28T11:12:11.999Z</time></trkpt><trkpt lat="45.64897532249695" lon="8.71166534958094"><ele>240.0</ele><time>2026-03-28T11:12:12.999Z</time></trkpt><trkpt lat="45.64891879135452" lon="8.711408819135738"><ele>241.0</ele><time>2026-03-28T11:12:13.999Z</time></trkpt><trkpt lat="45.64886546166894" lon="8.711143941103423"><ele>242.0</ele><time>2026-03-28T11:12:14.999Z</time></trkpt><trkpt lat="45.64880970571786" lon="8.710868143567215"><ele>241.0</ele><time>2026-03-28T11:12:15.999Z</time></trkpt><trkpt lat="45.64875012211804" lon="8.710578595391587"><ele>240.0</ele><time>2026-03-28T11:12:16.999Z</time></trkpt><trkpt lat="45.648680712057526" lon="8.710280412111196"><ele>239.0</ele><time>2026-03-28T11:12:17.999Z</time></trkpt><trkpt lat="45.648593318918046" lon="8.709975138843195"><ele>239.0</ele><time>2026-03-28T11:12:18.999Z</time></trkpt><trkpt lat="45.64849480668311" lon="8.709665891564914"><ele>239.0</ele><time>2026-03-28T11:12:19.999Z</time></trkpt><trkpt lat="45.64838936433607" lon="8.709352875037876"><ele>239.5</ele><time>2026-03-28T11:12:20.999Z</time></trkpt><trkpt lat="45.64827781488593" lon="8.709052848551242"><ele>240.0</ele><time>2026-03-28T11:12:21.999Z</time></trkpt><trkpt lat="45.64816375175706" lon="8.708764832586622"><ele>242.0</ele><time>2026-03-28T11:12:22.999Z</time></trkpt><trkpt lat="45.64804519663709" lon="8.708487265849774"><ele>244.0</ele><time>2026-03-28T11:12:23.999Z</time></trkpt><trkpt lat="45.64791650983303" lon="8.708216602563489"><ele>243.33333333333331</ele><time>2026-03-28T11:12:24.999Z</time></trkpt><trkpt lat="45.647785075815044" lon="8.707966498494377"><ele>242.66666666666669</ele><time>2026-03-28T11:12:25.999Z</time></trkpt><trkpt lat="45.647641256707495" lon="8.707716072392339"><ele>242.0</ele><time>2026-03-28T11:12:26.999Z</time></trkpt><trkpt lat="45.64750598363391" lon="8.707472786540437"><ele>241.0</ele><time>2026-03-28T11:12:27.999Z</time></trkpt><trkpt lat="45.64737074727013" lon="8.707220765805822"><ele>240.0</ele><time>2026-03-28T11:12:28.999Z</time></trkpt><trkpt lat="45.64723400606934" lon="8.706972186628452"><ele>239.0</ele><time>2026-03-28T11:12:29.999Z</time></trkpt><trkpt lat="45.6471095020301" lon="8.706740555417868"><ele>239.33333333333334</ele><time>2026-03-28T11:12:30.999Z</time></trkpt><trkpt lat="45.64699395059985" lon="8.706518381536512"><ele>239.66666666666669</ele><time>2026-03-28T11:12:31.999Z</time></trkpt><trkpt lat="45.64686084402564" lon="8.706299902903599"><ele>240.0</ele><time>2026-03-28T11:12:32.999Z</time></trkpt><trkpt lat="45.64672362955786" lon="8.706107067482986"><ele>240.0</ele><time>2026-03-28T11:12:33.999Z</time></trkpt><trkpt lat="45.646584911441686" lon="8.705949107147426"><ele>240.0</ele><time>2026-03-28T11:12:34.999Z</time></trkpt><trkpt lat="45.646461247608414" lon="8.705806241045428"><ele>240.0</ele><time>2026-03-28T11:12:35.999Z</time></trkpt><trkpt lat="45.64634173898687" lon="8.705674242716643"><ele>240.0</ele><time>2026-03-28T11:12:36.999Z</time></trkpt><trkpt lat="45.64623538040822" lon="8.705555335253743"><ele>240.0</ele><time>2026-03-28T11:12:37.999Z</time></trkpt><trkpt lat="45.64613635474695" lon="8.705445148276482"><ele>240.0</ele><time>2026-03-28T11:12:38.999Z</time></trkpt><trkpt lat="45.64604968124298" lon="8.705344816986159"><ele>240.0</ele><time>2026-03-28T11:12:39.999Z</time></trkpt><trkpt lat="45.645971606768676" lon="8.705252544463567"><ele>240.5</ele><time>2026-03-28T11:12:40.999Z</time></trkpt><trkpt lat="45.64590161168164" lon="8.705169314163815"><ele>241.0</ele><time>2026-03-28T11:12:41.999Z</time></trkpt><trkpt lat="45.645830147245064" lon="8.705085342488013"><ele>241.5</ele><time>2026-03-28T11:12:42.999Z</time></trkpt><trkpt lat="45.645764882804954" lon="8.705001728475557"><ele>242.0</ele><time>2026-03-28T11:12:43.999Z</time></trkpt><trkpt lat="45.64570373520784" lon="8.704921185909445"><ele>242.5</ele><time>2026-03-28T11:12:44.999Z</time></trkpt><trkpt lat="45.64564223079645" lon="8.704831132149103"><ele>243.0</ele><time>2026-03-28T11:12:46Z</time></trkpt><trkpt lat="45.645599017280375" lon="8.704722691938818"><ele>243.0</ele><time>2026-03-28T11:12:47Z</time></trkpt><trkpt lat="45.645543009321756" lon="8.704662425799063"><ele>243.0</ele><time>2026-03-28T11:12:48Z</time></trkpt><trkpt lat="45.64561495747802" lon="8.704484161718753"><ele>243.0</ele><time>2026-03-28T11:12:49Z</time></trkpt><trkpt lat="45.64565975398891" lon="8.704366240488948"><ele>243.0</ele><time>2026-03-28T11:12:50Z</time></trkpt><trkpt lat="45.64570361904484" lon="8.704231770778511"><ele>243.0</ele><time>2026-03-28T11:12:51Z</time></trkpt><trkpt lat="45.645785666149266" lon="8.70414446047543"><ele>243.2</ele><time>2026-03-28T11:12:52Z</time></trkpt><trkpt lat="45.645888590913046" lon="8.704097670743934"><ele>243.4</ele><time>2026-03-28T11:12:53Z</time></trkpt><trkpt lat="45.64600180647253" lon="8.704092663057144"><ele>243.59999999999997</ele><time>2026-03-28T11:12:54Z</time></trkpt><trkpt lat="45.646110191049885" lon="8.704090266439444"><ele>243.79999999999998</ele><time>2026-03-28T11:12:55Z</time></trkpt><trkpt lat="45.64622155142281" lon="8.704067278277156"><ele>244.0</ele><time>2026-03-28T11:12:56Z</time></trkpt><trkpt lat="45.646339826630346" lon="8.704053247880001"><ele>245.25</ele><time>2026-03-28T11:12:57Z</time></trkpt><trkpt lat="45.64645890974915" lon="8.704044751808134"><ele>246.5</ele><time>2026-03-28T11:12:58Z</time></trkpt><trkpt lat="45.646587696905385" lon="8.704031073468833"><ele>247.75</ele><time>2026-03-28T11:12:59Z</time></trkpt><trkpt lat="45.64672727802753" lon="8.704011543375724"><ele>249.0</ele><time>2026-03-28T11:13:00Z</time></trkpt><trkpt lat="45.64687020093183" lon="8.7039923846061"><ele>248.66666666666669</ele><time>2026-03-28T11:13:01Z</time></trkpt><trkpt lat="45.64701619874605" lon="8.703977445707805"><ele>248.33333333333334</ele><time>2026-03-28T11:13:02Z</time></trkpt><trkpt lat="45.64716939465762" lon="8.703968264213565"><ele>248.0</ele><time>2026-03-28T11:13:03Z</time></trkpt><trkpt lat="45.64733216706356" lon="8.703939432542914"><ele>248.0</ele><time>2026-03-28T11:13:04Z</time></trkpt><trkpt lat="45.647497936371586" lon="8.703911138084596"><ele>248.0</ele><time>2026-03-28T11:13:05Z</time></trkpt><trkpt lat="45.64766907744892" lon="8.703894558515678"><ele>248.0</ele><time>2026-03-28T11:13:06Z</time></trkpt><trkpt lat="45.64783467253068" lon="8.703892482369094"><ele>248.66666666666669</ele><time>2026-03-28T11:13:07Z</time></trkpt><trkpt lat="45.64800447847948" lon="8.703868741702202"><ele>249.33333333333331</ele><time>2026-03-28T11:13:08Z</time></trkpt><trkpt lat="45.648184333768015" lon="8.703852245444901"><ele>250.0</ele><time>2026-03-28T11:13:09Z</time></trkpt><trkpt lat="45.64837728905792" lon="8.703847009080894"><ele>250.0</ele><time>2026-03-28T11:13:10Z</time></trkpt><trkpt lat="45.648571444327935" lon="8.70383100983985"><ele>250.0</ele><time>2026-03-28T11:13:11Z</time></trkpt><trkpt lat="45.648773041319714" lon="8.703800705472766"><ele>250.0</ele><time>2026-03-28T11:13:12Z</time></trkpt><trkpt lat="45.64896364817299" lon="8.703776526784534"><ele>250.33333333333331</ele><time>2026-03-28T11:13:13Z</time></trkpt><trkpt lat="45.6491548714519" lon="8.70375668881738"><ele>250.66666666666669</ele><time>2026-03-28T11:13:14Z</time></trkpt><trkpt lat="45.64934005919205" lon="8.703741256765737"><ele>251.0</ele><time>2026-03-28T11:13:15Z</time></trkpt><trkpt lat="45.64952212218258" lon="8.703726590006585"><ele>251.0</ele><time>2026-03-28T11:13:16Z</time></trkpt><trkpt lat="45.64970153816371" lon="8.703716271197631"><ele>251.0</ele><time>2026-03-28T11:13:17Z</time></trkpt><trkpt lat="45.649882358747824" lon="8.703727071189874"><ele>251.0</ele><time>2026-03-28T11:13:18Z</time></trkpt><trkpt lat="45.650064007273095" lon="8.703759941346393"><ele>251.0</ele><time>2026-03-28T11:13:19Z</time></trkpt><trkpt lat="45.65025054821944" lon="8.703802666286434"><ele>251.0</ele><time>2026-03-28T11:13:20Z</time></trkpt><trkpt lat="45.65042846002569" lon="8.70384923613668"><ele>251.0</ele><time>2026-03-28T11:13:21Z</time></trkpt><trkpt lat="45.65061380049513" lon="8.703894607901939"><ele>249.66666666666669</ele><time>2026-03-28T11:13:22Z</time></trkpt><trkpt lat="45.65079960508098" lon="8.703937816495085"><ele>248.33333333333331</ele><time>2026-03-28T11:13:23Z</time></trkpt><trkpt lat="45.65099207393821" lon="8.70395893227077"><ele>247.0</ele><time>2026-03-28T11:13:24Z</time></trkpt><trkpt lat="45.65119387219859" lon="8.703965347142622"><ele>246.0</ele><time>2026-03-28T11:13:25Z</time></trkpt><trkpt lat="45.65140159650551" lon="8.703970558758737"><ele>245.0</ele><time>2026-03-28T11:13:26Z</time></trkpt><trkpt lat="45.65162762675241" lon="8.70396876507356"><ele>244.0</ele><time>2026-03-28T11:13:27Z</time></trkpt><trkpt lat="45.65185787268165" lon="8.703972782187835"><ele>242.0</ele><time>2026-03-28T11:13:28Z</time></trkpt><trkpt lat="45.65209436044373" lon="8.703990648583675"><ele>240.0</ele><time>2026-03-28T11:13:29Z</time></trkpt><trkpt lat="45.65231016062697" lon="8.703999758346363"><ele>240.0</ele><time>2026-03-28T11:13:30Z</time></trkpt><trkpt lat="45.652509355012285" lon="8.70401347042683"><ele>240.0</ele><time>2026-03-28T11:13:31Z</time></trkpt><trkpt lat="45.65271363464404" lon="8.704022446203732"><ele>240.0</ele><time>2026-03-28T11:13:32Z</time></trkpt><trkpt lat="45.65291903345124" lon="8.704036729499133"><ele>239.0</ele><time>2026-03-28T11:13:33Z</time></trkpt><trkpt lat="45.6531276956484" lon="8.704054232648545"><ele>238.0</ele><time>2026-03-28T11:13:34Z</time></trkpt><trkpt lat="45.65332740972458" lon="8.70406865332382"><ele>237.0</ele><time>2026-03-28T11:13:35Z</time></trkpt><trkpt lat="45.65353178873599" lon="8.704086259558295"><ele>237.66666666666669</ele><time>2026-03-28T11:13:36Z</time></trkpt><trkpt lat="45.65371987024992" lon="8.704099116379997"><ele>238.33333333333334</ele><time>2026-03-28T11:13:37Z</time></trkpt><trkpt lat="45.65391719425611" lon="8.704121841545401"><ele>239.0</ele><time>2026-03-28T11:13:38Z</time></trkpt><trkpt lat="45.65411019892955" lon="8.704136831953358"><ele>239.0</ele><time>2026-03-28T11:13:39Z</time></trkpt><trkpt lat="45.654298778522026" lon="8.704149431863067"><ele>239.0</ele><time>2026-03-28T11:13:40Z</time></trkpt><trkpt lat="45.65448265715505" lon="8.704167802311497"><ele>239.0</ele><time>2026-03-28T11:13:41Z</time></trkpt><trkpt lat="45.65467055832175" lon="8.704168166576759"><ele>240.33333333333334</ele><time>2026-03-28T11:13:42Z</time></trkpt><trkpt lat="45.65486321808894" lon="8.70417993790261"><ele>241.66666666666669</ele><time>2026-03-28T11:13:43Z</time></trkpt><trkpt lat="45.655061718491" lon="8.704192980090303"><ele>243.0</ele><time>2026-03-28T11:13:44Z</time></trkpt><trkpt lat="45.65527001686444" lon="8.70420410745483"><ele>242.0</ele><time>2026-03-28T11:13:45Z</time></trkpt><trkpt lat="45.65546865769456" lon="8.704216114049206"><ele>241.0</ele><time>2026-03-28T11:13:46Z</time></trkpt><trkpt lat="45.655674696452586" lon="8.704227888984022"><ele>240.0</ele><time>2026-03-28T11:13:47Z</time></trkpt><trkpt lat="45.65588006817705" lon="8.704248858166197"><ele>240.0</ele><time>2026-03-28T11:13:48Z</time></trkpt><trkpt lat="45.65609628644087" lon="8.704263206010005"><ele>240.0</ele><time>2026-03-28T11:13:49Z</time></trkpt><trkpt lat="45.65629301072679" lon="8.704293209302694"><ele>240.0</ele><time>2026-03-28T11:13:50Z</time></trkpt><trkpt lat="45.65648506634414" lon="8.704307084044151"><ele>240.0</ele><time>2026-03-28T11:13:51Z</time></trkpt><trkpt lat="45.656685628219066" lon="8.704298371633993"><ele>240.0</ele><time>2026-03-28T11:13:52Z</time></trkpt><trkpt lat="45.656886135800534" lon="8.704317705703335"><ele>240.0</ele><time>2026-03-28T11:13:53Z</time></trkpt><trkpt lat="45.65708571178089" lon="8.704328868419799"><ele>239.0</ele><time>2026-03-28T11:13:54Z</time></trkpt><trkpt lat="45.657278293959266" lon="8.704347341044253"><ele>238.0</ele><time>2026-03-28T11:13:54.999Z</time></trkpt><trkpt lat="45.65746779682846" lon="8.704367546239958"><ele>237.0</ele><time>2026-03-28T11:13:55.999Z</time></trkpt><trkpt lat="45.65766598690833" lon="8.704388083355951"><ele>237.0</ele><time>2026-03-28T11:13:56.999Z</time></trkpt><trkpt lat="45.65786408432434" lon="8.70440270173394"><ele>237.0</ele><time>2026-03-28T11:13:57.999Z</time></trkpt><trkpt lat="45.658063452072" lon="8.704414768733324"><ele>237.0</ele><time>2026-03-28T11:13:58.999Z</time></trkpt><trkpt lat="45.658271140129465" lon="8.704421659124476"><ele>237.0</ele><time>2026-03-28T11:13:59.999Z</time></trkpt><trkpt lat="45.65847367306309" lon="8.704438828709572"><ele>237.0</ele><time>2026-03-28T11:14:00.999Z</time></trkpt><trkpt lat="45.65867524288692" lon="8.704452528667941"><ele>237.0</ele><time>2026-03-28T11:14:01.999Z</time></trkpt><trkpt lat="45.65887963092164" lon="8.704465349411553"><ele>238.33333333333331</ele><time>2026-03-28T11:14:02.999Z</time></trkpt><trkpt lat="45.65908992580639" lon="8.70448083367474"><ele>239.66666666666666</ele><time>2026-03-28T11:14:03.999Z</time></trkpt><trkpt lat="45.65930098849356" lon="8.704499735292476"><ele>241.0</ele><time>2026-03-28T11:14:04.999Z</time></trkpt><trkpt lat="45.659506072900435" lon="8.7045177484873"><ele>241.66666666666666</ele><time>2026-03-28T11:14:05.999Z</time></trkpt><trkpt lat="45.65971460830298" lon="8.704536446741571"><ele>242.33333333333331</ele><time>2026-03-28T11:14:06.999Z</time></trkpt><trkpt lat="45.65991097991389" lon="8.704549190718986"><ele>243.0</ele><time>2026-03-28T11:14:07.999Z</time></trkpt><trkpt lat="45.660091902634896" lon="8.704574264259525"><ele>241.66666666666669</ele><time>2026-03-28T11:14:08.999Z</time></trkpt><trkpt lat="45.66028367191691" lon="8.704594200246724"><ele>240.33333333333334</ele><time>2026-03-28T11:14:09.999Z</time></trkpt><trkpt lat="45.66046315331097" lon="8.704610287605501"><ele>239.0</ele><time>2026-03-28T11:14:10.999Z</time></trkpt><trkpt lat="45.66063996527681" lon="8.704619519331992"><ele>239.0</ele><time>2026-03-28T11:14:11.999Z</time></trkpt><trkpt lat="45.660818339446486" lon="8.704631445746166"><ele>239.0</ele><time>2026-03-28T11:14:12.999Z</time></trkpt><trkpt lat="45.66099582430686" lon="8.704646586909444"><ele>239.0</ele><time>2026-03-28T11:14:13.999Z</time></trkpt><trkpt lat="45.66116607580385" lon="8.704659295538123"><ele>239.0</ele><time>2026-03-28T11:14:14.999Z</time></trkpt><trkpt lat="45.661336148450815" lon="8.704660115576296"><ele>239.0</ele><time>2026-03-28T11:14:15.999Z</time></trkpt><trkpt lat="45.66150784333478" lon="8.704661709449944"><ele>239.0</ele><time>2026-03-28T11:14:16.999Z</time></trkpt><trkpt lat="45.66168324028159" lon="8.704678401362791"><ele>239.0</ele><time>2026-03-28T11:14:17.999Z</time></trkpt><trkpt lat="45.661867970321076" lon="8.7047155336652"><ele>239.0</ele><time>2026-03-28T11:14:18.999Z</time></trkpt><trkpt lat="45.66205736643615" lon="8.704739124258314"><ele>239.0</ele><time>2026-03-28T11:14:19.999Z</time></trkpt><trkpt lat="45.66225481125797" lon="8.704751719995965"><ele>239.33333333333334</ele><time>2026-03-28T11:14:20.999Z</time></trkpt><trkpt lat="45.66246278714706" lon="8.704774734146694"><ele>239.66666666666669</ele><time>2026-03-28T11:14:21.999Z</time></trkpt><trkpt lat="45.66265845471477" lon="8.70480176598033"><ele>240.0</ele><time>2026-03-28T11:14:22.999Z</time></trkpt><trkpt lat="45.66285971544147" lon="8.704827057639433"><ele>240.0</ele><time>2026-03-28T11:14:23.999Z</time></trkpt><trkpt lat="45.66305711875776" lon="8.704848366195337"><ele>240.0</ele><time>2026-03-28T11:14:24.999Z</time></trkpt><trkpt lat="45.66324785386865" lon="8.704870832139969"><ele>240.0</ele><time>2026-03-28T11:14:25.999Z</time></trkpt><trkpt lat="45.66344354344281" lon="8.704893088899665"><ele>239.66666666666669</ele><time>2026-03-28T11:14:26.999Z</time></trkpt><trkpt lat="45.66363376185457" lon="8.70490776714334"><ele>239.33333333333334</ele><time>2026-03-28T11:14:27.999Z</time></trkpt><trkpt lat="45.66383025000777" lon="8.704919113939415"><ele>239.0</ele><time>2026-03-28T11:14:28.999Z</time></trkpt><trkpt lat="45.66402687579515" lon="8.704923620819557"><ele>239.0</ele><time>2026-03-28T11:14:29.999Z</time></trkpt><trkpt lat="45.6642268433978" lon="8.704928234011968"><ele>239.0</ele><time>2026-03-28T11:14:30.999Z</time></trkpt><trkpt lat="45.6644278904738" lon="8.704930290129314"><ele>239.0</ele><time>2026-03-28T11:14:31.999Z</time></trkpt><trkpt lat="45.66462514132802" lon="8.704930218917086"><ele>239.0</ele><time>2026-03-28T11:14:32.999Z</time></trkpt><trkpt lat="45.66482487379359" lon="8.704927201988058"><ele>239.0</ele><time>2026-03-28T11:14:33.999Z</time></trkpt><trkpt lat="45.665032028589565" lon="8.704932275205906"><ele>239.0</ele><time>2026-03-28T11:14:34.999Z</time></trkpt><trkpt lat="45.66523818668476" lon="8.704932580875028"><ele>238.0</ele><time>2026-03-28T11:14:35.999Z</time></trkpt><trkpt lat="45.66543352895688" lon="8.704930837235931"><ele>237.0</ele><time>2026-03-28T11:14:36.999Z</time></trkpt><trkpt lat="45.665615249042496" lon="8.704926767552688"><ele>236.0</ele><time>2026-03-28T11:14:37.999Z</time></trkpt><trkpt lat="45.665798233749534" lon="8.704915537785261"><ele>236.0</ele><time>2026-03-28T11:14:38.999Z</time></trkpt><trkpt lat="45.66598308003796" lon="8.704913482168676"><ele>236.0</ele><time>2026-03-28T11:14:39.999Z</time></trkpt><trkpt lat="45.66616602511758" lon="8.70491543621077"><ele>236.0</ele><time>2026-03-28T11:14:40.999Z</time></trkpt><trkpt lat="45.666341845853154" lon="8.704917455441793"><ele>235.66666666666669</ele><time>2026-03-28T11:14:41.999Z</time></trkpt><trkpt lat="45.666525145840104" lon="8.704915604354735"><ele>235.33333333333331</ele><time>2026-03-28T11:14:42.999Z</time></trkpt><trkpt lat="45.66670214313228" lon="8.7049139443363"><ele>235.0</ele><time>2026-03-28T11:14:43.999Z</time></trkpt><trkpt lat="45.66687845218602" lon="8.704913689555308"><ele>235.0</ele><time>2026-03-28T11:14:44.999Z</time></trkpt><trkpt lat="45.66703271222151" lon="8.704942866297346"><ele>235.0</ele><time>2026-03-28T11:14:45.999Z</time></trkpt><trkpt lat="45.667187617716685" lon="8.704953301355502"><ele>235.0</ele><time>2026-03-28T11:14:46.999Z</time></trkpt><trkpt lat="45.66734100734989" lon="8.704967419126515"><ele>235.0</ele><time>2026-03-28T11:14:47.999Z</time></trkpt><trkpt lat="45.667477765489124" lon="8.70498190160959"><ele>235.0</ele><time>2026-03-28T11:14:48.999Z</time></trkpt><trkpt lat="45.66760885829104" lon="8.704996474362579"><ele>235.0</ele><time>2026-03-28T11:14:49.999Z</time></trkpt><trkpt lat="45.66773893879768" lon="8.704991947306025"><ele>235.0</ele><time>2026-03-28T11:14:50.999Z</time></trkpt><trkpt lat="45.667859571782344" lon="8.705020836725984"><ele>234.8</ele><time>2026-03-28T11:14:52Z</time></trkpt><trkpt lat="45.66797133843513" lon="8.705025115172571"><ele>234.6</ele><time>2026-03-28T11:14:53Z</time></trkpt><trkpt lat="45.66807876378364" lon="8.705030730054542"><ele>234.39999999999998</ele><time>2026-03-28T11:14:54Z</time></trkpt><trkpt lat="45.66818886650436" lon="8.705062506607185"><ele>234.2</ele><time>2026-03-28T11:14:55Z</time></trkpt><trkpt lat="45.66829641141425" lon="8.705075424271444"><ele>234.0</ele><time>2026-03-28T11:14:56Z</time></trkpt><trkpt lat="45.668403083331235" lon="8.705088421205797"><ele>234.0</ele><time>2026-03-28T11:14:57Z</time></trkpt><trkpt lat="45.668510773790516" lon="8.705102007359445"><ele>233.99999999999997</ele><time>2026-03-28T11:14:58Z</time></trkpt><trkpt lat="45.66862094348337" lon="8.705076767756443"><ele>233.99999999999997</ele><time>2026-03-28T11:14:59Z</time></trkpt><trkpt lat="45.668722639830875" lon="8.705098254451737"><ele>234.0</ele><time>2026-03-28T11:15:00Z</time></trkpt><trkpt lat="45.66882108047992" lon="8.705120239704819"><ele>234.0</ele><time>2026-03-28T11:15:01Z</time></trkpt><trkpt lat="45.66891686724367" lon="8.705131957763689"><ele>234.66666666666666</ele><time>2026-03-28T11:15:02Z</time></trkpt><trkpt lat="45.669007129732485" lon="8.705145462249085"><ele>235.33333333333331</ele><time>2026-03-28T11:15:03Z</time></trkpt><trkpt lat="45.66909745291355" lon="8.705169713618297"><ele>236.0</ele><time>2026-03-28T11:15:04Z</time></trkpt><trkpt lat="45.669181811499996" lon="8.705175160669109"><ele>236.66666666666666</ele><time>2026-03-28T11:15:05Z</time></trkpt><trkpt lat="45.66925936039017" lon="8.705180661089098"><ele>237.33333333333331</ele><time>2026-03-28T11:15:06Z</time></trkpt><trkpt lat="45.669327726276116" lon="8.70518794746948"><ele>238.0</ele><time>2026-03-28T11:15:07Z</time></trkpt><trkpt lat="45.66939035317165" lon="8.705204690238364"><ele>238.0</ele><time>2026-03-28T11:15:08Z</time></trkpt><trkpt lat="45.669503785816" lon="8.705256529186013"><ele>238.0</ele><time>2026-03-28T11:15:10Z</time></trkpt><trkpt lat="45.6696096120435" lon="8.705348096393108"><ele>238.0</ele><time>2026-03-28T11:15:12Z</time></trkpt><trkpt lat="45.66966427979385" lon="8.705406646252047"><ele>238.0</ele><time>2026-03-28T11:15:13Z</time></trkpt><trkpt lat="45.66972990988973" lon="8.70544672280751"><ele>238.0</ele><time>2026-03-28T11:15:14Z</time></trkpt><trkpt lat="45.66981288064321" lon="8.70544474890592"><ele>238.0</ele><time>2026-03-28T11:15:15Z</time></trkpt><trkpt lat="45.66990467079943" lon="8.705408412320724"><ele>238.0</ele><time>2026-03-28T11:15:16Z</time></trkpt><trkpt lat="45.67003072903686" lon="8.705468534330041"><ele>238.0</ele><time>2026-03-28T11:15:17Z</time></trkpt><trkpt lat="45.670153358182965" lon="8.705546676404712"><ele>238.0</ele><time>2026-03-28T11:15:18Z</time></trkpt><trkpt lat="45.67027672346438" lon="8.705633323716782"><ele>239.0</ele><time>2026-03-28T11:15:19Z</time></trkpt><trkpt lat="45.67041475623227" lon="8.705718414853928"><ele>240.0</ele><time>2026-03-28T11:15:20Z</time></trkpt><trkpt lat="45.670556074301906" lon="8.70579600047975"><ele>241.0</ele><time>2026-03-28T11:15:21Z</time></trkpt><trkpt lat="45.670692609395225" lon="8.705870668822543"><ele>242.0</ele><time>2026-03-28T11:15:22Z</time></trkpt><trkpt lat="45.670819957366426" lon="8.70593809591611"><ele>242.0</ele><time>2026-03-28T11:15:23Z</time></trkpt><trkpt lat="45.67094587892452" lon="8.706001263893658"><ele>242.0</ele><time>2026-03-28T11:15:24Z</time></trkpt><trkpt lat="45.67106475068618" lon="8.70605572431986"><ele>242.0</ele><time>2026-03-28T11:15:25Z</time></trkpt><trkpt lat="45.67120073675958" lon="8.70608669843807"><ele>242.0</ele><time>2026-03-28T11:15:26Z</time></trkpt><trkpt lat="45.6713339578281" lon="8.706100596883866"><ele>244.25</ele><time>2026-03-28T11:15:27Z</time></trkpt><trkpt lat="45.67148021885344" lon="8.706101570354333"><ele>246.5</ele><time>2026-03-28T11:15:28Z</time></trkpt><trkpt lat="45.67161439080755" lon="8.706081147647796"><ele>248.75</ele><time>2026-03-28T11:15:29Z</time></trkpt><trkpt lat="45.67176900483285" lon="8.706050066562364"><ele>251.0</ele><time>2026-03-28T11:15:30Z</time></trkpt><trkpt lat="45.67190201345502" lon="8.706010779065503"><ele>252.0</ele><time>2026-03-28T11:15:31Z</time></trkpt><trkpt lat="45.672030953086036" lon="8.7059640123375"><ele>253.0</ele><time>2026-03-28T11:15:32Z</time></trkpt><trkpt lat="45.672172381470226" lon="8.705937329588242"><ele>254.0</ele><time>2026-03-28T11:15:33Z</time></trkpt><trkpt lat="45.67229548293339" lon="8.705904532368056"><ele>255.0</ele><time>2026-03-28T11:15:34Z</time></trkpt><trkpt lat="45.672417495313304" lon="8.70587856632164"><ele>255.0</ele><time>2026-03-28T11:15:35Z</time></trkpt><trkpt lat="45.67255074095165" lon="8.705866495334794"><ele>255.0</ele><time>2026-03-28T11:15:36Z</time></trkpt><trkpt lat="45.67265784444024" lon="8.70583241732689"><ele>255.0</ele><time>2026-03-28T11:15:37Z</time></trkpt><trkpt lat="45.67275155300894" lon="8.7057954147851"><ele>255.0</ele><time>2026-03-28T11:15:38Z</time></trkpt><trkpt lat="45.67284296504877" lon="8.705766613990617"><ele>255.0</ele><time>2026-03-28T11:15:39Z</time></trkpt><trkpt lat="45.672936220926644" lon="8.705740772053357"><ele>255.33333333333334</ele><time>2026-03-28T11:15:40Z</time></trkpt><trkpt lat="45.67303508743166" lon="8.705723944604243"><ele>255.66666666666669</ele><time>2026-03-28T11:15:41Z</time></trkpt><trkpt lat="45.67312604704422" lon="8.705705262255817"><ele>256.0</ele><time>2026-03-28T11:15:42Z</time></trkpt><trkpt lat="45.67321912310535" lon="8.705686271003033"><ele>256.33333333333337</ele><time>2026-03-28T11:15:43Z</time></trkpt><trkpt lat="45.673296250825295" lon="8.705660582512"><ele>256.6666666666667</ele><time>2026-03-28T11:15:44Z</time></trkpt><trkpt lat="45.673369720612904" lon="8.705644095911667"><ele>257.0</ele><time>2026-03-28T11:15:45Z</time></trkpt><trkpt lat="45.67344137100669" lon="8.705620382652048"><ele>257.0</ele><time>2026-03-28T11:15:46Z</time></trkpt><trkpt lat="45.67350556684135" lon="8.705619809147896"><ele>257.0</ele><time>2026-03-28T11:15:47Z</time></trkpt><trkpt lat="45.673571157369004" lon="8.705608759132874"><ele>257.0</ele><time>2026-03-28T11:15:48Z</time></trkpt><trkpt lat="45.67367296974342" lon="8.705582363178884"><ele>257.0</ele><time>2026-03-28T11:15:50Z</time></trkpt><trkpt lat="45.67376390494188" lon="8.705556537600051"><ele>257.0</ele><time>2026-03-28T11:15:52Z</time></trkpt><trkpt lat="45.67388950849663" lon="8.705536734837244"><ele>257.0</ele><time>2026-03-28T11:15:54Z</time></trkpt><trkpt lat="45.6740039461876" lon="8.705510727381021"><ele>257.0</ele><time>2026-03-28T11:15:56Z</time></trkpt><trkpt lat="45.67413250135957" lon="8.70549724141662"><ele>257.0</ele><time>2026-03-28T11:15:58Z</time></trkpt><trkpt lat="45.67420857147264" lon="8.705513226206719"><ele>257.0</ele><time>2026-03-28T11:15:58.999Z</time></trkpt><trkpt lat="45.67428910832805" lon="8.705517491564963"><ele>257.0</ele><time>2026-03-28T11:15:59.999Z</time></trkpt><trkpt lat="45.67437226535606" lon="8.705493598855547"><ele>257.0</ele><time>2026-03-28T11:16:00.999Z</time></trkpt><trkpt lat="45.67446981717481" lon="8.705444835780172"><ele>257.0</ele><time>2026-03-28T11:16:01.999Z</time></trkpt><trkpt lat="45.674565550091664" lon="8.705403988873782"><ele>257.0</ele><time>2026-03-28T11:16:02.999Z</time></trkpt><trkpt lat="45.674670996588105" lon="8.705382206524618"><ele>257.0</ele><time>2026-03-28T11:16:03.999Z</time></trkpt><trkpt lat="45.67476433221487" lon="8.705365548214413"><ele>257.0</ele><time>2026-03-28T11:16:04.999Z</time></trkpt><trkpt lat="45.67486620676203" lon="8.705352735851488"><ele>257.0</ele><time>2026-03-28T11:16:05.999Z</time></trkpt><trkpt lat="45.67496744251616" lon="8.70534122340009"><ele>257.0</ele><time>2026-03-28T11:16:06.999Z</time></trkpt><trkpt lat="45.67509580142552" lon="8.70533878958565"><ele>257.0</ele><time>2026-03-28T11:16:07.999Z</time></trkpt><trkpt lat="45.67519523516196" lon="8.705329939369909"><ele>257.0</ele><time>2026-03-28T11:16:08.999Z</time></trkpt><trkpt lat="45.675295105884366" lon="8.705322701275641"><ele>257.0</ele><time>2026-03-28T11:16:09.999Z</time></trkpt><trkpt lat="45.67539281093914" lon="8.705325672482966"><ele>257.42857142857144</ele><time>2026-03-28T11:16:10.999Z</time></trkpt><trkpt lat="45.67547858857046" lon="8.705329025015791"><ele>257.8571428571429</ele><time>2026-03-28T11:16:11.999Z</time></trkpt><trkpt lat="45.67555619353581" lon="8.705338642984305"><ele>258.28571428571433</ele><time>2026-03-28T11:16:12.999Z</time></trkpt><trkpt lat="45.67562200706105" lon="8.705356031353627"><ele>258.7142857142857</ele><time>2026-03-28T11:16:13.999Z</time></trkpt><trkpt lat="45.67568799370977" lon="8.705382078433873"><ele>259.14285714285717</ele><time>2026-03-28T11:16:14.999Z</time></trkpt><trkpt lat="45.67575044706913" lon="8.70541099942776"><ele>259.5714285714286</ele><time>2026-03-28T11:16:15.999Z</time></trkpt><trkpt lat="45.67581088327962" lon="8.705471935106624"><ele>260.0</ele><time>2026-03-28T11:16:16.999Z</time></trkpt><trkpt lat="45.675862005008234" lon="8.70555814863502"><ele>260.0</ele><time>2026-03-28T11:16:17.999Z</time></trkpt><trkpt lat="45.675890272230234" lon="8.705666417616493"><ele>260.0</ele><time>2026-03-28T11:16:18.999Z</time></trkpt><trkpt lat="45.67589225855235" lon="8.705781646781052"><ele>260.0</ele><time>2026-03-28T11:16:19.999Z</time></trkpt><trkpt lat="45.67592715746933" lon="8.70585924748056"><ele>260.0</ele><time>2026-03-28T11:16:20.999Z</time></trkpt><trkpt lat="45.67579763196496" lon="8.705986409969169"><ele>260.0</ele><time>2026-03-28T11:16:21.999Z</time></trkpt><trkpt lat="45.67574750931291" lon="8.70608654097025"><ele>260.0</ele><time>2026-03-28T11:16:22.999Z</time></trkpt><trkpt lat="45.6757000048068" lon="8.70618266164883"><ele>260.0</ele><time>2026-03-28T11:16:23.999Z</time></trkpt><trkpt lat="45.67564434146036" lon="8.706281665584557"><ele>260.0</ele><time>2026-03-28T11:16:24.999Z</time></trkpt><trkpt lat="45.67559108401436" lon="8.706386536883985"><ele>260.0</ele><time>2026-03-28T11:16:25.999Z</time></trkpt><trkpt lat="45.675526049880176" lon="8.706502497815816"><ele>260.0</ele><time>2026-03-28T11:16:26.999Z</time></trkpt><trkpt lat="45.6754696990847" lon="8.706603199245079"><ele>260.00000000000006</ele><time>2026-03-28T11:16:27.999Z</time></trkpt><trkpt lat="45.675419416009724" lon="8.70670151068652"><ele>260.0</ele><time>2026-03-28T11:16:28.999Z</time></trkpt><trkpt lat="45.67536954984466" lon="8.7067857501197"><ele>260.0</ele><time>2026-03-28T11:16:29.999Z</time></trkpt><trkpt lat="45.67531776204445" lon="8.706867305944323"><ele>260.0</ele><time>2026-03-28T11:16:30.999Z</time></trkpt><trkpt lat="45.67525793711526" lon="8.706928987586982"><ele>260.0</ele><time>2026-03-28T11:16:31.999Z</time></trkpt><trkpt lat="45.675200447860846" lon="8.70697531182496"><ele>260.00000000000006</ele><time>2026-03-28T11:16:32.999Z</time></trkpt><trkpt lat="45.67514700269428" lon="8.707031897856412"><ele>260.0</ele><time>2026-03-28T11:16:33.999Z</time></trkpt><trkpt lat="45.67511253393435" lon="8.707136183140863"><ele>259.8</ele><time>2026-03-28T11:16:34.999Z</time></trkpt><trkpt lat="45.67508932108943" lon="8.707262153787067"><ele>259.6</ele><time>2026-03-28T11:16:35.999Z</time></trkpt><trkpt lat="45.67504215700978" lon="8.707366524099303"><ele>259.4</ele><time>2026-03-28T11:16:36.999Z</time></trkpt><trkpt lat="45.67498680315921" lon="8.707459293012827"><ele>259.2</ele><time>2026-03-28T11:16:37.999Z</time></trkpt><trkpt lat="45.67492528633399" lon="8.70757478989905"><ele>259.0</ele><time>2026-03-28T11:16:38.999Z</time></trkpt><trkpt lat="45.67486595732551" lon="8.707686847665837"><ele>259.0</ele><time>2026-03-28T11:16:39.999Z</time></trkpt><trkpt lat="45.67479834975221" lon="8.707811806973709"><ele>259.0</ele><time>2026-03-28T11:16:40.999Z</time></trkpt><trkpt lat="45.67472530958332" lon="8.707942560838053"><ele>259.0</ele><time>2026-03-28T11:16:41.999Z</time></trkpt><trkpt lat="45.674657186001525" lon="8.708070678000777"><ele>259.0</ele><time>2026-03-28T11:16:42.999Z</time></trkpt><trkpt lat="45.67458701684178" lon="8.708205751794956"><ele>259.0</ele><time>2026-03-28T11:16:43.999Z</time></trkpt><trkpt lat="45.674517986266096" lon="8.708333313550817"><ele>259.0</ele><time>2026-03-28T11:16:44.999Z</time></trkpt><trkpt lat="45.67444895826264" lon="8.708469329125178"><ele>259.0</ele><time>2026-03-28T11:16:45.999Z</time></trkpt><trkpt lat="45.674380033464615" lon="8.708598980484055"><ele>259.0</ele><time>2026-03-28T11:16:46.999Z</time></trkpt><trkpt lat="45.67430864030524" lon="8.708733852217827"><ele>259.0</ele><time>2026-03-28T11:16:47.999Z</time></trkpt><trkpt lat="45.67423739416707" lon="8.70885763640138"><ele>259.0</ele><time>2026-03-28T11:16:48.999Z</time></trkpt><trkpt lat="45.67416376967311" lon="8.708986952038655"><ele>259.0</ele><time>2026-03-28T11:16:49.999Z</time></trkpt><trkpt lat="45.674094320738604" lon="8.70911633050082"><ele>259.0</ele><time>2026-03-28T11:16:50.999Z</time></trkpt><trkpt lat="45.67403011376482" lon="8.709231457583053"><ele>259.0</ele><time>2026-03-28T11:16:51.999Z</time></trkpt><trkpt lat="45.67396531812589" lon="8.709346252070143"><ele>258.8333333333333</ele><time>2026-03-28T11:16:52.999Z</time></trkpt><trkpt lat="45.67390654770508" lon="8.70945700674766"><ele>258.66666666666663</ele><time>2026-03-28T11:16:53.999Z</time></trkpt><trkpt lat="45.67385406019674" lon="8.709551616067607"><ele>258.5</ele><time>2026-03-28T11:16:54.999Z</time></trkpt><trkpt lat="45.67380777112402" lon="8.709638959399392"><ele>258.3333333333333</ele><time>2026-03-28T11:16:55.999Z</time></trkpt><trkpt lat="45.67377051193689" lon="8.709728130114557"><ele>258.1666666666667</ele><time>2026-03-28T11:16:56.999Z</time></trkpt><trkpt lat="45.67373738685489" lon="8.70980992418406"><ele>258.0</ele><time>2026-03-28T11:16:58Z</time></trkpt><trkpt lat="45.67366556648498" lon="8.709945153189038"><ele>258.0</ele><time>2026-03-28T11:17:00Z</time></trkpt><trkpt lat="45.67361210136969" lon="8.710001380893935"><ele>258.0</ele><time>2026-03-28T11:17:02Z</time></trkpt><trkpt lat="45.673545544777696" lon="8.71003592095503"><ele>258.0</ele><time>2026-03-28T11:17:24Z</time></trkpt><trkpt lat="45.673564245114655" lon="8.709702820724676"><ele>258.0</ele><time>2026-03-28T11:17:40Z</time></trkpt><trkpt lat="45.67351863800659" lon="8.70963014654895"><ele>258.0</ele><time>2026-03-28T11:17:44Z</time></trkpt><trkpt lat="45.67324051518039" lon="8.709897915420164"><ele>257.0</ele><time>2026-03-28T11:18:03.999Z</time></trkpt></trkseg></trk></gpx>